.

MPMG - Transparência

Contracheque - Remuneração de todos os servidores ativos - Pós Resolução CNMP 200/2019

Período: 2023 - Abril

Ordem Matrícula Nome Cargo Efetivo Lotação Rendimentos Descontos Rendimento Líquido Total *14 Data de Referência
Remuneração básica Remuneração eventual ou Temporária Outras Remunerações Temporárias *7 Verbas Indenizatórias *8 Total de Rendimentos Brutos *9 Obrigatórios Legais Outros Descontos Eventuais Total de descontos *13
Remuneração do Cargo Efetivo *1 Outras Verbas Remuneratórias *2 Função de Confiança ou Cargo em Comissão *3 Gratificação Natalina *4 Férias 1/3 Constitucional *5 Abono de Permanência *6 Contribuição Previdenciária *10 Imposto de Renda *11 Retenção por Teto Constitucional *12
1 498900 ABDON MARCIO BARBOSA DA SILVA OFICIAL DO MP ABRE CAMPO - COMARCA; ABRE CAMPO-PJ-01PJ 7.506,70 1.501,34 0,00 0,00 0,00 0,00 0,00 2.078,00 11.086,04 1.222,23 1.167,46 0,00 0,00 2.389,69 8.696,35 30/04/2023
2 177800 ADALBERTO MENEZES FARIA SAMORA OFICIAL DO MP BELO HORIZONTE - COMARCA; DIRET DE PLANOS PROJETOS E PROGRAMAS INST 21.346,53 8.538,61 0,00 0,00 0,00 0,00 547,89 8.055,03 38.488,06 4.562,57 5.990,07 0,00 0,00 10.552,64 27.935,42 30/04/2023
3 306400 ADALBERTO MOREIRA GONCALVES ANALISTA DO MP BELO HORIZONTE - COMARCA; BH-24PJ JUIZO REG BARREIRO-SECRETARIA 22.191,68 6.657,50 0,00 0,00 0,00 0,00 528,90 7.847,84 37.225,92 4.396,82 5.855,04 0,00 0,00 10.251,86 26.974,06 30/04/2023
4 179300 ADENISE AUXILIADORA SOUZA SAD OFICIAL DO MP BARBACENA - COMARCA; BARBACENA-PJ-06PJ 20.533,67 8.213,47 0,00 0,00 0,00 0,00 527,03 7.827,43 37.101,60 4.380,49 5.727,19 0,00 0,00 10.107,68 26.993,92 30/04/2023
5 272200 ADILSON BATISTA ORNELAS OFICIAL DO MP LAVRAS - COMARCA; LAVRAS-PJ-SECRETARIA 7.506,70 2.252,01 0,00 0,00 0,00 0,00 0,00 2.078,00 11.836,71 1.342,34 1.393,00 0,00 0,00 2.735,34 9.101,37 30/04/2023
6 380100 ADILSON GONCALVES DE MELO JUNIOR ANALISTA DO MP ARAXÁ - COMARCA; ARAXA-PJ-05PJ 16.469,17 4.940,75 0,00 0,00 0,00 0,00 157,01 3.790,79 25.357,72 3.206,54 4.032,30 0,00 0,00 7.238,84 18.118,88 30/04/2023
7 148800 ADILSON JANUARIO OFICIAL DO MP BELO HORIZONTE - COMARCA; BH-22PJ PES COM DEF E IDOSOS-SECRETARIA 23.070,31 18.456,25 0,00 0,00 0,00 5.795,34 477,24 7.284,24 55.083,38 5.795,34 9.415,74 3.936,60 0,00 19.147,68 35.935,70 30/04/2023
8 322601 ADMILSON SILVEIRA ANALISTA DO MP SAO JOAO DO PARAISO COMARCA; SAO JOAO DO PARAISO-PJ-UNPJ 12.343,61 1.234,36 0,00 0,00 0,00 0,00 0,00 3.028,00 16.605,97 1.953,42 2.327,39 0,00 0,00 4.280,81 12.325,16 30/04/2023
9 333700 ADRIANA ABRITTA TEIXEIRA OFICIAL DO MP BELO HORIZONTE - COMARCA; DIRET DE PESSOAL DO MINISTERIO PUBLICO - DPMP 12.343,61 3.703,08 0,00 0,00 0,00 0,00 0,00 2.078,00 18.124,69 2.348,42 2.897,66 0,00 0,00 5.246,08 12.878,61 30/04/2023
10 468500 ADRIANA APARECIDA FIRMINO ANALISTA DO MP CARATINGA - COMARCA; CARATINGA-PJ-04PJ 12.343,61 2.468,72 0,00 0,00 0,00 0,00 0,00 2.078,00 16.890,33 2.150,92 2.560,39 0,00 0,00 4.711,31 12.179,02 30/04/2023
11 326100 ADRIANA AUGUSTA AMARAL BELO OFICIAL DO MP BARBACENA - COMARCA; BARBACENA-PJ-08PJ 12.343,61 3.703,08 0,00 0,00 0,00 0,00 0,00 2.078,00 18.124,69 2.348,42 2.793,39 0,00 0,00 5.141,81 12.982,88 30/04/2023
12 605700 ADRIANA COSTA LIRA OFICIAL DO MP BELO HORIZONTE - COMARCA; CAO-EDUCACAO 7.506,70 750,67 4.020,58 0,00 0,00 0,00 0,00 2.078,00 14.355,95 1.102,13 2.203,99 0,00 0,00 3.306,12 11.049,83 30/04/2023
13 541100 ADRIANA CRISTINA DE OLIVEIRA OFICIAL DO MP GUAPÉ - COMARCA; GUAPE-PJ-UNPJ 7.506,70 1.501,34 0,00 0,00 0,00 0,00 0,00 2.078,00 11.086,04 1.222,23 1.219,60 0,00 0,00 2.441,83 8.644,21 30/04/2023
14 254800 ADRIANA DAS GRACAS FERNANDES ANALISTA DO MP UBERABA - COMARCA; UBERABA-PJ-07PJ 23.070,31 18.456,25 0,00 0,00 0,00 0,00 0,00 2.078,00 43.604,56 5.795,34 7.822,02 3.936,60 0,00 17.553,96 26.050,60 30/04/2023
15 217400 ADRIANA DE CARVALHO CATAO BRAGA ASSESSOR ADMINISTRATIVO III BELO HORIZONTE - COMARCA; DIV FISCAL ADM CONT TERCEIRIZACAO 0,00 4.343,56 10.858,90 0,00 0,00 0,00 0,00 2.078,00 17.280,46 877,22 3.482,58 0,00 0,00 4.359,80 12.920,66 30/04/2023
16 434600 ADRIANA FERREIRA DA SILVA ANALISTA DO MP BELO HORIZONTE - COMARCA; BH-14PJ DEFESA CONSUMIDOR-GAB 112PJ 17.559,01 3.511,80 0,00 0,00 0,00 0,00 0,00 2.078,00 23.148,81 3.152,28 4.058,24 0,00 0,00 7.210,52 15.938,29 30/04/2023
17 499800 ADRIANA FERREIRA TIAGO OFICIAL DO MP SALINAS - COMARCA; SALINAS-PJ-02PJ 9.699,77 1.939,95 0,00 0,00 0,00 0,00 0,00 2.078,00 13.717,72 1.643,30 1.775,38 0,00 0,00 3.418,68 10.299,04 30/04/2023
18 543400 ADRIANA GUIMARAES NUNES DE PAULA ANALISTA DO MP PATROCÍNIO - COMARCA; PATROCINIO-PJ-01PJ 12.343,61 2.468,72 0,00 0,00 0,00 0,00 1.234,36 3.028,00 19.074,69 982,16 3.045,13 0,00 0,00 4.027,29 15.047,40 30/04/2023
19 471500 ADRIANA HORTA DE CARVALHO RODRIGUES DE SOUSA ANALISTA DO MP BELO HORIZONTE - COMARCA; GRUPO ESP PROM JUST DEF PROB ADM PAT PUB 12.343,61 2.468,72 0,00 0,00 0,00 0,00 0,00 2.078,00 16.890,33 2.150,92 2.560,39 0,00 0,00 4.711,31 12.179,02 30/04/2023
20 86400 ADRIANA MOREIRA CALDEIRA BRANT OFICIAL DO MP BELO HORIZONTE - COMARCA; BH-21PJ TUTELA FUNDACOES-SECRETARIA 21.346,53 14.942,57 0,00 0,00 0,00 5.587,20 0,00 2.078,00 43.954,30 5.587,20 9.110,14 0,00 0,00 14.697,34 29.256,96 30/04/2023
21 480700 ADRIANA MOREIRA DE AVELLAR CEZILIO OFICIAL DO MP BELO HORIZONTE - COMARCA; BH-12PJ JUIZO CRIMINAL-SECRETARIA 7.506,70 1.501,34 0,00 0,00 0,00 0,00 0,00 2.078,00 11.086,04 1.222,23 1.167,46 0,00 0,00 2.389,69 8.696,35 30/04/2023
22 326000 ADRIANA PEREIRA CARNEIRO RESENDE OFICIAL DO MP BELO HORIZONTE - COMARCA; BH-25PJ DEFESA DA EDUCACAO-SECRETARIA 12.343,61 3.703,08 0,00 0,00 0,00 0,00 0,00 2.078,00 18.124,69 2.348,42 2.897,66 0,00 0,00 5.246,08 12.878,61 30/04/2023
23 502200 ADRIANA PETRUCCI DAVINA OFICIAL DO MP PATROCÍNIO - COMARCA; PATROCINIO-PJ-01PJ 10.516,49 2.103,30 0,00 0,00 0,00 0,00 0,00 3.028,00 15.647,79 1.800,11 2.106,05 0,00 0,00 3.906,16 11.741,63 30/04/2023
24 201900 ADRIANA REIS PIMENTA OFICIAL DO MP TEÓFILO OTONI - COMARCA; TEOFILO OTONI-PJ-03PJ 20.533,67 8.213,47 0,00 0,00 0,00 0,00 527,03 7.827,43 37.101,60 4.380,49 5.831,47 0,00 0,00 10.211,96 26.889,64 30/04/2023
25 278700 ADRIANA RODRIGUES PINTO COELHO AMARAL ANALISTA DO MP BELO HORIZONTE - COMARCA; CGMP-DIR ESTAGIO PROBATORIO E ORIENT 23.070,31 6.921,09 0,00 0,00 0,00 0,00 0,00 2.078,00 32.069,40 4.579,57 6.118,89 0,00 0,00 10.698,46 21.370,94 30/04/2023
26 468000 ADRIANA SANTOS DE SANTANA MOREIRA ANALISTA DO MP GOVERNADOR VALADARES - COMARCA; GAECO REGIONAL DE GOVERNADOR VALADARES 12.343,61 4.937,44 0,00 0,00 0,00 0,00 0,00 2.078,00 19.359,05 2.545,92 3.078,53 0,00 0,00 5.624,45 13.734,60 30/04/2023
27 194700 ADRIANA TSUKIDE OFICIAL DO MP UBERABA - COMARCA; COORD REG BACIAS PARANAIBA BAIXO RIO GRANDE 20.533,67 8.213,47 0,00 0,00 0,00 0,00 527,03 7.827,43 37.101,60 4.380,49 5.779,33 0,00 0,00 10.159,82 26.941,78 30/04/2023
28 465500 ADRIANO CASSIANO MATOS ANALISTA DO MP ARAXÁ - COMARCA; ARAXA-PJ-02PJ 12.343,61 2.468,72 0,00 0,00 0,00 0,00 0,00 2.078,00 16.890,33 2.150,92 2.612,53 0,00 0,00 4.763,45 12.126,88 30/04/2023
29 500500 ADRIANO DE ALMEIDA SILVA OFICIAL DO MP UBERABA - COMARCA; UBERABA-PJ-12PJ 10.516,49 2.103,30 0,00 0,00 0,00 0,00 0,00 3.028,00 15.647,79 1.800,11 1.568,98 0,00 0,00 3.369,09 12.278,70 30/04/2023
30 187200 ADRIANO DE FREITAS MARON OFICIAL DO MP PONTE NOVA - COMARCA; PONTE NOVA-PJ-03PJ 17.559,01 15.803,11 0,00 0,00 0,00 5.118,89 423,29 6.695,72 45.600,02 5.118,89 8.305,22 0,00 0,00 13.424,11 32.175,91 30/04/2023
31 477900 ADRIANO FERREIRA DE ALMEIDA OFICIAL DO MP TAIOBEIRAS - COMARCA; TAIOBEIRAS-PJ-UNPJ 10.516,49 2.103,30 0,00 0,00 0,00 0,00 0,00 3.718,10 16.337,89 1.800,11 2.001,78 0,00 0,00 3.801,89 12.536,00 30/04/2023
32 269101 ADRIANO PEREIRA SILVA ANALISTA DO MP UBERABA - COMARCA; UBERABA-PJ-02PJ 12.343,61 2.468,72 0,00 0,00 0,00 0,00 0,00 2.078,00 16.890,33 2.150,92 2.456,12 0,00 0,00 4.607,04 12.283,29 30/04/2023
33 414200 ADRIANO RODRIGUES FERNANDES ANALISTA DO MP CARANDAÍ - COMARCA; CARANDAI-PJ-UNPJ 12.343,61 2.468,72 0,00 0,00 0,00 0,00 0,00 2.078,00 16.890,33 2.150,92 2.456,12 0,00 0,00 4.607,04 12.283,29 30/04/2023
34 536700 ADRIELLE COSTA MARIA MOURAO FIGUEIREDO OFICIAL DO MP SERRO - COMARCA; SERRO-PJ-SECRETARIA 7.506,70 1.501,34 0,00 0,00 0,00 0,00 0,00 3.028,00 12.036,04 1.222,23 1.271,74 0,00 0,00 2.493,97 9.542,07 30/04/2023
35 514300 ADRIENE DAMASCENO BRAGA ANALISTA DO MP ALFENAS - COMARCA; ALFENAS-PJ-03PJ 12.343,61 2.468,72 0,00 0,00 0,00 0,00 0,00 2.078,00 16.890,33 2.150,92 2.612,53 0,00 0,00 4.763,45 12.126,88 30/04/2023
36 254600 ADRIENE DOMINGUES COSTA ANALISTA DO MP BELO HORIZONTE - COMARCA; SUPER DE GESTAO DE PESSOAS-LOTACAO TEMPORARIA 23.070,31 9.228,12 0,00 0,00 0,00 0,00 0,00 0,00 32.298,43 4.948,70 6.651,82 0,00 0,00 11.600,52 20.697,91 30/04/2023
37 252001 ADRIENE GOMES BARRETO ANALISTA DO MP BELO HORIZONTE - COMARCA; BH-19PJ SAUDE-SECRETARIA 047PJ 18.720,84 9.360,42 0,00 0,00 0,00 0,00 514,82 7.694,25 36.290,33 4.273,95 5.677,65 0,00 0,00 9.951,60 26.338,73 30/04/2023
38 714800 ADSON GUSTAVO DE OLIVEIRA ASSESSOR PROCURADOR JUSTICA BELO HORIZONTE - COMARCA; GABINETE DE PROCURADOR DE JUSTIÇA - SALA 803 0,00 0,00 8.810,89 0,00 0,00 0,00 0,00 2.078,00 10.888,89 877,22 1.724,90 0,00 0,00 2.602,12 8.286,77 30/04/2023
39 724600 AECIO BRAS SILVA JUNIOR ASSESSOR PROMOTOR JUSTICA BAMBUÍ - COMARCA; BAMBUI-PJ-UNPJ 0,00 0,00 8.810,89 0,00 0,00 0,00 0,00 2.078,00 10.888,89 877,22 1.724,90 0,00 0,00 2.602,12 8.286,77 30/04/2023
40 302500 AGENOR JOSE DA SILVA JUNIOR ANALISTA DO MP JUIZ DE FORA - COMARCA; JUIZ DE FORA-PJ-07PJ 22.191,68 6.657,50 0,00 0,00 0,00 0,00 528,90 7.847,84 37.225,92 4.396,82 5.698,63 0,00 0,00 10.095,45 27.130,47 30/04/2023
41 357500 AILSON WAGNER DE ALENCAR SILVA OFICIAL DO MP BELO HORIZONTE - COMARCA; BH-12PJ JUIZO CRIMINAL-SECRETARIA 14.960,00 5.984,00 0,00 0,00 0,00 0,00 76,79 2.915,76 23.936,55 3.131,99 3.872,53 0,00 0,00 7.004,52 16.932,03 30/04/2023
42 366400 AILTON ALEXSSANDRO ALVES OFICIAL DO MP PARÁ DE MINAS - COMARCA; PARA DE MINAS-PJ-05PJ 12.343,61 4.937,44 0,00 0,00 0,00 0,00 0,00 2.078,00 19.359,05 2.545,92 3.182,80 0,00 0,00 5.728,72 13.630,33 30/04/2023
43 318900 AILTON DE CASTRO RIBEIRO JUNIOR OFICIAL DO MP CANDEIAS - COMARCA; CANDEIAS-PJ-UNPJ 12.343,61 3.703,08 0,00 0,00 0,00 0,00 0,00 2.078,00 18.124,69 2.348,42 2.741,25 0,00 0,00 5.089,67 13.035,02 30/04/2023
44 464400 ALAN MONTEIRO GASPAR ANALISTA DO MP SETE LAGOAS - COMARCA; SETE LAGOAS-PJ-08PJ 12.343,61 2.468,72 0,00 0,00 0,00 0,00 0,00 2.078,00 16.890,33 2.150,92 2.612,53 0,00 0,00 4.763,45 12.126,88 30/04/2023
45 492000 ALANA DE CASTRO FREITAS OFICIAL DO MP BELO HORIZONTE - COMARCA; SECRETARIA DO PROCON-MG 8.003,54 1.600,71 0,00 0,00 0,00 0,00 0,00 2.078,00 11.682,25 1.317,63 1.409,46 0,00 0,00 2.727,09 8.955,16 30/04/2023
46 306700 ALANA MARCIA DE OLIVEIRA OFICIAL DO MP BELO HORIZONTE - COMARCA; DIRETORIA DE ADMINISTRACAO FINANCEIRA 12.343,61 3.703,08 0,00 0,00 0,00 0,00 0,00 2.078,00 18.124,69 2.348,42 2.897,66 0,00 0,00 5.246,08 12.878,61 30/04/2023
47 324500 ALANMAR COUTINHO COSTA OFICIAL DO MP LEOPOLDINA - COMARCA; LEOPOLDINA-PJ-02PJ 12.343,61 3.703,08 0,00 0,00 0,00 0,00 0,00 2.078,00 18.124,69 2.348,42 2.793,39 0,00 0,00 5.141,81 12.982,88 30/04/2023
48 407300 ALBERTO LUIZ SOARES DE OLIVEIRA ANALISTA DO MP BELO HORIZONTE - COMARCA; DIRETORIA DE PROJETOS DE EDIFICACOES 17.559,01 3.511,80 0,00 0,00 0,00 0,00 0,00 2.078,00 23.148,81 3.152,28 4.058,24 0,00 0,00 7.210,52 15.938,29 30/04/2023
49 118200 ALBERTO PEREIRA DA COSTA OFICIAL DO MP DORES DO INDAIÁ - COMARCA; DORES DO INDAIA-PJ-UNPJ 22.191,68 19.972,51 0,00 0,00 0,00 5.795,34 477,24 7.284,23 55.721,00 5.795,34 9.415,74 4.574,23 0,00 19.785,31 35.935,69 30/04/2023
50 282400 ALCILENE MARISE DE ARAUJO ANALISTA DO MP BELO HORIZONTE - COMARCA; BH-23PJ INF-FISC MED SOC FEC 23.070,31 6.921,09 0,00 0,00 0,00 0,00 549,84 8.076,28 38.617,52 4.579,57 6.066,76 0,00 0,00 10.646,33 27.971,19 30/04/2023
51 112600 ALCIONE DA MOTA JARDIM OFICIAL DO MP BELO HORIZONTE - COMARCA; CAO-CRIANCAS E ADOLESCENTES-SECRETARIA 22.191,68 15.534,18 0,00 0,00 0,00 0,00 0,00 2.078,00 39.803,86 5.795,34 7.822,02 135,90 0,00 13.753,26 26.050,60 30/04/2023
52 396400 ALCIONE DE FREITAS E SILVA ANALISTA DO MP BELO HORIZONTE - COMARCA; ASSESS JUR DO CONS SUPERIOR DO MINISTERIO PUB 18.720,84 7.488,34 0,00 0,00 0,00 0,00 0,00 2.078,00 28.287,18 3.974,42 5.245,20 0,00 0,00 9.219,62 19.067,56 30/04/2023
53 657400 ALCIONE MARIA FERREIRA ASSESSOR PROCURADOR JUSTICA BELO HORIZONTE - COMARCA; GABINETE DE PROCURADOR DE JUSTIÇA - SALA 610 0,00 0,00 8.810,89 0,00 2.936,96 0,00 549,21 9.019,41 21.316,47 877,22 2.532,56 0,00 0,00 3.409,78 17.906,69 30/04/2023
54 161600 ALCIONE NERY SOUZA ASSESSOR ADMINISTRATIVO III BELO HORIZONTE - COMARCA; BH-18PJ DIREITOS HUMANOS-SECRETARIA 0,00 5.429,45 10.858,90 0,00 0,00 0,00 0,00 2.078,00 18.366,35 877,22 3.781,20 0,00 0,00 4.658,42 13.707,93 30/04/2023
55 376000 ALDA GOMES LANA OFICIAL DO MP BELO HORIZONTE - COMARCA; BH-18PJ VIOLENCIA DOMESTICA-SECRETARIA 12.343,61 3.703,08 0,00 0,00 0,00 0,00 235,35 4.645,47 20.927,51 2.348,42 2.845,53 0,00 0,00 5.193,95 15.733,56 30/04/2023
56 148000 ALDA MARTINS SIMOES OFICIAL DO MP BELO HORIZONTE - COMARCA; BH-23PJ CIVEL- FISC ENT AB POL 23.070,31 11.535,16 0,00 0,00 0,00 0,00 0,00 2.078,00 36.683,47 5.317,82 7.184,74 0,00 0,00 12.502,56 24.180,91 30/04/2023
57 318400 ALDO CREPALDI JUNIOR OFICIAL DO MP BELO HORIZONTE - COMARCA; DIVISAO DE MATERIAIS 12.343,61 3.703,08 0,00 0,00 0,00 0,00 0,00 2.078,00 18.124,69 2.348,42 2.845,53 0,00 0,00 5.193,95 12.930,74 30/04/2023
58 604500 ALENIZE APARECIDA RODRIGUES HENRIQUE OFICIAL DO MP RIO NOVO - COMARCA; RIO NOVO-PJ-SECRETARIA 7.506,70 750,67 0,00 0,00 0,00 0,00 0,00 2.078,00 10.335,37 1.102,13 1.098,33 0,00 0,00 2.200,46 8.134,91 30/04/2023
59 197900 ALESSA DE SOUSA E SILVA OFICIAL DO MP OLIVEIRA - COMARCA; OLIVEIRA-PJ-02PJ 21.346,53 8.538,61 0,00 0,00 0,00 0,00 0,00 2.331,23 32.216,37 4.562,57 5.990,07 0,00 0,00 10.552,64 21.663,73 30/04/2023
60 428500 ALESSANDRA ALVES DINIZ OFICIAL DO MP BELO HORIZONTE - COMARCA; CENTRAL DE APOIO TECNICO-SECRETARIA 10.015,59 5.007,80 0,00 0,00 0,00 0,00 495,77 7.486,42 23.005,58 2.184,69 2.661,28 0,00 0,00 4.845,97 18.159,61 30/04/2023
61 286801 ALESSANDRA BOTELHO JUNQUEIRA DE MENEZES ANALISTA DO MP PASSOS - COMARCA; PASSOS-PJ-05PJ 18.130,77 7.252,31 0,00 0,00 0,00 0,00 465,36 8.104,62 33.953,06 3.842,24 4.845,82 0,00 0,00 8.688,06 25.265,00 30/04/2023
62 307000 ALESSANDRA CRISTINA SANTOS MENDES ANALISTA DO MP BELO HORIZONTE - COMARCA; BH-18PJ VIOLENCIA DOMESTICA-SECRETARIA 20.533,67 6.160,10 0,00 0,00 0,00 0,00 0,00 2.078,00 28.771,77 4.051,95 5.305,00 0,00 0,00 9.356,95 19.414,82 30/04/2023
63 264400 ALESSANDRA DE SOUZA SANTOS ANALISTA DO MP BELO HORIZONTE - COMARCA; SECRETARIA DE ASSUNTOS INTERNACIONAIS 23.070,31 11.535,16 0,00 0,00 0,00 0,00 0,00 2.078,00 36.683,47 5.317,82 7.184,74 0,00 0,00 12.502,56 24.180,91 30/04/2023
64 441500 ALESSANDRA DRUMMOND DE FIGUEIREDO ROSSI ANALISTA DO MP BELO HORIZONTE - COMARCA; DIRETORIA DE PROJETOS DE EDIFICACOES 12.343,61 2.468,72 0,00 0,00 0,00 0,00 0,00 2.078,00 16.890,33 2.150,92 2.612,53 0,00 0,00 4.763,45 12.126,88 30/04/2023
65 524000 ALESSANDRA LUCIOLI DE BARROS GUERRA ANALISTA DO MP BELO HORIZONTE - COMARCA; BH-19PJ SAUDE--SECRETARIA 12.343,61 2.468,72 0,00 0,00 0,00 0,00 162,94 3.855,48 18.830,75 2.150,92 2.508,25 0,00 0,00 4.659,17 14.171,58 30/04/2023
66 479900 ALESSANDRA MARA ANDRADE DE FARIA OFICIAL DO MP UBERABA - COMARCA; UBERABA-PJ-09PJ 10.516,49 2.103,30 0,00 0,00 0,00 0,00 0,00 2.078,00 14.697,79 1.800,11 2.106,05 0,00 0,00 3.906,16 10.791,63 30/04/2023
67 226700 ALESSANDRA MARA VASCONCELOS REZENDE OFICIAL DO MP CONSELHEIRO LAFAIETE - COMARCA; CONSELHEIRO LAFAIETE-PJ-07PJ 17.559,01 7.023,60 0,00 0,00 0,00 0,00 540,82 7.977,83 33.101,26 3.714,17 4.869,46 0,00 0,00 8.583,63 24.517,63 30/04/2023
68 196500 ALESSANDRA MARIA RIBEIRO LUCIANO OFICIAL DO MP RIO PARANAÍBA - COMARCA; RIO PARANAIBA-PJ-UNPJ 21.346,53 10.673,27 0,00 0,00 0,00 0,00 0,00 2.078,00 34.097,80 4.904,12 6.483,18 0,00 0,00 11.387,30 22.710,50 30/04/2023
69 651700 ALESSANDRA PROFIRIO SOUZA OFICIAL DO MP NOVA ERA - COMARCA; NOVA ERA-PJ-UNPJ 6.097,80 609,78 0,00 0,00 0,00 0,00 0,00 2.078,00 8.785,58 858,46 687,01 0,00 0,00 1.545,47 7.240,11 30/04/2023
70 384900 ALESSANDRA RODRIGUES ANALISTA DO MP VISCONDE DO RIO BRANCO - COMARCA; VISCONDE DO RIO BRANCO-PJ-03PJ 18.720,84 5.616,25 0,00 0,00 0,00 0,00 446,18 7.895,42 32.678,69 3.674,88 4.708,47 0,00 0,00 8.383,35 24.295,34 30/04/2023
71 390000 ALESSANDRA SPADANO MASSARA VASCONCELOS OFICIAL DO MP BETIM - COMARCA; BETIM-PJ-10PJ 12.343,61 3.703,08 0,00 0,00 0,00 0,00 1.234,36 2.078,00 19.359,05 2.545,92 3.182,80 0,00 0,00 5.728,72 13.630,33 30/04/2023
72 426500 ALESSANDRO CAMPOS DE PAIVA ANALISTA DO MP BELO HORIZONTE - COMARCA; DIR CRIACAO E MIDIAS 18.130,77 3.626,15 0,00 0,00 0,00 0,00 0,00 2.078,00 23.834,92 3.262,06 4.216,73 0,00 0,00 7.478,79 16.356,13 30/04/2023
73 623400 ALESSANDRO DE OLIVEIRA REZENDE ANALISTA DO MP BELO HORIZONTE - COMARCA; DIRET DE INFORMACAO E CONHECIMENTO-DINC/CEAF 11.577,56 1.157,76 0,00 0,00 0,00 0,00 0,00 2.078,00 14.813,32 1.818,60 2.132,74 0,00 0,00 3.951,34 10.861,98 30/04/2023
74 420600 ALESSANDRO SILVA OFICIAL DO MP VISCONDE DO RIO BRANCO - COMARCA; VISCONDE DO RIO BRANCO-PJ-02PJ 11.577,56 4.631,02 0,00 0,00 0,00 0,00 0,00 2.078,00 18.286,58 2.374,32 2.185,74 0,00 0,00 4.560,06 13.726,52 30/04/2023
75 375301 ALETHEIA PATRICIA ASSIS MORAIS MOREIRA ANALISTA DO MP ITABIRA - COMARCA; ITABIRA-PJ-02PJ 12.343,61 2.468,72 0,00 0,00 0,00 0,00 1.293,20 3.669,86 19.775,39 2.348,42 2.845,53 0,00 0,00 5.193,95 14.581,44 30/04/2023
76 382300 ALEX CARVALHO LIMA ANALISTA DO MP UBERLÂNDIA - COMARCA; UBERLANDIA-PJ-14PJ 18.720,84 5.616,25 0,00 0,00 0,00 0,00 2.325,12 7.970,29 34.632,50 3.974,42 5.245,20 0,00 0,00 9.219,62 25.412,88 30/04/2023
77 195201 ALEX DE CASTRO PEREIRA ANALISTA DO MP UBERABA - COMARCA; UBERABA-PJ-09PJ 23.070,31 9.228,12 0,00 0,00 0,00 0,00 473,71 7.245,75 40.017,89 4.948,70 6.651,82 0,00 0,00 11.600,52 28.417,37 30/04/2023
78 358900 ALEX DE PAULA LANZA ASSESSOR ADMINISTRATIVO IV BELO HORIZONTE - COMARCA; DIR CONTEUDO JORNALISTICO 0,00 0,00 14.488,22 0,00 0,00 0,00 0,00 3.028,00 17.516,22 877,22 3.286,17 0,00 0,00 4.163,39 13.352,83 30/04/2023
79 178400 ALEX RODRIGO SALDANHA GUIMARAES OFICIAL DO MP BELO HORIZONTE - COMARCA; DIRETORIA DE SISTEMAS DE INFORMACAO 7.506,70 3.002,68 0,00 0,00 0,00 0,00 0,00 2.078,00 12.587,38 1.462,45 1.618,55 0,00 0,00 3.081,00 9.506,38 30/04/2023
80 413500 ALEX VILELA OLIVEIRA ANALISTA DO MP GOVERNADOR VALADARES - COMARCA; COORD REG PJ DEF EDU DIR CRIANCA ADOL RIODOCE 18.130,77 3.626,15 0,00 0,00 0,00 0,00 0,00 2.078,00 23.834,92 3.262,06 4.216,73 0,00 0,00 7.478,79 16.356,13 30/04/2023
81 264300 ALEXANDRA FATIMA SARAIVA SOARES ANALISTA DO MP BELO HORIZONTE - COMARCA; CENTRAL DE APOIO TECN-SETOR DE MEIO AMBIENTE 23.070,31 9.228,12 0,00 0,00 0,00 0,00 2.780,74 7.245,75 42.324,92 5.317,82 7.184,74 0,00 0,00 12.502,56 29.822,36 30/04/2023
82 488000 ALEXANDRA LARA PAIS DE CARVALHO ANALISTA DO MP SABARÁ - COMARCA; SABARA-PJ-04PJ 12.343,61 2.468,72 0,00 0,00 0,00 0,00 0,00 2.078,00 16.890,33 2.150,92 2.456,12 0,00 0,00 4.607,04 12.283,29 30/04/2023
83 256300 ALEXANDRA SANTOS GOMES OFICIAL DO MP BELO HORIZONTE - COMARCA; DIRETORIA GESTAO COMPRAS LICITACOES 12.343,61 4.937,44 0,00 0,00 0,00 0,00 0,00 2.078,00 19.359,05 2.545,92 3.182,80 0,00 0,00 5.728,72 13.630,33 30/04/2023
84 403300 ALEXANDRE AUGUSTO RODRIGUES ANALISTA DO MP ÁGUAS FORMOSAS - COMARCA; AGUAS FORMOSAS-PJ-UNPJ 12.343,61 2.468,72 0,00 0,00 0,00 0,00 0,00 3.978,00 18.790,33 2.150,92 2.612,53 0,00 0,00 4.763,45 14.026,88 30/04/2023
85 640900 ALEXANDRE BARBOSA MASCARENHAS ANALISTA DO MP BETIM - COMARCA; BETIM-PJ-02PJ 9.393,95 939,40 0,00 0,00 0,00 0,00 0,00 2.078,00 12.411,35 982,16 1.332,41 0,00 0,00 2.314,57 10.096,78 30/04/2023
86 311700 ALEXANDRE BARCELOS RESENDE OFICIAL DO MP BELO HORIZONTE - COMARCA; BH-13ª PJ JUÍZO DE TÓXICOS-SECRETARIA 10.858,90 3.257,67 0,00 0,00 0,00 0,00 0,00 3.028,00 17.144,57 2.039,60 2.451,81 0,00 0,00 4.491,41 12.653,16 30/04/2023
87 285600 ALEXANDRE CAMPOS DE OLIVEIRA OFICIAL DO MP UBERABA - COMARCA; COORD REG BACIAS PARANAIBA BAIXO RIO GRANDE 12.343,61 3.703,08 0,00 0,00 0,00 0,00 0,00 2.078,00 18.124,69 2.348,42 2.741,25 0,00 0,00 5.089,67 13.035,02 30/04/2023
88 509200 ALEXANDRE CAPUANO DE REZENDE ANALISTA DO MP BELO HORIZONTE - COMARCA; BH-07PJ 03 TRIBUNAL DO JURI-GAB 061PJ 12.343,61 2.468,72 0,00 0,00 0,00 0,00 0,00 2.078,00 16.890,33 2.150,92 2.560,39 0,00 0,00 4.711,31 12.179,02 30/04/2023
89 229400 ALEXANDRE CARLOS BOTREL SUPERINTENDENTE BELO HORIZONTE - COMARCA; SUPERINTENDENCIA DOS ORGAOS COLEGIADOS 28.013,39 11.205,36 0,00 0,00 0,00 0,00 413,49 6.588,80 46.221,04 3.842,24 8.411,26 1.628,79 0,00 13.882,29 32.338,75 30/04/2023
90 411900 ALEXANDRE CARVALHO SANTOS RIBEIRO ANALISTA DO MP OLIVEIRA - COMARCA; OLIVEIRA-PJ-02PJ 18.130,77 3.626,15 0,00 0,00 0,00 0,00 319,10 6.509,11 28.585,13 3.262,06 4.216,73 0,00 0,00 7.478,79 21.106,34 30/04/2023
91 641600 ALEXANDRE DA SILVA ASSUNCAO OFICIAL DO MP BELO HORIZONTE - COMARCA; SERVICO MEDICO-DEPTO PERIC MEDICA SAUDE OCUP 6.603,76 660,38 0,00 0,00 0,00 0,00 0,00 2.078,00 9.342,14 944,43 868,56 0,00 0,00 1.812,99 7.529,15 30/04/2023
92 201200 ALEXANDRE DE ALENCAR CORDEIRO OFICIAL DO MP ÁGUAS FORMOSAS - COMARCA; AGUAS FORMOSAS-PJ-UNPJ 7.506,70 3.753,35 0,00 0,00 0,00 0,00 0,00 2.078,00 13.338,05 1.582,56 1.791,95 0,00 0,00 3.374,51 9.963,54 30/04/2023
93 288200 ALEXANDRE DE VASCONCELOS COSTA KER ANALISTA DO MP BELO HORIZONTE - COMARCA; BH-03PJ EMPRESARIAL-SECRETARIA 22.191,68 6.657,50 0,00 0,00 0,00 0,00 528,90 7.847,84 37.225,92 4.396,82 5.802,90 0,00 0,00 10.199,72 27.026,20 30/04/2023
94 445000 ALEXANDRE DIOGENES OLIVEIRA ANALISTA DO MP SALINAS - COMARCA; SALINAS-PJ-02PJ 13.588,97 2.717,79 0,00 0,00 0,00 0,00 0,00 3.028,00 19.334,76 2.390,03 2.957,74 0,00 0,00 5.347,77 13.986,99 30/04/2023
95 463400 ALEXANDRE LEAL WINKELSTROTER ANALISTA DO MP TEÓFILO OTONI - COMARCA; TEOFILO OTONI-PJ-04PJ 12.343,61 2.468,72 0,00 0,00 0,00 0,00 0,00 2.078,00 16.890,33 2.150,92 2.612,53 0,00 0,00 4.763,45 12.126,88 30/04/2023
96 615700 ALEXANDRE LUIZ DE CASTRO MACIEL ANALISTA DO MP BELO HORIZONTE - COMARCA; BH-08PJ JUIZADO ESPECIAL-SECRETARIA 11.577,56 1.157,76 0,00 0,00 0,00 0,00 0,00 2.078,00 14.813,32 1.818,60 2.080,60 0,00 0,00 3.899,20 10.914,12 30/04/2023
97 356900 ALEXANDRE MOISES MENDONCA E ARAUJO OFICIAL DO MP UBERABA - COMARCA; UBERABA-PJ-13PJ 9.699,77 2.909,93 0,00 0,00 0,00 0,00 0,00 2.078,00 14.687,70 1.798,50 2.103,72 0,00 0,00 3.902,22 10.785,48 30/04/2023
98 633300 ALEXANDRE NONATO MARTINS OFICIAL DO MP IGARAPÉ - COMARCA; IGARAPE-PJ-02PJ 6.603,76 660,38 0,00 0,00 0,00 0,00 0,00 2.078,00 9.342,14 944,43 816,42 0,00 0,00 1.760,85 7.581,29 30/04/2023
99 469900 ALEXANDRE PEREIRA GUEDES ANALISTA DO MP CATAGUASES - COMARCA; CATAGUASES-PJ-03PJ 12.343,61 2.468,72 0,00 0,00 0,00 0,00 0,00 2.078,00 16.890,33 2.150,92 2.612,53 0,00 0,00 4.763,45 12.126,88 30/04/2023
100 208700 ALEXANDRE RESENDE FRAGA ANALISTA DO MP BELO HORIZONTE - COMARCA; BH-19PJ SAUDE-SECRETARIA 130PJ 23.070,31 9.228,12 0,00 0,00 0,00 0,00 0,00 2.078,00 34.376,43 4.948,70 6.495,40 0,00 0,00 11.444,10 22.932,33 30/04/2023
101 216401 ALEXANDRE RIBEIRO DE LIMA MAIORINO ANALISTA DO MP UBERABA - COMARCA; UBERABA-PJ-03PJ 22.191,68 8.876,67 0,00 0,00 0,00 0,00 455,67 7.048,94 38.572,96 4.751,88 6.315,53 0,00 0,00 11.067,41 27.505,55 30/04/2023
102 475100 ALEXANDRE TEOTONIO COSTA ANALISTA DO MP ARAGUARI - COMARCA; ARAGUARI-PJ-01PJ 12.343,61 2.468,72 0,00 0,00 0,00 0,00 0,00 2.078,00 16.890,33 2.150,92 2.508,25 0,00 0,00 4.659,17 12.231,16 30/04/2023
103 339000 ALEXANDRE VITOR CARDOSO OFICIAL DO MP BELO HORIZONTE - COMARCA; BH-23PJ INFRACIONAL-SEC EXP 7.506,70 2.252,01 0,00 0,00 0,00 0,00 0,00 2.078,00 11.836,71 1.342,34 1.288,73 0,00 0,00 2.631,07 9.205,64 30/04/2023
104 623100 ALEXSANDER BATISTA AGUIAR COORDENADOR II BELO HORIZONTE - COMARCA; DIRETORIA DE SUPORTE E MANUTENCAO 20.533,67 2.053,37 0,00 0,00 0,00 0,00 331,28 6.610,26 29.528,58 1.818,60 4.685,55 0,00 0,00 6.504,15 23.024,43 30/04/2023
105 513300 ALFSON MIRANDA BRAGA ANALISTA DO MP BELO HORIZONTE - COMARCA; BH-12PJ JUIZO CRIMINAL-GAB 087PJ 12.343,61 2.468,72 0,00 0,00 0,00 0,00 0,00 2.078,00 16.890,33 2.150,92 2.612,53 0,00 0,00 4.763,45 12.126,88 30/04/2023
106 618400 ALICE MAGALHAES MACEDO DE CARVALHO ANALISTA DO MP IPATINGA - COMARCA; IPATINGA-PJ-10PJ 11.577,56 1.157,76 0,00 0,00 0,00 0,00 0,00 3.028,00 15.763,32 1.818,60 2.132,74 0,00 0,00 3.951,34 11.811,98 30/04/2023
107 707000 ALICE MARIA RIBEIRO DINIZ ASSESSOR PROMOTOR JUSTICA BELO HORIZONTE - COMARCA; PROC JUST ATUACAO TRIBUNAIS SUPERIORES-GAB004 0,00 0,00 8.810,89 0,00 0,00 0,00 0,00 2.078,00 10.888,89 877,22 1.724,90 0,00 0,00 2.602,12 8.286,77 30/04/2023
108 471000 ALICE TITONELI MOREIRA ANALISTA DO MP MIRADOURO - COMARCA; MIRADOURO-PJ-UNPJ 12.343,61 2.468,72 0,00 0,00 0,00 0,00 0,00 3.028,00 17.840,33 2.150,92 2.508,25 0,00 0,00 4.659,17 13.181,16 30/04/2023
109 731600 ALICIA PAULA RODRIGUES DE LIMA ASSESSOR PROMOTOR JUSTICA TIROS - COMARCA; TIROS-PJ-UNPJ 0,00 0,00 8.810,89 0,00 0,00 0,00 0,00 2.078,00 10.888,89 877,22 1.724,90 0,00 0,00 2.602,12 8.286,77 30/04/2023
110 725800 ALINE ALBIERI FRANCISCO ASSESSOR PROMOTOR JUSTICA BELO HORIZONTE - COMARCA; CAO-ORDEM ECONOMICA E TRIBUTARIA-ASSESS TECN 0,00 0,00 8.810,89 0,00 0,00 0,00 0,00 2.078,00 10.888,89 877,22 1.724,90 0,00 0,00 2.602,12 8.286,77 30/04/2023
111 733200 ALINE APARECIDA DO PRADO TERRITO ASSESSOR ADMINISTRATIVO II BELO HORIZONTE - COMARCA; ESCRITORIO DE PROTECAO DE DADOS PESSOAIS 0,00 0,00 7.506,70 0,00 0,00 0,00 0,00 2.078,00 9.584,70 877,22 1.366,25 0,00 0,00 2.243,47 7.341,23 30/04/2023
112 622400 ALINE BALBINO PORTUGAL LOPES ANALISTA DO MP TRÊS PONTAS - COMARCA; TRES PONTAS-PJ-03PJ 11.577,56 1.157,76 0,00 0,00 0,00 0,00 0,00 3.028,00 15.763,32 1.818,60 2.132,74 0,00 0,00 3.951,34 11.811,98 30/04/2023
113 373000 ALINE BOTELHO RESENDE OFICIAL DO MP JUIZ DE FORA - COMARCA; JUIZ DE FORA-PJ-22PJ 11.954,43 3.586,33 0,00 0,00 0,00 0,00 0,00 2.078,00 17.618,76 2.267,47 2.780,79 0,00 0,00 5.048,26 12.570,50 30/04/2023
114 699800 ALINE CRISTINA DE OLIVEIRA AMARAL BARBOSA ASSESSOR PROCURADOR JUSTICA BELO HORIZONTE - COMARCA; GABINETE DE PROCURADOR DE JUSTIÇA - SALA 904 0,00 0,00 8.810,89 0,00 0,00 0,00 0,00 2.078,00 10.888,89 877,22 1.620,62 0,00 0,00 2.497,84 8.391,05 30/04/2023
115 407700 ALINE CRISTINA RODRIGUES PEREIRA COORDENADOR II BELO HORIZONTE - COMARCA; DIRETORIA DE PROJETOS DE EDIFICACOES 20.533,67 4.106,73 0,00 0,00 0,00 0,00 0,00 2.078,00 26.718,40 2.150,92 5.315,25 0,00 0,00 7.466,17 19.252,23 30/04/2023
116 193100 ALINE CRISTINA SENA OLIVEIRA OFICIAL DO MP UBERLÂNDIA - COMARCA; UBERLANDIA-PJ-03PJ 20.533,67 8.213,47 0,00 0,00 0,00 0,00 527,03 8.777,43 38.051,60 4.380,49 5.779,33 0,00 0,00 10.159,82 27.891,78 30/04/2023
117 554200 ALINE CRISTINA SILVA SOUZA OFICIAL DO MP TIROS - COMARCA; TIROS-PJ-UNPJ 7.506,70 750,67 0,00 0,00 0,00 0,00 0,00 2.078,00 10.335,37 1.102,13 1.098,33 0,00 0,00 2.200,46 8.134,91 30/04/2023
118 505500 ALINE DA CUNHA MARREIROS OLIVEIRA ANALISTA DO MP EUGENÓPOLIS - COMARCA; EUGENOPOLIS-PJ-UNPJ 12.343,61 2.468,72 0,00 0,00 0,00 0,00 0,00 3.978,00 18.790,33 2.150,92 2.560,39 0,00 0,00 4.711,31 14.079,02 30/04/2023
119 433500 ALINE DE MELO QUEIROZ OFICIAL DO MP BELO HORIZONTE - COMARCA; ASSESSORIA JURIDICA DO PROCON-MG 11.212,54 2.242,51 4.020,58 0,00 0,00 0,00 0,00 3.028,00 20.503,63 1.933,76 3.404,65 0,00 0,00 5.338,41 15.165,22 30/04/2023
120 691100 ALINE DE MELO SOUZA ASSESSOR PROCURADOR JUSTICA BELO HORIZONTE - COMARCA; GABINETE DE PROCURADOR DE JUSTIÇA - SALA 401 0,00 0,00 8.810,89 0,00 0,00 0,00 0,00 2.078,00 10.888,89 877,22 1.724,90 0,00 0,00 2.602,12 8.286,77 30/04/2023
121 542700 ALINE DE SOUSA ALBINO ANALISTA DO MP CONTAGEM - COMARCA; CONTAGEM-PJ-09PJ 12.343,61 2.468,72 0,00 0,00 0,00 0,00 1.247,94 2.226,12 18.286,39 2.348,42 2.897,66 0,00 0,00 5.246,08 13.040,31 30/04/2023
122 330000 ALINE DIORIO MAYRINK OFICIAL DO MP BELO HORIZONTE - COMARCA; NUCLEO DE ACORDOS DE NAO PERSECUCAO PENAL BH 10.015,59 2.003,12 0,00 0,00 0,00 0,00 0,00 2.078,00 14.096,71 1.703,94 1.967,20 0,00 0,00 3.671,14 10.425,57 30/04/2023
123 499000 ALINE FERREIRA LOPES ANALISTA DO MP TEÓFILO OTONI - COMARCA; TEOFILO OTONI-PJ-09PJ 12.343,61 2.468,72 0,00 0,00 0,00 0,00 0,00 2.078,00 16.890,33 2.150,92 2.560,39 0,00 0,00 4.711,31 12.179,02 30/04/2023
124 405300 ALINE LAIA CARDOZO SUPERINTENDENTE BELO HORIZONTE - COMARCA; SUPERINTENDENCIA LOGISTICA SERVICOS 28.013,39 5.602,68 0,00 0,00 0,00 0,00 0,00 2.078,00 35.694,07 3.375,35 7.446,84 0,00 0,00 10.822,19 24.871,88 30/04/2023
125 278200 ALINE MARCIA FARIA BARBOSA FERNANDES OFICIAL DO MP BARBACENA - COMARCA; BARBACENA-PJ-SECRETARIA 9.699,77 2.909,93 0,00 0,00 0,00 0,00 0,00 2.078,00 14.687,70 1.798,50 1.999,45 0,00 0,00 3.797,95 10.889,75 30/04/2023
126 389000 ALINE NERI NOBRE ANALISTA DO MP MONTES CLAROS - COMARCA; COORD REG PJ DEF EDUC DIR CRIANCA ADOL NORTE 18.720,84 7.488,34 0,00 0,00 0,00 0,00 480,50 7.319,84 34.009,52 3.974,42 5.245,20 0,00 0,00 9.219,62 24.789,90 30/04/2023
127 294600 ALINE PATRICIA SILVA VIEIRA OFICIAL DO MP UBERLÂNDIA - COMARCA; UBERLANDIA-PJ-03PJ 14.960,00 4.488,00 0,00 0,00 0,00 0,00 2.082,88 5.473,15 27.004,03 2.892,63 3.962,02 0,00 0,00 6.854,65 20.149,38 30/04/2023
128 420000 ALINE RODRIGUES CAMOROPIN ANALISTA DO MP SABARÁ - COMARCA; SABARA-PJ-02PJ 18.130,77 3.626,15 0,00 0,00 0,00 0,00 478,65 7.299,66 29.535,23 3.262,06 4.216,73 0,00 0,00 7.478,79 22.056,44 30/04/2023
129 715800 ALINE SANTOS PEDROSA MAIA BARBOSA ASSESSOR PROCURADOR JUSTICA BELO HORIZONTE - COMARCA; GABINETE DE PROCURADOR DE JUSTIÇA - SALA 1010 0,00 0,00 8.810,89 0,00 0,00 0,00 0,00 2.078,00 10.888,89 877,22 1.724,90 0,00 0,00 2.602,12 8.286,77 30/04/2023
130 699600 ALINE SEPULVEDA ROSA PIRES ASSESSOR PROCURADOR JUSTICA BELO HORIZONTE - COMARCA; GABINETE DE PROCURADOR DE JUSTIÇA - SALA 905 0,00 0,00 8.810,89 0,00 0,00 0,00 0,00 2.078,00 10.888,89 877,22 1.724,90 0,00 0,00 2.602,12 8.286,77 30/04/2023
131 408300 ALINE SILVA ARAUJO DE PAULA ANALISTA DO MP SÃO SEBASTIÃO DO PARAÍSO - COMARCA; SAO SEBASTIAO DO PARAISO-PJ-02PJ 18.130,77 3.626,15 0,00 0,00 0,00 0,00 0,00 2.078,00 23.834,92 982,16 4.706,55 0,00 0,00 5.688,71 18.146,21 30/04/2023
132 734300 ALINE TAVARES GURGEL ASSESSOR ADMINISTRATIVO III BELO HORIZONTE - COMARCA; SECRETARIA-GERAL 0,00 0,00 10.858,90 0,00 0,00 0,00 3.981,60 3.269,64 18.110,14 877,22 3.551,79 0,00 0,00 4.429,01 13.681,13 30/04/2023
133 425400 ALINE TRINDADE DE FREITAS CAMPOS OFICIAL DO MP BELO HORIZONTE - COMARCA; BH-14PJ DEFESA CONSUMIDOR-SECRETARIA 11.212,54 2.242,51 0,00 0,00 0,00 0,00 0,00 2.078,00 15.533,05 1.933,76 2.298,99 0,00 0,00 4.232,75 11.300,30 30/04/2023
134 517200 ALISSOM PEREIRA DA SILVA ANALISTA DO MP BORDA DA MATA - COMARCA; BORDA DA MATA-PJ-UNPJ 12.343,61 2.468,72 0,00 0,00 0,00 0,00 0,00 3.028,00 17.840,33 2.150,92 2.612,53 0,00 0,00 4.763,45 13.076,88 30/04/2023
135 442400 ALISSON LABRE ANALISTA DO MP VARGINHA - COMARCA; VARGINHA-PJ-03PJ 13.160,57 2.632,11 0,00 0,00 0,00 0,00 0,00 2.078,00 17.870,68 982,16 3.203,53 0,00 0,00 4.185,69 13.684,99 30/04/2023
136 643800 ALLAN PAUL FONSECA DE CASTRO OFICIAL DO MP CONTAGEM - COMARCA; CONTAGEM-PJ-SECRETARIA 6.603,76 660,38 2.918,39 0,00 0,00 0,00 0,00 3.028,00 13.210,53 944,43 1.671,12 0,00 0,00 2.615,55 10.594,98 30/04/2023
137 612900 ALLAN VINICIUS VIEIRA ARAUJO COORDENADOR II BELO HORIZONTE - COMARCA; DIRETORIA DE GESTAO DOCUMENTAL 20.533,67 2.053,37 0,00 0,00 0,00 0,00 331,28 5.691,93 28.610,25 1.102,13 5.038,99 0,00 0,00 6.141,12 22.469,13 30/04/2023
138 349000 ALLEC RODRIGUES VIEIRA OFICIAL DO MP CAPINÓPOLIS - COMARCA; CAO-CIVEL 12.343,61 3.703,08 0,00 0,00 0,00 0,00 0,00 2.078,00 18.124,69 2.348,42 2.897,66 0,00 0,00 5.246,08 12.878,61 30/04/2023
139 297300 ALLYSON SALIBA MONTEIRO LAIZO ANALISTA DO MP CONSELHEIRO LAFAIETE - COMARCA; CONSELHEIRO LAFAIETE-PJ-03PJ 23.070,31 6.921,09 0,00 0,00 0,00 0,00 549,84 9.026,28 39.567,52 4.579,57 6.118,89 0,00 0,00 10.698,46 28.869,06 30/04/2023
140 303700 ALMIR LOPES LOURES ANALISTA DO MP BELO HORIZONTE - COMARCA; CENTRAL DE APOIO TECN-SETOR DE MEIO AMBIENTE 23.070,31 6.921,09 0,00 0,00 0,00 0,00 549,84 8.076,28 38.617,52 4.579,57 6.118,89 0,00 0,00 10.698,46 27.919,06 30/04/2023
141 696600 ALOIZIO MARTINS JALES JUNIOR ASSESSOR PROMOTOR JUSTICA CAMPESTRE - COMARCA; CAMPESTRE-PJ-SECRETARIA 0,00 0,00 8.810,89 0,00 0,00 0,00 0,00 2.078,00 10.888,89 877,22 1.724,90 0,00 0,00 2.602,12 8.286,77 30/04/2023
142 515900 ALTAIR NEVES JUNIOR OFICIAL DO MP BELO HORIZONTE - COMARCA; BH-01PJ FAZENDA PUBLICA-SECRETARIA 9.699,77 1.939,95 0,00 0,00 0,00 0,00 0,00 2.078,00 13.717,72 1.643,30 1.879,66 0,00 0,00 3.522,96 10.194,76 30/04/2023
143 233300 ALVARINDO BATISTA ANALISTA DO MP BELO HORIZONTE - COMARCA; NUCLEO APOIO TECNICO ESP COMUNICACAO 23.070,31 9.228,12 0,00 0,00 0,00 0,00 473,71 7.245,75 40.017,89 4.948,70 6.599,68 0,00 0,00 11.548,38 28.469,51 30/04/2023
144 274100 ALYSSON CARVALHO VIDAL DE LACERDA OFICIAL DO MP MANHUAÇU - COMARCA; MANHUACU-PJ-01PJ 12.343,61 3.703,08 0,00 0,00 0,00 0,00 0,00 2.078,00 18.124,69 2.348,42 2.897,66 0,00 0,00 5.246,08 12.878,61 30/04/2023
145 621000 AMANDA BASTOS ALVES ANALISTA DO MP BELO HORIZONTE - COMARCA; BH-07PJ 02 TRIBUNAL DO JURI-GAB 066PJ 11.577,56 1.157,76 0,00 0,00 0,00 0,00 0,00 2.078,00 14.813,32 982,16 2.254,93 0,00 0,00 3.237,09 11.576,23 30/04/2023
146 521700 AMANDA CRISTINA AGUIAR MACHADO OFICIAL DO MP CONGONHAS - COMARCA; CONGONHAS-PJ-01PJ 7.506,70 1.501,34 0,00 0,00 0,00 0,00 0,00 2.078,00 11.086,04 1.222,23 1.219,60 0,00 0,00 2.441,83 8.644,21 30/04/2023
147 733500 AMANDA CRISTINA GONCALVES ASSESSOR ADMINISTRATIVO I PARACATU - COMARCA; COORD REG AP COM INCL MOB SOCIAIS NOROESTE MG 0,00 0,00 4.872,71 0,00 0,00 0,00 0,00 2.078,00 6.950,71 718,35 685,59 0,00 0,00 1.403,94 5.546,77 30/04/2023
148 713900 AMANDA DE ARAUJO CARVALHO ASSESSOR PROMOTOR JUSTICA ARAÇUAÍ - COMARCA; ARACUAI-PJ-01PJ 0,00 0,00 8.810,89 0,00 0,00 0,00 0,00 2.078,00 10.888,89 877,22 1.724,90 0,00 0,00 2.602,12 8.286,77 30/04/2023
149 613400 AMANDA DE ASSIS IUNES SANTOS ANALISTA DO MP CONGONHAS - COMARCA; CONGONHAS-PJ-01PJ 11.577,56 1.157,76 0,00 0,00 0,00 0,00 0,00 2.078,00 14.813,32 1.818,60 2.132,74 0,00 0,00 3.951,34 10.861,98 30/04/2023
150 695900 AMANDA DE OLIVEIRA ASSESSOR PROCURADOR JUSTICA BELO HORIZONTE - COMARCA; PROC JUST ATUACAO TRIBUNAIS SUPERIORES-GAB004 0,00 0,00 8.810,89 0,00 0,00 0,00 0,00 2.078,00 10.888,89 877,22 1.724,90 0,00 0,00 2.602,12 8.286,77 30/04/2023
151 520800 AMANDA DE SOUZA MACHADO ANALISTA DO MP BAEPENDI - COMARCA; BAEPENDI-PJ-UNPJ 12.343,61 2.468,72 0,00 0,00 0,00 0,00 0,00 2.078,00 16.890,33 2.150,92 2.508,25 0,00 0,00 4.659,17 12.231,16 30/04/2023
152 663900 AMANDA DENISE GONCALVES DA SILVA ASSESSOR ADMINISTRATIVO I BELO HORIZONTE - COMARCA; BH-12PJ JUIZO CRIMINAL-SECRETARIA 0,00 0,00 4.872,71 0,00 0,00 0,00 0,00 2.078,00 6.950,71 718,35 685,59 0,00 0,00 1.403,94 5.546,77 30/04/2023
153 677000 AMANDA LETICIA MESSIAS PEGO ASSESSOR PROMOTOR JUSTICA CORAÇÃO DE JESUS - COMARCA; CORACAO DE JESUS-PJ-UNPJ 0,00 0,00 8.810,89 0,00 0,00 0,00 0,00 2.078,00 10.888,89 877,22 1.724,90 0,00 0,00 2.602,12 8.286,77 30/04/2023
154 543100 AMANDA VIEIRA FREITAS BRESSANE ANALISTA DO MP VARGINHA - COMARCA; COORD REG DEF ORDEM ECON TRIB VARGINHA 12.343,61 2.468,72 0,00 0,00 0,00 0,00 1.234,36 2.078,00 18.124,69 2.348,42 2.897,66 0,00 0,00 5.246,08 12.878,61 30/04/2023
155 434400 AMARILIS ASSIS SIMAO CURCIO ANALISTA DO MP BELO HORIZONTE - COMARCA; DIRETORIA GESTAO COMPRAS LICITACOES 12.343,61 2.468,72 0,00 0,00 0,00 0,00 0,00 2.078,00 16.890,33 2.150,92 2.612,53 0,00 0,00 4.763,45 12.126,88 30/04/2023
156 652000 AMAURI SILVA ALVES ASSESSOR ADMINISTRATIVO III BELO HORIZONTE - COMARCA; BH-23PJ INFRACIONAL-COORD ADM INFRACIONAL 10.858,90 1.085,89 0,00 0,00 0,00 0,00 3.193,80 2.078,00 17.216,59 858,16 3.057,76 0,00 0,00 3.915,92 13.300,67 30/04/2023
157 58000 AMELIA GUARIZE DE CASTRO OFICIAL DO MP JUIZ DE FORA - COMARCA; JUIZ DE FORA-PJ-SECRETARIA 8.264,07 9.090,49 0,00 0,00 0,00 2.557,68 0,00 2.078,00 21.990,24 2.557,68 3.903,14 0,00 0,00 6.460,82 15.529,42 30/04/2023
158 324301 AMERICA SUELI FERREIRA DA SILVA ANALISTA DO MP UBERLÂNDIA - COMARCA; UBERLANDIA-PJ-02PJ 12.343,61 2.468,72 0,00 0,00 0,00 0,00 0,00 2.078,00 16.890,33 2.150,92 2.560,39 0,00 0,00 4.711,31 12.179,02 30/04/2023
159 273300 AMUJACY DE BRITO ASSIZ OFICIAL DO MP BELO HORIZONTE - COMARCA; BH-12PJ JUIZO CRIMINAL-SECRETARIA 12.343,61 3.703,08 0,00 0,00 0,00 0,00 0,00 2.078,00 18.124,69 2.348,42 2.689,12 0,00 0,00 5.037,54 13.087,15 30/04/2023
160 482200 ANA ALICE LOPES ACHTSCHIN ANALISTA DO MP BELO HORIZONTE - COMARCA; PROC JUST ATUACAO TRIBUNAIS SUPERIORES-GAB003 14.960,00 2.992,00 0,00 0,00 0,00 0,00 0,00 2.078,00 20.030,00 2.653,27 3.337,79 0,00 0,00 5.991,06 14.038,94 30/04/2023
161 490400 ANA AMELIA PAULINO GARCIA OFICIAL DO MP CONTAGEM - COMARCA; CONTAGEM-PJ-SECRETARIA 10.516,49 2.103,30 0,00 0,00 0,00 0,00 0,00 3.028,00 15.647,79 1.800,11 2.053,91 0,00 0,00 3.854,02 11.793,77 30/04/2023
162 690400 ANA ANGELICA MOREIRA DA CUNHA ASSESSOR PROMOTOR JUSTICA TIMÓTEO - COMARCA; TIMOTEO-PJ-02PJ 0,00 0,00 8.810,89 0,00 0,00 0,00 0,00 2.078,00 10.888,89 877,22 1.724,90 0,00 0,00 2.602,12 8.286,77 30/04/2023
163 714900 ANA BEATRIZ LOBATO ALVES DE CARVALHO ASSESSOR PROCURADOR JUSTICA BELO HORIZONTE - COMARCA; GABINETE DE PROCURADOR DE JUSTICA - SALA 309 0,00 3.524,36 8.810,89 0,00 0,00 0,00 0,00 2.078,00 14.413,25 877,22 2.694,10 0,00 0,00 3.571,32 10.841,93 30/04/2023
164 715000 ANA CARLA RODRIGUES DE SOUZA ASSESSOR PROMOTOR JUSTICA TRÊS CORACOES - COMARCA; TRES CORACOES-PJ-01PJ 0,00 0,00 8.810,89 0,00 0,00 0,00 0,00 2.078,00 10.888,89 877,22 1.724,90 0,00 0,00 2.602,12 8.286,77 30/04/2023
165 279100 ANA CAROLINA ARAUJO PEREIRA ANALISTA DO MP BELO HORIZONTE - COMARCA; DIRETORIA DE PROJETOS DE EDIFICACOES 23.070,31 6.921,09 0,00 0,00 0,00 0,00 549,84 8.076,28 38.617,52 4.579,57 6.066,76 0,00 0,00 10.646,33 27.971,19 30/04/2023
166 653300 ANA CAROLINA CYRNE DINIZ ASSESSOR ADMINISTRATIVO III BELO HORIZONTE - COMARCA; CENTRAL DE APOIO TECNICO-SETOR CONTABIL 0,00 0,00 10.858,90 0,00 0,00 0,00 0,00 2.078,00 12.936,90 877,22 2.288,10 0,00 0,00 3.165,32 9.771,58 30/04/2023
167 359400 ANA CAROLINA DE ABREU FARIA ASSESSOR ADMINISTRATIVO IV BELO HORIZONTE - COMARCA; SUPERINTENDÊNCIA DE ENGENHARIA E ARQUITETURA 0,00 0,00 14.488,22 0,00 0,00 0,00 0,00 3.028,00 17.516,22 877,22 3.234,03 0,00 0,00 4.111,25 13.404,97 30/04/2023
168 408500 ANA CAROLINA DE CASTRO CARVALHO ANALISTA DO MP BARBACENA - COMARCA; BARBACENA - SECRETARIA DAS PJS CRIMINAIS 18.130,77 3.626,15 0,00 0,00 0,00 0,00 0,00 3.028,00 24.784,92 3.262,06 4.216,73 0,00 0,00 7.478,79 17.306,13 30/04/2023
169 688000 ANA CAROLINA DE OLIVEIRA PINTO ASSESSOR PROCURADOR JUSTICA BELO HORIZONTE - COMARCA; GABINETE DE PROCURADOR DE JUSTIÇA - SALA 1005 0,00 0,00 8.810,89 0,00 0,00 0,00 0,00 2.078,00 10.888,89 877,22 1.724,90 0,00 0,00 2.602,12 8.286,77 30/04/2023
170 420200 ANA CAROLINA FERNANDES SILVA ANALISTA DO MP BELO HORIZONTE - COMARCA; GABINETE DE PROCURADOR DE JUSTIÇA - SALA 704 17.559,01 3.511,80 0,00 0,00 0,00 0,00 0,00 2.078,00 23.148,81 3.152,28 4.058,24 0,00 0,00 7.210,52 15.938,29 30/04/2023
171 522100 ANA CAROLINA FERNANDINO VIDAL PEREIRA SANTOS OFICIAL DO MP BELO HORIZONTE - COMARCA; SECRETARIA DO PROCON-MG 9.699,77 1.939,95 0,00 0,00 0,00 0,00 0,00 2.078,00 13.717,72 982,16 1.976,24 0,00 0,00 2.958,40 10.759,32 30/04/2023
172 716000 ANA CAROLINA FIGUEIREDO SILVA ASSESSOR PROCURADOR JUSTICA BELO HORIZONTE - COMARCA; PROC JUST ATUACAO TRIBUNAIS SUPERIORES-GAB006 0,00 0,00 8.810,89 0,00 0,00 0,00 0,00 2.078,00 10.888,89 877,22 1.724,90 0,00 0,00 2.602,12 8.286,77 30/04/2023
173 502400 ANA CAROLINA GONCALVES FERNANDES ANALISTA DO MP IPATINGA - COMARCA; IPATINGA-PJ-01PJ 12.343,61 2.468,72 0,00 0,00 0,00 0,00 0,00 3.978,00 18.790,33 982,16 2.783,28 0,00 0,00 3.765,44 15.024,89 30/04/2023
174 529900 ANA CAROLINA GONCALVES PECANHA CHEQUER ANALISTA DO MP MANHUAÇU - COMARCA; MANHUACU-PJ-04PJ 12.343,61 2.468,72 0,00 0,00 0,00 0,00 0,00 3.978,00 18.790,33 2.150,92 2.612,53 0,00 0,00 4.763,45 14.026,88 30/04/2023
175 431900 ANA CAROLINA MOTTA GUATIMOSIM ANALISTA DO MP BELO HORIZONTE - COMARCA; ASSESSORIA JURIDICO-ADMINISTRATIVA 17.559,01 3.511,80 0,00 0,00 0,00 0,00 0,00 3.028,00 24.098,81 3.152,28 4.058,24 0,00 0,00 7.210,52 16.888,29 30/04/2023
176 490600 ANA CAROLINA XAVIER GODOY ANALISTA DO MP BELO HORIZONTE - COMARCA; BH-18PJ DIREITOS HUMANOS-SECRETARIA 12.343,61 2.468,72 0,00 0,00 0,00 0,00 0,00 3.978,00 18.790,33 2.150,92 2.508,25 0,00 0,00 4.659,17 14.131,16 30/04/2023
177 600300 ANA CAROLINE PEREIRA DINIZ ANALISTA DO MP BELO HORIZONTE - COMARCA; PROC JUST ESP ACOES COMP ORIG CRIMINAL-SEC 12.343,61 1.234,36 0,00 0,00 0,00 0,00 0,00 3.028,00 16.605,97 1.953,42 2.327,39 0,00 0,00 4.280,81 12.325,16 30/04/2023
178 615800 ANA CAROLINE PEREIRA OLIVEIRA OFICIAL DO MP ALFENAS - COMARCA; ALFENAS-PJ-06PJ 7.506,70 750,67 0,00 0,00 0,00 0,00 0,00 2.078,00 10.335,37 1.102,13 1.098,33 0,00 0,00 2.200,46 8.134,91 30/04/2023
179 324800 ANA CECILIA MENDES DA SILVA OFICIAL DO MP OURO FINO - COMARCA; OURO FINO-PJ-01PJ 12.343,61 4.937,44 0,00 0,00 0,00 0,00 0,00 2.078,00 19.359,05 2.545,92 3.130,66 0,00 0,00 5.676,58 13.682,47 30/04/2023
180 704100 ANA CLARA MARTINS ALBUQUERQUE ASSESSOR ADMINISTRATIVO I BELO HORIZONTE - COMARCA; CAO-CRIANCAS E ADOLESCENTES-ASS TECNICA 0,00 0,00 4.872,71 0,00 0,00 0,00 0,00 2.078,00 6.950,71 718,35 685,59 0,00 0,00 1.403,94 5.546,77 30/04/2023
181 698700 ANA CLARA SANTOS ALMEIDA ASSESSOR PROMOTOR JUSTICA SABINÓPOLIS - COMARCA; SABINOPOLIS-PJ-UNPJ 0,00 0,00 8.810,89 0,00 0,00 0,00 0,00 2.078,00 10.888,89 877,22 1.724,90 0,00 0,00 2.602,12 8.286,77 30/04/2023
182 441300 ANA CLAUDIA ALKIMIM MIRANDA BOMTEMPO ANALISTA DO MP MONTES CLAROS - COMARCA; MONTES CLAROS-PJ-11PJ 17.559,01 3.511,80 0,00 0,00 0,00 0,00 0,00 2.078,00 23.148,81 3.152,28 3.953,96 0,00 0,00 7.106,24 16.042,57 30/04/2023
183 642500 ANA CLAUDIA DA COSTA NAVES OFICIAL DO MP MONTE CARMELO - COMARCA; MONTE CARMELO-PJ-02PJ 6.097,80 609,78 0,00 0,00 0,00 0,00 0,00 3.133,12 9.840,70 858,16 739,23 0,00 0,00 1.597,39 8.243,31 30/04/2023
184 716800 ANA CLAUDIA DOURADO MENDES ASSESSOR PROMOTOR JUSTICA ARAÇUAÍ - COMARCA; ARACUAI-PJ-02PJ 0,00 0,00 8.810,89 0,00 0,00 0,00 0,00 2.078,00 10.888,89 877,22 1.724,90 0,00 0,00 2.602,12 8.286,77 30/04/2023
185 604900 ANA CLAUDIA OLIVEIRA DE MIRANDA OFICIAL DO MP PONTE NOVA - COMARCA; PONTE NOVA-PJ-04PJ 7.506,70 750,67 0,00 0,00 0,00 0,00 0,00 2.078,00 10.335,37 1.102,13 1.046,19 0,00 0,00 2.148,32 8.187,05 30/04/2023
186 379300 ANA CRISTINA ALVES FLAVIO ANALISTA DO MP SÃO GOTARDO - COMARCA; SAO GOTARDO-PJ-01PJ 18.720,84 5.616,25 0,00 0,00 0,00 0,00 0,00 3.028,00 27.365,09 3.674,88 4.760,61 0,00 0,00 8.435,49 18.929,60 30/04/2023
187 461200 ANA CRISTINA ALVES PASCHOAL ANALISTA DO MP BELO HORIZONTE - COMARCA; BH-07PJ 03 TRIBUNAL DO JURI-GAB 064PJ 12.343,61 2.468,72 0,00 0,00 0,00 0,00 0,00 2.078,00 16.890,33 2.150,92 2.560,39 0,00 0,00 4.711,31 12.179,02 30/04/2023
188 514100 ANA CRISTINA ARAUJO ASSUNCAO ANALISTA DO MP BELO HORIZONTE - COMARCA; ASSESS JUR DO CONS SUPERIOR DO MINISTERIO PUB 12.343,61 2.468,72 0,00 0,00 0,00 0,00 0,00 3.028,00 17.840,33 2.150,92 2.560,39 0,00 0,00 4.711,31 13.129,02 30/04/2023
189 113401 ANA CRISTINA BRAGA ALBUQUERQUE ASSESSOR ADM. ESPECIAL BELO HORIZONTE - COMARCA; DIRETORIA-GERAL 0,00 0,00 28.013,39 0,00 0,00 0,00 513,58 7.102,68 35.629,65 877,22 7.005,59 0,00 0,00 7.882,81 27.746,84 30/04/2023
190 233800 ANA CRISTINA BRAGA SOARES OFICIAL DO MP BELO HORIZONTE - COMARCA; DIRETORIA DE CONTABILIDADE 14.960,00 5.984,00 0,00 0,00 0,00 0,00 0,00 2.078,00 23.022,00 3.131,99 3.924,67 0,00 0,00 7.056,66 15.965,34 30/04/2023
191 186400 ANA CRISTINA DE AZEVEDO LOPES OFICIAL DO MP UBÁ - COMARCA; UBA-PJ-01PJ 20.533,67 8.213,47 0,00 0,00 0,00 0,00 527,03 7.827,43 37.101,60 4.380,49 5.831,47 0,00 0,00 10.211,96 26.889,64 30/04/2023
192 693000 ANA CRISTINA DE MELO SILVEIRA ASSESSOR PROCURADOR JUSTICA BELO HORIZONTE - COMARCA; COORD DE CONTROLE CONSTITUCIONALIDADE 0,00 0,00 8.810,89 0,00 0,00 0,00 0,00 3.028,00 11.838,89 877,22 1.724,90 0,00 0,00 2.602,12 9.236,77 30/04/2023
193 465100 ANA CRISTINA DE OLIVEIRA GUIMARAES ANALISTA DO MP ITAJUBA - COMARCA; ITAJUBA-PJ-05PJ 12.343,61 2.468,72 0,00 0,00 0,00 0,00 0,00 3.028,00 17.840,33 2.150,92 2.508,25 0,00 0,00 4.659,17 13.181,16 30/04/2023
194 500600 ANA CRISTINA LATADO SUDARIO ANALISTA DO MP UBERLÂNDIA - COMARCA; UBERLANDIA-PJ-09PJ 12.343,61 2.468,72 0,00 0,00 0,00 0,00 0,00 2.078,00 16.890,33 2.150,92 2.612,53 0,00 0,00 4.763,45 12.126,88 30/04/2023
195 331400 ANA CRISTINA RIBEIRO ALVES OFICIAL DO MP BAMBUÍ - COMARCA; BAMBUI-PJ-UNPJ 12.343,61 3.703,08 0,00 0,00 0,00 0,00 0,00 2.078,00 18.124,69 2.348,42 2.845,53 0,00 0,00 5.193,95 12.930,74 30/04/2023
196 249300 ANA ELOINA MARTINS OFICIAL DO MP BETIM - COMARCA; BETIM-PJ-02PJ 17.559,01 8.779,51 0,00 0,00 0,00 0,00 482,87 7.345,70 34.167,09 3.995,11 5.275,08 0,00 0,00 9.270,19 24.896,90 30/04/2023
197 257400 ANA FLAVIA CAMBRAIA ANALISTA DO MP BELO HORIZONTE - COMARCA; BH-19PJ SAUDE-SECRETARIA 150PJ 23.070,31 9.228,12 0,00 0,00 0,00 0,00 0,00 2.078,00 34.376,43 4.948,70 6.599,68 0,00 0,00 11.548,38 22.828,05 30/04/2023
198 248201 ANA FLAVIA DE MORAIS SOUZA ANALISTA DO MP DIVINÓPOLIS - COMARCA; DIVINOPOLIS-PJ-01PJ 14.960,00 5.984,00 0,00 0,00 0,00 0,00 76,79 2.915,76 23.936,55 3.131,99 3.924,67 0,00 0,00 7.056,66 16.879,89 30/04/2023
199 621100 ANA FLAVIA DINIZ TEODORO OFICIAL DO MP SANTA LUZIA - COMARCA; SANTA LUZIA-PJ-06PJ 7.506,70 750,67 0,00 0,00 0,00 0,00 0,00 2.078,00 10.335,37 1.102,13 1.098,33 0,00 0,00 2.200,46 8.134,91 30/04/2023
200 238600 ANA FLAVIA FRANCO OFICIAL DO MP BELO HORIZONTE - COMARCA; DIRETORIA DE PESSOAL ADMINISTRATIVO - DPAD 18.130,77 7.252,31 0,00 0,00 0,00 0,00 465,36 7.154,62 33.003,06 3.842,24 5.054,37 0,00 0,00 8.896,61 24.106,45 30/04/2023
201 690000 ANA FLAVIA LURIAN DE PAIVA ASSESSOR PROCURADOR JUSTICA BELO HORIZONTE - COMARCA; GABINETE DE PROCURADOR DE JUSTIÇA - SALA 609 0,00 0,00 8.810,89 0,00 0,00 0,00 0,00 2.078,00 10.888,89 877,22 1.724,90 0,00 0,00 2.602,12 8.286,77 30/04/2023
202 402900 ANA FLAVIA PORTES DE CARVALHO ANALISTA DO MP BELO HORIZONTE - COMARCA; DIRET DE PLANOS PROJETOS E PROGRAMAS INST 18.720,84 3.744,17 0,00 0,00 0,00 0,00 329,49 5.672,40 28.466,90 3.375,35 4.328,16 0,00 0,00 7.703,51 20.763,39 30/04/2023
203 382700 ANA KARENINA SALDANHA GONTIJO ANALISTA DO MP BELO HORIZONTE - COMARCA; ASSESS TECNICO-JUR JUNTO AS PROC. DE JUST 18.999,41 5.699,82 0,00 0,00 0,00 0,00 0,00 2.078,00 26.777,23 3.732,83 4.896,40 0,00 0,00 8.629,23 18.148,00 30/04/2023
204 620500 ANA KARINE DE ANDRADE OLIVEIRA ANALISTA DO MP RIBEIRÃO DAS NEVES - COMARCA; RIBEIRAO NEVES-SEC PJ EXECUCAO PENAL 10.516,49 1.051,65 0,00 0,00 0,00 0,00 0,00 2.078,00 13.646,14 1.631,85 1.863,12 0,00 0,00 3.494,97 10.151,17 30/04/2023
205 462200 ANA LUCIA ANDRADE TOMICH OTTONI ANALISTA DO MP TEÓFILO OTONI - COMARCA; TEOFILO OTONI-PJ-07PJ 12.343,61 2.468,72 0,00 0,00 0,00 0,00 0,00 3.028,00 17.840,33 2.150,92 2.508,25 0,00 0,00 4.659,17 13.181,16 30/04/2023
206 504100 ANA LUCIA CATAO DE CARVALHO OFICIAL DO MP BELO HORIZONTE - COMARCA; DIR RELACOES INSTITUCIONAIS 10.516,49 2.103,30 3.752,54 0,00 0,00 0,00 0,00 2.078,00 18.450,33 1.800,11 3.085,86 0,00 0,00 4.885,97 13.564,36 30/04/2023
207 274700 ANA LUCIA DE ALENCAR BRAGATO OFICIAL DO MP UBERABA - COMARCA; UBERABA-PJ-07PJ 12.343,61 3.703,08 0,00 0,00 0,00 0,00 0,00 2.078,00 18.124,69 2.348,42 2.897,66 0,00 0,00 5.246,08 12.878,61 30/04/2023
208 509400 ANA LUCIA DORNELAS MALLOSTO ANALISTA DO MP JUIZ DE FORA - COMARCA; JUIZ DE FORA-PJ-25PJ 12.343,61 2.468,72 0,00 0,00 0,00 0,00 0,00 2.078,00 16.890,33 2.150,92 2.560,39 0,00 0,00 4.711,31 12.179,02 30/04/2023
209 302600 ANA LUCIA LOPES SANTOS OFICIAL DO MP BELO HORIZONTE - COMARCA; DIVISÃO DE FISCALIZAÇÃO DAS RELAÇÕES DE CONSU 12.343,61 3.703,08 0,00 0,00 0,00 0,00 1.771,66 2.078,00 19.896,35 2.348,42 3.332,73 0,00 0,00 5.681,15 14.215,20 30/04/2023
210 716700 ANA LUISA DE LANA COELHO ASSESSOR PROCURADOR JUSTICA BELO HORIZONTE - COMARCA; GABINETE DE PROCURADOR DE JUSTIÇA - SALA 715 0,00 0,00 8.810,89 0,00 0,00 0,00 0,00 2.078,00 10.888,89 877,22 1.724,90 0,00 0,00 2.602,12 8.286,77 30/04/2023
211 702000 ANA LUISA DE OLIVEIRA RIBEIRO ASSESSOR PROCURADOR JUSTICA BELO HORIZONTE - COMARCA; ASSESS TECNICO-JUR JUNTO AS PROC. DE JUST 0,00 0,00 8.810,89 0,00 0,00 0,00 0,00 2.078,00 10.888,89 877,22 1.724,90 0,00 0,00 2.602,12 8.286,77 30/04/2023
212 493400 ANA LUISA NOGUEIRA MOREIRA ANALISTA DO MP BELO HORIZONTE - COMARCA; BH-19PJ SAUDE-SECRETARIA 130PJ 12.343,61 2.468,72 0,00 0,00 0,00 0,00 0,00 2.078,00 16.890,33 2.150,92 2.612,53 0,00 0,00 4.763,45 12.126,88 30/04/2023
213 389300 ANA LUISA REUTER LIMA ANALISTA DO MP BELO HORIZONTE - COMARCA; DIRETORIA DE SISTEMAS DE INFORMACAO 18.720,84 5.616,25 5.538,92 0,00 0,00 0,00 0,00 2.078,00 31.954,01 3.674,88 6.335,95 0,00 0,00 10.010,83 21.943,18 30/04/2023
214 480600 ANA LUIZA FERNANDES FRAGA E GRECO COORDENADOR I BELO HORIZONTE - COMARCA; OUVIDORIA DO MPMG 16.469,17 3.293,83 0,00 0,00 0,00 0,00 72,46 2.868,52 22.703,98 1.643,30 4.113,56 0,00 0,00 5.756,86 16.947,12 30/04/2023
215 726800 ANA LUIZA GOMES PEREIRA ASSESSOR ADMINISTRATIVO I BELO HORIZONTE - COMARCA; OUVIDORIA DO MPMG 0,00 0,00 4.872,71 0,00 0,00 0,00 0,00 2.078,00 6.950,71 718,35 685,59 0,00 0,00 1.403,94 5.546,77 30/04/2023
216 733600 ANA LUIZA MACHADO RODRIGUES ASSESSOR PROMOTOR JUSTICA CARMO DA MATA - COMARCA; CARMO DA MATA-PJ-UNPJ 0,00 0,00 8.810,89 0,00 0,00 0,00 0,00 2.078,00 10.888,89 877,22 1.724,90 0,00 0,00 2.602,12 8.286,77 30/04/2023
217 517800 ANA LUIZA MAGALHAES CIRINO PIOTO DE MELO OFICIAL DO MP BELO HORIZONTE - COMARCA; DIVISAO DE MATERIAIS 6.818,83 681,88 0,00 0,00 0,00 0,00 0,00 3.978,00 11.478,71 981,10 923,53 0,00 0,00 1.904,63 9.574,08 30/04/2023
218 481400 ANA MARCIA CANDIDA FERREIRA OFICIAL DO MP BRUMADINHO - COMARCA; BRUMADINHO-PJ-02PJ 7.506,70 1.501,34 0,00 0,00 0,00 0,00 0,00 2.078,00 11.086,04 1.222,23 1.271,74 0,00 0,00 2.493,97 8.592,07 30/04/2023
219 643100 ANA MARIA LOPES MIRANDA ANALISTA DO MP BELO HORIZONTE - COMARCA; CAO-FUNDACOES 10.341,72 1.034,17 0,00 0,00 0,00 0,00 0,00 3.028,00 14.403,89 982,16 1.829,34 0,00 0,00 2.811,50 11.592,39 30/04/2023
220 556400 ANA MARIA OLIVEIRA SOUZA OFICIAL DO MP ITAPECERICA - COMARCA; ITAPECERICA-PJ-UNPJ 8.003,54 800,35 0,00 0,00 0,00 0,00 0,00 2.078,00 10.881,89 1.189,57 1.224,58 0,00 0,00 2.414,15 8.467,74 30/04/2023
221 409600 ANA OLIVIA FARIA ROSENBURG ANALISTA DO MP BELO HORIZONTE - COMARCA; DIRETORIA DO COLEGIO E DA CAMARA DE PJ 18.130,77 7.252,31 0,00 0,00 0,00 0,00 0,00 2.078,00 27.461,08 3.842,24 5.054,37 0,00 0,00 8.896,61 18.564,47 30/04/2023
222 461500 ANA PAULA ALVES CARVALHO ANALISTA DO MP UBERLÂNDIA - COMARCA; UBERLANDIA-PJ-25PJ 13.160,57 2.632,11 0,00 0,00 0,00 0,00 521,16 8.713,36 25.027,20 2.307,78 2.734,71 0,00 0,00 5.042,49 19.984,71 30/04/2023
223 523200 ANA PAULA ALVES DA SILVA OFICIAL DO MP GOVERNADOR VALADARES - COMARCA; GOVERNADOR VALADARES-PJ-10PJ 9.699,77 1.939,95 0,00 0,00 0,00 0,00 0,00 5.878,00 17.517,72 982,16 1.871,97 0,00 0,00 2.854,13 14.663,59 30/04/2023
224 381200 ANA PAULA BARROS PEREIRA RIGHI ANALISTA DO MP BELO HORIZONTE - COMARCA; PROC JUST ATUACAO TRIBUNAIS SUPERIORES-GAB003 18.720,84 5.616,25 0,00 0,00 0,00 0,00 0,00 3.028,00 27.365,09 982,16 5.154,00 0,00 0,00 6.136,16 21.228,93 30/04/2023
225 696400 ANA PAULA CARVALHO SILVA ASSESSOR PROMOTOR JUSTICA PERDÕES - COMARCA; PERDOES-PJ-UNPJ 0,00 0,00 8.810,89 0,00 0,00 0,00 0,00 3.028,00 11.838,89 877,22 1.672,76 0,00 0,00 2.549,98 9.288,91 30/04/2023
226 700900 ANA PAULA CRAVO SALOME ASSESSOR ADMINISTRATIVO I BELO HORIZONTE - COMARCA; PROCURADOR-GERAL DE JUSTIÇA 0,00 0,00 4.872,71 0,00 0,00 0,00 0,00 2.078,00 6.950,71 718,35 685,59 0,00 0,00 1.403,94 5.546,77 30/04/2023
227 227200 ANA PAULA DA SILVA CAMPOLINA ANALISTA DO MP BELO HORIZONTE - COMARCA; DIRETORIA DE ORCAMENTO-DIOR/SPC 23.070,31 11.535,16 0,00 0,00 0,00 0,00 507,55 7.614,88 42.727,90 5.317,82 7.184,74 0,00 0,00 12.502,56 30.225,34 30/04/2023
228 278500 ANA PAULA DIAS CAPANEMA OFICIAL DO MP BELO HORIZONTE - COMARCA; DIRETORIA DE SEGURANCA 13.160,57 3.948,17 0,00 0,00 0,00 0,00 0,00 2.078,00 19.186,74 2.518,35 3.143,00 0,00 0,00 5.661,35 13.525,39 30/04/2023
229 327300 ANA PAULA GARCIA MAXIMO OFICIAL DO MP UNAÍ - COMARCA; UNAI-PJ-01PJ 15.447,01 7.723,51 0,00 0,00 0,00 0,00 339,83 5.785,28 29.295,63 3.488,23 4.386,86 0,00 0,00 7.875,09 21.420,54 30/04/2023
230 270000 ANA PAULA GOULART CRUZ DE MAGALHAES ANALISTA DO MP BELO HORIZONTE - COMARCA; ASSESSORIA ESPECIAL DO PGJ 23.070,31 6.921,09 0,00 0,00 0,00 0,00 549,84 8.076,28 38.617,52 4.579,57 6.118,89 0,00 0,00 10.698,46 27.919,06 30/04/2023
231 262100 ANA PAULA KOMATSUZAKI ABIJAUDI ANALISTA DO MP BELO HORIZONTE - COMARCA; BH-17PJ PATRIMONIO PUBLICO-SECRETARIA 23.070,31 11.535,16 0,00 0,00 0,00 0,00 253,77 4.846,44 39.705,68 5.317,82 7.080,47 0,00 0,00 12.398,29 27.307,39 30/04/2023
232 278900 ANA PAULA MOREIRA GURGEL ANALISTA DO MP BELO HORIZONTE - COMARCA; ASSESSORIA JURIDICO-ADMINISTRATIVA 23.070,31 11.535,16 8.404,02 0,00 0,00 0,00 2.720,52 6.588,80 52.318,81 5.317,82 8.005,48 7.726,56 0,00 21.049,86 31.268,95 30/04/2023
233 425701 ANA PAULA ROCHA ANALISTA DO MP BELO HORIZONTE - COMARCA; ASSESSORIA DE COMUNICACAO INTEGRADA 12.343,61 1.234,36 0,00 0,00 0,00 0,00 0,00 3.028,00 16.605,97 1.953,42 2.327,39 0,00 0,00 4.280,81 12.325,16 30/04/2023
234 395601 ANA PAULA SALGE OLIVEIRA ANALISTA DO MP UBERABA - COMARCA; UBERABA-PJ-15PJ 12.343,61 4.937,44 0,00 0,00 0,00 0,00 1.302,25 2.818,62 21.401,92 2.743,41 3.467,94 0,00 0,00 6.211,35 15.190,57 30/04/2023
235 473200 ANA PAULA SCOTTON BRASIL ANALISTA DO MP JUIZ DE FORA - COMARCA; JUIZ DE FORA-PJ-09PJ 12.343,61 2.468,72 0,00 0,00 0,00 0,00 162,94 3.855,48 18.830,75 2.150,92 2.612,53 0,00 0,00 4.763,45 14.067,30 30/04/2023
236 633600 ANA PAULA SILVA FERNANDES OFICIAL DO MP CATAGUASES - COMARCA; CATAGUASES-PJ-04PJ 7.270,07 727,01 0,00 0,00 0,00 0,00 0,00 2.177,26 10.174,34 1.060,48 1.038,21 0,00 0,00 2.098,69 8.075,65 30/04/2023
237 470900 ANA PAULA VALADARES ANALISTA DO MP PITANGUI - COMARCA; PITANGUI-PJ-01PJ 12.343,61 2.468,72 0,00 0,00 0,00 0,00 0,00 2.078,00 16.890,33 2.150,92 2.508,25 0,00 0,00 4.659,17 12.231,16 30/04/2023
238 447000 ANA PAULA VALENTIM DE ARAUJO ANALISTA DO MP BELO HORIZONTE - COMARCA; PROC JUST ESP ACOES COMP ORIG CRIMINAL-ASSESS 13.588,97 2.717,79 0,00 0,00 0,00 0,00 0,00 2.078,00 18.384,76 2.390,03 2.957,74 0,00 0,00 5.347,77 13.036,99 30/04/2023
239 604200 ANA PAULA VIANA E SILVA OFICIAL DO MP BELO HORIZONTE - COMARCA; BH-17PJ PATRIMONIO PUBLICO-SECRETARIA 7.506,70 750,67 0,00 0,00 0,00 0,00 0,00 2.078,00 10.335,37 1.102,13 1.098,33 0,00 0,00 2.200,46 8.134,91 30/04/2023
240 505400 ANA PAULA VIEIRA SOUTO OFICIAL DO MP ALMENARA - COMARCA; ALMENARA-PJ-01PJ 7.506,70 3.002,68 0,00 0,00 0,00 0,00 0,00 2.078,00 12.587,38 1.462,45 1.566,41 0,00 0,00 3.028,86 9.558,52 30/04/2023
241 280200 ANA RACHEL BRANDAO LADEIRA ROLAND ANALISTA DO MP BELO HORIZONTE - COMARCA; SUPERINTENDENCIA GESTÃO DE PESSOAS 23.070,31 6.921,09 8.404,02 0,00 0,00 0,00 0,00 2.078,00 40.473,42 4.579,57 8.208,50 805,46 0,00 13.593,53 26.879,89 30/04/2023
242 691000 ANA RACHEL DOS REIS E SENA COSTA ASSESSOR PROMOTOR JUSTICA BELO HORIZONTE - COMARCA; GABINETE DE PROCURADOR DE JUSTIÇA - SALA 601 0,00 0,00 8.810,89 0,00 0,00 0,00 0,00 2.078,00 10.888,89 877,22 1.724,90 0,00 0,00 2.602,12 8.286,77 30/04/2023
243 601200 ANA REGINA RIBEIRO ANALISTA DO MP BELO HORIZONTE - COMARCA; DIV FISCAL ADM CONT TERCEIRIZACAO 12.343,61 1.234,36 4.940,75 0,00 0,00 0,00 0,00 2.078,00 20.596,72 982,16 3.726,09 0,00 0,00 4.708,25 15.888,47 30/04/2023
244 384700 ANA RODRIGUES PEREIRA MARRA ANALISTA DO MP COROMANDEL - COMARCA; COROMANDEL-PJ-01PJ 12.343,61 3.703,08 0,00 0,00 0,00 0,00 0,00 2.078,00 18.124,69 2.348,42 2.793,39 0,00 0,00 5.141,81 12.982,88 30/04/2023
245 232700 ANA SILVIA SEMBLANO NAKAMURA OFICIAL DO MP BELO HORIZONTE - COMARCA; CENT DE APOIO TEC-SETOR DEF,IDOSO E INFANC 12.343,61 4.937,44 4.020,58 0,00 0,00 0,00 0,00 2.078,00 23.379,63 2.545,92 4.288,46 0,00 0,00 6.834,38 16.545,25 30/04/2023
246 602100 ANACLETO FRANCISCO MARCIER PIMENTA OFICIAL DO MP SÃO JOÃO DEL REI - COMARCA; SAO JOAO DEL REI-PJ-03PJ 7.506,70 750,67 0,00 0,00 0,00 0,00 0,00 3.028,00 11.285,37 1.102,13 837,64 0,00 0,00 1.939,77 9.345,60 30/04/2023
247 310400 ANADEJE DO CARMO DINIZ ARAUJO OFICIAL DO MP BELO HORIZONTE - COMARCA; DIRETORIA DE PESSOAL ADMINISTRATIVO - DPAD 12.343,61 3.703,08 0,00 0,00 0,00 0,00 0,00 2.078,00 18.124,69 2.348,42 2.897,66 0,00 0,00 5.246,08 12.878,61 30/04/2023
248 337000 ANAILDES MARIA MENDES OFICIAL DO MP JANAÚBA - COMARCA; JANAUBA-PJ-02PJ 12.343,61 3.703,08 0,00 0,00 0,00 0,00 0,00 3.028,00 19.074,69 2.348,42 2.897,66 0,00 0,00 5.246,08 13.828,61 30/04/2023
249 377400 ANDEIRSON DA MATTA BARBOSA ANALISTA DO MP POUSO ALEGRE - COMARCA; POUSO ALEGRE-PJ-01PJ 12.343,61 3.703,08 0,00 0,00 0,00 0,00 0,00 3.028,00 19.074,69 2.348,42 2.897,66 0,00 0,00 5.246,08 13.828,61 30/04/2023
250 317400 ANDERSON DA SILVA BICALHO OFICIAL DO MP CONTAGEM - COMARCA; CONTAGEM-PJ-SECRETARIA 11.954,43 3.586,33 0,00 0,00 0,00 0,00 0,00 2.078,00 17.618,76 2.267,47 2.624,38 0,00 0,00 4.891,85 12.726,91 30/04/2023
251 506900 ANDERSON DE SOUZA DAMIANI ANALISTA DO MP BELO HORIZONTE - COMARCA; DIRETORIA DE PAGAMENTO DE PESSOAL-DPAG 12.343,61 4.937,44 5.538,92 0,00 0,00 0,00 334,69 5.729,20 28.883,86 2.545,92 4.653,87 0,00 0,00 7.199,79 21.684,07 30/04/2023
252 410000 ANDERSON DE SOUZA NETO ASSESSOR ADMINISTRATIVO II BELO HORIZONTE - COMARCA; DIRETORIA DE ADMINISTRACAO FINANCEIRA 0,00 0,00 7.506,70 0,00 0,00 0,00 0,00 2.078,00 9.584,70 877,22 1.366,25 0,00 0,00 2.243,47 7.341,23 30/04/2023
253 181900 ANDERSON FLAVIO DE OLIVEIRA OFICIAL DO MP ITAGUARA - COMARCA; ITAGUARA-PJ-SECRETARIA 18.130,77 7.252,31 0,00 0,00 0,00 0,00 0,00 2.078,00 27.461,08 3.842,24 5.054,37 0,00 0,00 8.896,61 18.564,47 30/04/2023
254 333200 ANDERSON JOSE DE FREITAS OFICIAL DO MP IPATINGA - COMARCA; IPATINGA-PJ-04PJ 12.343,61 3.703,08 0,00 0,00 0,00 0,00 1.771,66 3.028,00 20.846,35 2.348,42 3.228,46 0,00 0,00 5.576,88 15.269,47 30/04/2023
255 699400 ANDERSON LUIZ CABRAL ASSESSOR PROMOTOR JUSTICA ALÉM PARAÍBA - COMARCA; ALEM PARAIBA-PJ-03PJ 0,00 0,00 8.810,89 0,00 0,00 0,00 0,00 2.078,00 10.888,89 877,22 1.724,90 0,00 0,00 2.602,12 8.286,77 30/04/2023
256 462100 ANDERSON LUIZ GUIMARAES CARDOSO ANALISTA DO MP BARBACENA - COMARCA; BARBACENA-PJ-02PJ 14.960,00 2.992,00 0,00 0,00 0,00 0,00 0,00 2.078,00 20.030,00 2.653,27 3.337,79 0,00 0,00 5.991,06 14.038,94 30/04/2023
257 429700 ANDERSON MELO DE SOUZA COORDENADOR II BELO HORIZONTE - COMARCA; DIRET DE ESTAGIOS E CONVENIOS ACADEMICOS 20.533,67 4.106,73 0,00 0,00 0,00 0,00 90,35 3.063,62 27.794,37 1.222,23 5.570,64 0,00 0,00 6.792,87 21.001,50 30/04/2023
258 545600 ANDERSON MENDES PROCOPIO FERREIRA ANALISTA DO MP BELO HORIZONTE - COMARCA; BH-12PJ JUIZO CRIMINAL-GAB 089PJ 12.343,61 2.468,72 0,00 0,00 0,00 0,00 1.293,20 2.719,86 18.825,39 2.348,42 2.897,66 0,00 0,00 5.246,08 13.579,31 30/04/2023
259 519900 ANDERSON MOREIRA DOEHLER ANALISTA DO MP TEÓFILO OTONI - COMARCA; COORD REG SAUDE MACRORREGIAO SANIT NORDESTE 12.343,61 4.937,44 0,00 0,00 0,00 0,00 0,00 2.078,00 19.359,05 2.545,92 3.182,80 0,00 0,00 5.728,72 13.630,33 30/04/2023
260 103000 ANDERSON TADEU DE DEUS ASSESSOR ADMINISTRATIVO II BELO HORIZONTE - COMARCA; BH-26 CRIME CONT CRIAN ADOL-SECRETARIA 0,00 6.005,36 7.506,70 0,00 0,00 0,00 49,54 7.122,50 20.684,10 877,22 3.017,72 0,00 0,00 3.894,94 16.789,16 30/04/2023
261 309200 ANDITYAS SOARES DE MOURA COSTA MATOS ANALISTA DO MP BELO HORIZONTE - COMARCA; GABINETE DE PROCURADOR DE JUSTIÇA - SALA 909 20.533,67 8.213,47 0,00 0,00 0,00 0,00 2.053,37 2.078,00 32.878,51 4.709,03 6.305,80 0,00 0,00 11.014,83 21.863,68 30/04/2023
262 519200 ANDRE BORJA LANA ANALISTA DO MP BELO HORIZONTE - COMARCA; DIR CONTEUDO JORNALISTICO 12.343,61 2.468,72 0,00 0,00 0,00 0,00 0,00 2.078,00 16.890,33 2.150,92 2.612,53 0,00 0,00 4.763,45 12.126,88 30/04/2023
263 637200 ANDRE FERNANDES DA CUNHA OFICIAL DO MP MORADA NOVA DE MINAS - COMARCA; MORADA NOVA DE MINAS-PJ-UNPJ 7.270,07 727,01 0,00 0,00 0,00 0,00 0,00 2.078,00 10.075,08 982,16 1.059,74 0,00 0,00 2.041,90 8.033,18 30/04/2023
264 651500 ANDRE GONCALVES MARANHAO OFICIAL DO MP ANDRADAS - COMARCA; ANDRADAS-PJ-02PJ 6.097,80 609,78 0,00 0,00 2.235,86 0,00 541,08 7.980,67 17.465,19 858,46 1.354,01 0,00 0,00 2.212,47 15.252,72 30/04/2023
265 521900 ANDRE LUIS GOMES SILVA ANALISTA DO MP FORMIGA - COMARCA; FORMIGA-PJ-02PJ 12.343,61 2.468,72 0,00 0,00 0,00 0,00 0,00 3.978,00 18.790,33 2.150,92 2.059,84 0,00 0,00 4.210,76 14.579,57 30/04/2023
266 304300 ANDRE LUIZ AVELAR ANALISTA DO MP BELO HORIZONTE - COMARCA; DIRETORIA DE REDES E BANCOS DE DADOS 10.341,72 3.102,52 0,00 0,00 0,00 0,00 0,00 2.078,00 15.522,24 1.932,03 2.244,36 0,00 0,00 4.176,39 11.345,85 30/04/2023
267 397400 ANDRE PATARO MYRRHA DE PAULA E SILVA ANALISTA DO MP BELO HORIZONTE - COMARCA; ASSESSORIA JURIDICO-ADMINISTRATIVA 18.720,84 3.744,17 0,00 0,00 0,00 0,00 0,00 3.028,00 25.493,01 3.375,35 4.380,30 0,00 0,00 7.755,65 17.737,36 30/04/2023
268 650100 ANDRE THOME VARGAS OFICIAL DO MP LEOPOLDINA - COMARCA; LEOPOLDINA-PJ-04PJ 6.603,76 660,38 0,00 0,00 0,00 0,00 0,00 2.078,00 9.342,14 944,43 868,56 0,00 0,00 1.812,99 7.529,15 30/04/2023
269 548500 ANDRE VINICIUS CARVALHO MEIRA ANALISTA DO MP JUIZ DE FORA - COMARCA; JUIZ DE FORA-PJ-24PJ 12.343,61 1.234,36 0,00 0,00 0,00 0,00 547,65 8.052,31 22.177,93 982,16 2.469,28 0,00 0,00 3.451,44 18.726,49 30/04/2023
270 297200 ANDRE WILLE ROSARIO ANALISTA DO MP BELO HORIZONTE - COMARCA; ASSESSORIA ESPECIAL DO PGJ 23.070,31 6.921,09 0,00 0,00 0,00 0,00 549,84 8.076,28 38.617,52 4.579,57 6.014,62 0,00 0,00 10.594,19 28.023,33 30/04/2023
271 423600 ANDREA COSTA GUALBERTO ALVES ANALISTA DO MP GOVERNADOR VALADARES - COMARCA; COORD REG PJ DEF EDU DIR CRIANCA ADOL RIODOCE 17.559,01 14.047,21 0,00 0,00 0,00 4.837,94 0,00 2.078,00 38.522,16 4.837,94 7.770,21 0,00 0,00 12.608,15 25.914,01 30/04/2023
272 467300 ANDREA DE CASSIA PENNA ALVERNAZ ANALISTA DO MP PONTE NOVA - COMARCA; PONTE NOVA-PJ-01PJ 12.343,61 2.468,72 0,00 0,00 0,00 0,00 0,00 2.078,00 16.890,33 2.150,92 2.560,39 0,00 0,00 4.711,31 12.179,02 30/04/2023
273 308000 ANDREA DE CASSIA SANTOS OLIVEIRA ANALISTA DO MP BELO HORIZONTE - COMARCA; COORD DE GABINETE DO PGJ 22.191,68 6.657,50 0,00 0,00 0,00 0,00 0,00 2.078,00 30.927,18 4.396,82 5.802,90 0,00 0,00 10.199,72 20.727,46 30/04/2023
274 349500 ANDREA DE OLIVEIRA LOIOLA REGIS OFICIAL DO MP IGUATAMA - COMARCA; IGUATAMA-PJ-UNPJ 12.343,61 3.703,08 0,00 0,00 0,00 0,00 0,00 2.078,00 18.124,69 2.348,42 2.793,39 0,00 0,00 5.141,81 12.982,88 30/04/2023
275 287900 ANDREA FERNANDES PENA MARTINS OFICIAL DO MP MONTES CLAROS - COMARCA; MONTES CLAROS-PJ-09PJ 12.343,61 3.703,08 0,00 0,00 0,00 0,00 0,00 2.078,00 18.124,69 2.348,42 2.793,39 0,00 0,00 5.141,81 12.982,88 30/04/2023
276 300800 ANDREA FERREIRA ANALISTA DO MP LAVRAS - COMARCA; LAVRAS-PJ-04PJ 21.346,53 6.403,96 0,00 0,00 0,00 0,00 508,76 7.628,10 35.887,35 4.221,03 5.601,24 0,00 0,00 9.822,27 26.065,08 30/04/2023
277 395100 ANDREA LANNA MENDES NOVAIS ANALISTA DO MP BELO HORIZONTE - COMARCA; PROMOT ESTADUAL DE DEF PATRI CULT E TUR DE MG 18.720,84 5.616,25 0,00 0,00 0,00 0,00 1.872,08 2.078,00 28.287,17 3.974,42 5.193,06 0,00 0,00 9.167,48 19.119,69 30/04/2023
278 67300 ANDREA LEAO MAGALHAES ROQUE ASSESSOR ADMINISTRATIVO IV BELO HORIZONTE - COMARCA; GRUPO ATUACAO ESP COMB CRIMES CIBER 0,00 11.590,57 14.488,22 0,00 0,00 0,00 0,00 2.078,00 28.156,79 877,22 6.421,43 0,00 0,00 7.298,65 20.858,14 30/04/2023
279 335700 ANDREA LOPES PEREIRA ANALISTA DO MP GOVERNADOR VALADARES - COMARCA; COORD REG DO MA DA BACIA DO RIO DOCE 22.191,68 6.657,50 0,00 0,00 0,00 0,00 0,00 2.078,00 30.927,18 4.396,82 5.855,04 0,00 0,00 10.251,86 20.675,32 30/04/2023
280 419000 ANDREIA BARBOSA DE ALMEIDA ANALISTA DO MP BELO HORIZONTE - COMARCA; CENT ESTAD COOPERACAO TECNICO-JURIDICA 17.559,01 3.511,80 0,00 0,00 0,00 0,00 309,04 5.449,33 26.829,18 3.152,28 4.058,24 0,00 0,00 7.210,52 19.618,66 30/04/2023
281 281501 ANDREIA CARLA COSTA ANALISTA DO MP UBÁ - COMARCA; UBA-PJ-02PJ 18.130,77 3.626,15 0,00 0,00 0,00 0,00 319,10 5.559,11 27.635,13 3.262,06 4.216,73 0,00 0,00 7.478,79 20.156,34 30/04/2023
282 477100 ANDREIA DE ALMEIDA RIBEIRO MELO OFICIAL DO MP CONTAGEM - COMARCA; CONTAGEM-PJ-SECRETARIA 10.516,49 3.154,95 0,00 0,00 0,00 0,00 0,00 2.078,00 15.749,44 1.968,38 2.348,98 0,00 0,00 4.317,36 11.432,08 30/04/2023
283 619000 ANDREIA FERREIRA NORONHA COORDENADOR II BELO HORIZONTE - COMARCA; DIRETORIA DE SERVICO CRIMINAL 20.533,67 2.053,37 0,00 0,00 0,00 0,00 331,28 5.691,93 28.610,25 1.102,13 5.038,99 0,00 0,00 6.141,12 22.469,13 30/04/2023
284 424000 ANDREIA LUCIA COUTO ANALISTA DO MP BELO HORIZONTE - COMARCA; BH-18PJ DIREITOS HUMANOS-SECRETARIA 18.130,77 3.626,15 0,00 0,00 0,00 0,00 0,00 2.078,00 23.834,92 3.262,06 4.216,73 0,00 0,00 7.478,79 16.356,13 30/04/2023
285 370100 ANDREIA MARIA SILVA PINTO OFICIAL DO MP CORONEL FABRICIANO - COMARCA; CORONEL FABRICIANO-PJ-01PJ 12.343,61 3.703,08 0,00 0,00 0,00 0,00 0,00 3.028,00 19.074,69 982,16 3.097,26 0,00 0,00 4.079,42 14.995,27 30/04/2023
286 382100 ANDREIA NATALI PEREIRA DE OLIVEIRA OFICIAL DO MP PRADOS - COMARCA; PRADOS-PJ-UNPJ 12.343,61 3.703,08 0,00 0,00 0,00 0,00 0,00 2.078,00 18.124,69 2.348,42 2.897,66 0,00 0,00 5.246,08 12.878,61 30/04/2023
287 275200 ANDREIA RIBEIRO FREITAS OFICIAL DO MP VIÇOSA - COMARCA; VICOSA-PJ-04PJ 13.160,57 5.264,23 0,00 0,00 0,00 0,00 0,00 2.078,00 20.502,80 2.728,92 3.394,87 0,00 0,00 6.123,79 14.379,01 30/04/2023
288 352200 ANDREIA XAVIER PEREIRA OFICIAL DO MP CLÁUDIO - COMARCA; CLAUDIO-PJ-UNPJ 12.343,61 3.703,08 0,00 0,00 0,00 0,00 0,00 3.503,00 19.549,69 2.348,42 2.897,66 0,00 0,00 5.246,08 14.303,61 30/04/2023
289 638500 ANDRESA ALVES FEITOSA CASAGRANDE ANALISTA DO MP LAVRAS - COMARCA; COORD REG DO MA DA BACIA DO RIO GRANDE 11.212,54 1.121,25 0,00 0,00 0,00 0,00 0,00 2.078,00 14.411,79 982,16 2.252,34 0,00 0,00 3.234,50 11.177,29 30/04/2023
290 383700 ANDRESSA EDUARDO SOUZA ANALISTA DO MP OURO BRANCO - COMARCA; OURO BRANCO-PJ-SECRETARIA 18.720,84 5.616,25 0,00 0,00 0,00 0,00 0,00 2.838,00 27.175,09 3.674,88 4.812,75 0,00 0,00 8.487,63 18.687,46 30/04/2023
291 678400 ANDRESSA LUIZA SILVA LOPES ASSESSOR PROMOTOR JUSTICA CARMO DO PARANAÍBA - COMARCA; CARMO DO PARANAIBA-PJ-02PJ 0,00 0,00 8.810,89 0,00 0,00 0,00 0,00 2.078,00 10.888,89 877,22 1.724,90 0,00 0,00 2.602,12 8.286,77 30/04/2023
292 426200 ANDRESSA MENDES CASAL OFICIAL DO MP BELO HORIZONTE - COMARCA; DIR ESTRUTURA E PROCESSOS ORGANIZACIONAIS 9.699,77 1.939,95 0,00 0,00 0,00 0,00 0,00 3.028,00 14.667,72 1.643,30 1.827,52 0,00 0,00 3.470,82 11.196,90 30/04/2023
293 390100 ANDRESSA RIBEIRO PUCCI OFICIAL DO MP UBERABA - COMARCA; UBERABA-PJ-14PJ 9.393,95 1.878,79 0,00 0,00 0,00 0,00 0,00 2.078,00 13.350,74 1.584,59 1.794,88 0,00 0,00 3.379,47 9.971,27 30/04/2023
294 462500 ANDREZA APARECIDA COSTA E SILVA ANALISTA DO MP CONSELHEIRO LAFAIETE - COMARCA; CONSELHEIRO LAFAIETE-PJ-02PJ 12.343,61 2.468,72 0,00 0,00 0,00 0,00 0,00 3.978,00 18.790,33 982,16 2.783,28 0,00 0,00 3.765,44 15.024,89 30/04/2023
295 677700 ANDREZA DE LOURDES FERREIRA DE PAIVA ASSESSOR PROMOTOR JUSTICA ABRE CAMPO - COMARCA; ABRE CAMPO-PJ-01PJ 0,00 0,00 8.810,89 0,00 0,00 0,00 0,00 2.078,00 10.888,89 877,22 1.724,90 0,00 0,00 2.602,12 8.286,77 30/04/2023
296 537800 ANDREZZA LUZIA DE OLIVEIRA ALVES ANALISTA DO MP PATOS DE MINAS - COMARCA; COORD REG PJ DEF EDU DIR CRI ADO AL PAR NOROE 12.343,61 2.468,72 0,00 0,00 0,00 0,00 0,00 2.078,00 16.890,33 2.150,92 2.560,39 0,00 0,00 4.711,31 12.179,02 30/04/2023
297 491600 ANE PATRICIA RIBEIRO DUARTE ANALISTA DO MP SETE LAGOAS - COMARCA; SETE LAGOAS-PJ-11PJ 12.343,61 2.468,72 0,00 0,00 0,00 0,00 0,00 2.078,00 16.890,33 2.150,92 2.560,39 0,00 0,00 4.711,31 12.179,02 30/04/2023
298 465800 ANELISE GAMA ASSESSOR ADMINISTRATIVO III BELO HORIZONTE - COMARCA; BH-18PJ VIOLENCIA DOMESTICA-SECRETARIA 0,00 0,00 10.858,90 0,00 0,00 0,00 0,00 2.078,00 12.936,90 877,22 2.288,10 0,00 0,00 3.165,32 9.771,58 30/04/2023
299 535200 ANELIZE FERNANDA ALVES VILARINHO OFICIAL DO MP CAPINÓPOLIS - COMARCA; CAPINOPOLIS-PJ-UNPJ 7.506,70 1.501,34 0,00 0,00 0,00 0,00 0,00 3.028,00 12.036,04 1.222,23 1.271,74 0,00 0,00 2.493,97 9.542,07 30/04/2023
300 197200 ANGELA COELHO SALDANHA OFICIAL DO MP PARÁ DE MINAS - COMARCA; PARA DE MINAS-PJ-03PJ 21.346,53 8.538,61 0,00 0,00 0,00 0,00 0,00 2.078,00 31.963,14 4.562,57 6.094,35 0,00 0,00 10.656,92 21.306,22 30/04/2023
301 307400 ANGELA CRISTINA GONCALVES MUNIZ ANALISTA DO MP UBERLÂNDIA - COMARCA; UBERLANDIA-PJ-SEC FAMILIA 23.070,31 9.228,12 0,00 0,00 0,00 0,00 0,00 2.078,00 34.376,43 4.948,70 6.547,54 0,00 0,00 11.496,24 22.880,19 30/04/2023
302 191800 ANGELA MARIA DE OLIVEIRA OFICIAL DO MP GUARANÉSIA - COMARCA; GUARANESIA-PJ-SECRETARIA 21.346,53 17.077,22 0,00 0,00 0,00 5.795,34 477,24 7.284,24 51.980,57 5.795,34 9.467,88 833,79 0,00 16.097,01 35.883,56 30/04/2023
303 497400 ANGELA MARIA HENRIQUES ANALISTA DO MP BELO HORIZONTE - COMARCA; COORD REG BACIAS RIO VELHAS E PARAOPEBA 12.343,61 2.468,72 0,00 0,00 0,00 0,00 0,00 2.078,00 16.890,33 2.150,92 2.612,53 0,00 0,00 4.763,45 12.126,88 30/04/2023
304 260700 ANGELICA CRISTINA AZEVEDO MOREIRA MOUCO OFICIAL DO MP UBÁ - COMARCA; UBA-PJ-05PJ 17.559,01 7.023,60 0,00 0,00 0,00 0,00 450,68 6.994,52 32.027,81 3.714,17 4.869,46 0,00 0,00 8.583,63 23.444,18 30/04/2023
305 708300 ANGELICA NUNES VIEIRA DA SILVA ASSESSOR PROMOTOR JUSTICA IBIRITÉ - COMARCA; IBIRITE-PJ-02PJ 0,00 0,00 8.810,89 0,00 0,00 0,00 0,00 2.078,00 10.888,89 877,22 1.724,90 0,00 0,00 2.602,12 8.286,77 30/04/2023
306 334600 ANGELICA PANISSA DE FREITAS GALLATI OFICIAL DO MP GUAXUPÉ - COMARCA; GUAXUPE-PJ-02PJ 12.343,61 4.937,44 0,00 0,00 0,00 0,00 0,00 3.028,00 20.309,05 2.545,92 3.130,66 0,00 0,00 5.676,58 14.632,47 30/04/2023
307 521100 ANGELICA SALES MOREIRA OFICIAL DO MP BELO HORIZONTE - COMARCA; BH-02PJ FAMILIA-SECRETARIA 9.699,77 1.939,95 0,00 0,00 0,00 0,00 0,00 2.078,00 13.717,72 1.643,30 1.879,66 0,00 0,00 3.522,96 10.194,76 30/04/2023
308 466500 ANGELLO MARQUES AGRELLI ANALISTA DO MP MAR DE ESPANHA - COMARCA; MAR DE ESPANHA-PJ-UNPJ 12.343,61 2.468,72 0,00 0,00 4.937,44 0,00 0,00 2.078,00 21.827,77 2.150,92 3.970,32 0,00 0,00 6.121,24 15.706,53 30/04/2023
309 363300 ANGELO VERDOLIN HENRIQUES ANALISTA DO MP SETE LAGOAS - COMARCA; SETE LAGOAS-PJ-04PJ 21.346,53 8.538,61 0,00 0,00 0,00 0,00 547,89 8.055,03 38.488,06 4.562,57 6.094,35 0,00 0,00 10.656,92 27.831,14 30/04/2023
310 250900 ANISIO APARECIDO SANTOS OFICIAL DO MP BETIM - COMARCA; BETIM - SECRETARIA DAS PJS CRIMINAIS 7.506,70 3.002,68 0,00 0,00 0,00 0,00 0,00 2.078,00 12.587,38 1.462,45 949,26 0,00 0,00 2.411,71 10.175,67 30/04/2023
311 698100 ANNA CAROLINA POLICARIO BERTOLIN ASSESSOR PROCURADOR JUSTICA BELO HORIZONTE - COMARCA; PROC. JUSTICA DIR. DIFUSOS E COLETIVOS-SEC 0,00 0,00 8.810,89 0,00 0,00 0,00 0,00 2.078,00 10.888,89 877,22 1.724,90 0,00 0,00 2.602,12 8.286,77 30/04/2023
312 253400 ANNA FLAVIA LEHMAN ANALISTA DO MP BELO HORIZONTE - COMARCA; SUPRIN DE PLANEJAMENTO E COORDENACAO 23.070,31 9.228,12 8.404,02 0,00 0,00 0,00 413,49 6.588,79 47.704,73 4.948,70 7.950,57 3.112,49 0,00 16.011,76 31.692,97 30/04/2023
313 688800 ANNA LUIZA MATTOS DUARTE ASSESSOR PROCURADOR JUSTICA BELO HORIZONTE - COMARCA; GABINETE DE PROCURADOR DE JUSTICA - SALA 311 0,00 0,00 8.810,89 0,00 0,00 0,00 0,00 2.078,00 10.888,89 877,22 1.724,90 0,00 0,00 2.602,12 8.286,77 30/04/2023
314 447600 ANNGELUCE ALCANTARA DE CAMPOS OFICIAL DO MP DIVINÓPOLIS - COMARCA; DIVINOPOLIS-PJ-07PJ 10.341,72 3.102,52 0,00 0,00 0,00 0,00 0,00 2.078,00 15.522,24 1.932,03 2.296,50 0,00 0,00 4.228,53 11.293,71 30/04/2023
315 119600 ANSELMO BORGES PARREIRAS OFICIAL DO MP BONFIM - COMARCA; BONFIM-PJ-UNPJ 10.858,90 9.773,01 0,00 0,00 0,00 3.082,05 0,00 2.078,00 25.791,96 3.082,05 4.752,28 0,00 0,00 7.834,33 17.957,63 30/04/2023
316 630300 ANTONIA GOMES RAMALHO OFICIAL DO MP NOVO CRUZEIRO - COMARCA; NOVO CRUZEIRO-PJ-UNPJ 7.506,70 750,67 0,00 0,00 0,00 0,00 0,00 3.978,00 12.235,37 1.102,13 1.098,33 0,00 0,00 2.200,46 10.034,91 30/04/2023
317 401600 ANTONIO CARLOS GUEDES AROUCA ANALISTA DO MP BELO HORIZONTE - COMARCA; ASSESSORIA JURIDICO-ADMINISTRATIVA 16.469,17 3.293,83 0,00 0,00 0,00 0,00 0,00 2.078,00 21.841,00 2.943,03 3.756,13 0,00 0,00 6.699,16 15.141,84 30/04/2023
318 333900 ANTONIO GONCALVES DE SOUZA FILHO OFICIAL DO MP BELO HORIZONTE - COMARCA; DIRETORIA DE CONTABILIDADE 12.343,61 3.703,08 0,00 0,00 0,00 0,00 0,00 2.078,00 18.124,69 2.348,42 2.897,66 0,00 0,00 5.246,08 12.878,61 30/04/2023
319 176100 ANTONIO MARCELO CAMPOS CAMPANELLA OFICIAL DO MP BELO HORIZONTE - COMARCA; COORD DE GABINETE DO PGJ 21.346,53 10.673,27 0,00 0,00 0,00 0,00 469,62 7.201,17 39.690,59 4.904,12 6.587,45 0,00 0,00 11.491,57 28.199,02 30/04/2023
320 321001 ANTONIO OLINTO VIEIRA MACHADO ANALISTA DO MP BELO HORIZONTE - COMARCA; CENTRAL DE APOIO TECN-SETOR DE MEIO AMBIENTE 18.720,84 5.616,25 0,00 0,00 0,00 3.974,42 2.481,46 8.725,77 39.518,74 3.974,42 6.233,89 0,00 0,00 10.208,31 29.310,43 30/04/2023
321 356200 ANTONIO PAULA DA SILVA OFICIAL DO MP JUIZ DE FORA - COMARCA; JUIZ DE FORA-PJ-20PJ 11.954,43 4.781,77 0,00 0,00 0,00 0,00 0,00 2.078,00 18.814,20 2.458,74 3.056,94 0,00 0,00 5.515,68 13.298,52 30/04/2023
322 119900 ANTONIO RODRIGUES DE PINHO OFICIAL DO MP GUANHÃES - COMARCA; GUANHAES-PJ-01PJ 20.533,67 16.426,94 0,00 0,00 0,00 0,00 542,09 7.991,70 45.494,40 5.694,65 7.676,64 0,00 0,00 13.371,29 32.123,11 30/04/2023
323 373300 ANTONIO SERGIO ANANIAS OFICIAL DO MP SÃO JOÃO NEPOMUCENO - COMARCA; SAO JOAO NEPOMUCENO-PJ-01PJ 11.212,54 3.363,76 0,00 0,00 0,00 0,00 0,00 2.078,00 16.654,30 982,16 2.816,89 0,00 0,00 3.799,05 12.855,25 30/04/2023
324 608100 ANTONIO SIDINEY VIEIRA LEMOS ANALISTA DO MP PIRAPORA - COMARCA; PIRAPORA-PJ-01PJ 11.577,56 5.788,78 0,00 0,00 0,00 0,00 0,00 3.028,00 20.394,34 2.559,56 3.150,37 0,00 0,00 5.709,93 14.684,41 30/04/2023
325 374700 ANTONIO SILVA NETO OFICIAL DO MP BELO HORIZONTE - COMARCA; GAECO - SECRETARIA 12.343,61 3.703,08 0,00 0,00 0,00 0,00 0,00 3.028,00 19.074,69 2.348,42 2.897,66 0,00 0,00 5.246,08 13.828,61 30/04/2023
326 636700 ANTONIUS VITORIANO FERNANDES OFICIAL DO MP BELO HORIZONTE - COMARCA; ASSESSORIA JURIDICA DO PROCON-MG 6.603,76 660,38 0,00 0,00 0,00 0,00 0,00 2.078,00 9.342,14 944,43 868,56 0,00 0,00 1.812,99 7.529,15 30/04/2023
327 413200 ANY PEREIRA SILVA ANALISTA DO MP TRÊS PONTAS - COMARCA; TRES PONTAS-PJ-01PJ 17.559,01 3.511,80 0,00 0,00 0,00 0,00 309,04 5.449,33 26.829,18 3.152,28 4.058,24 0,00 0,00 7.210,52 19.618,66 30/04/2023
328 151401 APARECIDA DE FATIMA MENDES DE ALMEIDA ASSESSOR ADMINISTRATIVO II JUIZ DE FORA - COMARCA; JUIZ DE FORA-PJ-SECRETARIA 0,00 0,00 7.506,70 0,00 0,00 0,00 0,00 2.078,00 9.584,70 877,22 1.366,25 0,00 0,00 2.243,47 7.341,23 30/04/2023
329 329300 APARECIDA MARIA MELO DE ASSIS OFICIAL DO MP BELO HORIZONTE - COMARCA; BH-18PJ DIREITOS HUMANOS-SECRETARIA 12.343,61 3.703,08 0,00 0,00 0,00 0,00 0,00 2.078,00 18.124,69 2.348,42 2.897,66 0,00 0,00 5.246,08 12.878,61 30/04/2023
330 653000 APARECIDA ROSA DE LIMA ASSESSOR ADMINISTRATIVO III BELO HORIZONTE - COMARCA; SECRETARIA PROCESSOS DISCIPES ADMINISTRATIVOS 0,00 0,00 10.858,90 0,00 0,00 0,00 0,00 2.078,00 12.936,90 877,22 2.288,10 0,00 0,00 3.165,32 9.771,58 30/04/2023
331 354500 APARECIDA VIEIRA DE CARVALHO OFICIAL DO MP BELO HORIZONTE - COMARCA; DIVISÃO DE EDUCAÇÃO PARA O CONSUMO 10.516,49 3.154,95 0,00 0,00 0,00 0,00 0,00 2.078,00 15.749,44 1.968,38 2.348,98 0,00 0,00 4.317,36 11.432,08 30/04/2023
332 551000 ARACELES BICALHO FELIX ANALISTA DO MP MANHUAÇU - COMARCA; MANHUACU-PJ-SECRETARIA 12.343,61 1.234,36 0,00 0,00 0,00 0,00 0,00 3.978,00 17.555,97 1.953,42 2.327,39 0,00 0,00 4.280,81 13.275,16 30/04/2023
333 286200 ARACELI MEDRADO DOS SANTOS LIMA OFICIAL DO MP PARACATU - COMARCA; PARACATU-PJ-03PJ 7.506,70 2.252,01 0,00 0,00 0,00 0,00 0,00 3.028,00 12.786,71 1.342,34 1.445,14 0,00 0,00 2.787,48 9.999,23 30/04/2023
334 112200 ARAQUEM AUGUSTO DE MATOS AGENTE DO MP BELO HORIZONTE - COMARCA; BH-23PJ CIVEL-SEC EXP CIVEIS 13.160,57 11.844,52 0,00 0,00 0,00 3.781,76 0,00 2.078,00 30.864,85 3.781,76 5.902,77 0,00 0,00 9.684,53 21.180,32 30/04/2023
335 280600 ARDUINO FRATTEZI ANALISTA DO MP BELO HORIZONTE - COMARCA; CENTRAL DE APOIO TECNICO-SETOR CONTABIL 23.070,31 6.921,09 0,00 0,00 0,00 0,00 549,84 8.076,28 38.617,52 4.579,57 6.118,89 0,00 0,00 10.698,46 27.919,06 30/04/2023
336 520201 ARIANE DE FATIMA CARVALHO ALMEIDA RODRIGUES ANALISTA DO MP VESPASIANO - COMARCA; VESPASIANO-PJ-SECRETARIA 11.577,56 1.157,76 0,00 0,00 0,00 0,00 0,00 3.503,00 16.238,32 1.818,60 1.976,33 0,00 0,00 3.794,93 12.443,39 30/04/2023
337 537600 ARIELA FREIRE MONTIJO ANALISTA DO MP ARCOS - COMARCA; ARCOS-PJ-01PJ 12.343,61 2.468,72 0,00 0,00 0,00 0,00 0,00 2.078,00 16.890,33 2.150,92 2.508,25 0,00 0,00 4.659,17 12.231,16 30/04/2023
338 182000 ARILSON ALEXANDRE MARTINS MAGALHAES OFICIAL DO MP JOÃO MONLEVADE - COMARCA; JOAO MONLEVADE-PJ-01PJ 20.533,67 10.266,84 0,00 0,00 0,00 0,00 451,74 10.806,08 42.058,33 4.709,03 6.045,11 0,00 0,00 10.754,14 31.304,19 30/04/2023
339 511000 ARISLANE CAROLINA DA SILVA ANALISTA DO MP MONTE CARMELO - COMARCA; MONTE CARMELO-PJ-02PJ 12.343,61 2.468,72 0,00 0,00 0,00 0,00 0,00 3.408,00 18.220,33 2.150,92 2.612,53 0,00 0,00 4.763,45 13.456,88 30/04/2023
340 170000 ARLEY BRITES DA SILVA ASSESSOR ADMINISTRATIVO II BELO HORIZONTE - COMARCA; BH-14PJ DEFESA CONSUMIDOR-SECRETARIA 0,00 3.002,68 7.506,70 0,00 0,00 0,00 0,00 2.078,00 12.587,38 877,22 1.487,70 0,00 0,00 2.364,92 10.222,46 30/04/2023
341 120400 ARLINDO CASSIO DA CRUZ OFICIAL DO MP SÃO GONÇALO DO SAPUCAÍ - COMARCA; SAO GONCALO DO SAPUCAI-PJ-01PJ 23.070,31 20.763,28 0,00 0,00 0,00 5.795,34 477,24 7.284,23 57.390,40 5.795,34 9.363,60 6.243,63 0,00 21.402,57 35.987,83 30/04/2023
342 243700 ARLINDO MARCIO LACERDA OFICIAL DO MP CONTAGEM - COMARCA; CONTAGEM-PJ-SECRETARIA 17.559,01 8.779,51 0,00 0,00 0,00 0,00 1.771,66 2.078,00 30.188,18 3.995,11 5.762,28 0,00 0,00 9.757,39 20.430,79 30/04/2023
343 392100 ARNALDO DE ANDRADE OFICIAL DO MP DIVINÓPOLIS - COMARCA; DIVINOPOLIS-PJ-02PJ 12.343,61 3.703,08 0,00 0,00 0,00 0,00 1.771,66 2.078,00 19.896,35 2.348,42 3.332,73 0,00 0,00 5.681,15 14.215,20 30/04/2023
344 642400 ARTANE INARDE DE SIQUEIRA DAMASCENO ANALISTA DO MP BELO HORIZONTE - COMARCA; SECRETARIA DE ASSUNTOS INTERNACIONAIS 10.015,59 1.001,56 0,00 0,00 0,00 0,00 0,00 2.078,00 13.095,15 982,16 1.817,88 0,00 0,00 2.800,04 10.295,11 30/04/2023
345 733000 ARTHUR BRANDAO ALBUQUERQUE ASSESSOR ADMINISTRATIVO II BELO HORIZONTE - COMARCA; DIRETORIA DE PAGAMENTO DE PESSOAL-DPAG 0,00 0,00 7.331,10 0,00 0,00 0,00 0,00 2.078,00 9.409,10 877,22 1.317,96 0,00 0,00 2.195,18 7.213,92 30/04/2023
346 712100 ARTUR FONTE BOA TEOFILO ASSESSOR ADMINISTRATIVO I BELO HORIZONTE - COMARCA; DIRET DE ESTAGIOS E CONVENIOS ACADEMICOS 0,00 0,00 4.872,71 0,00 0,00 0,00 0,00 2.078,00 6.950,71 718,35 685,59 0,00 0,00 1.403,94 5.546,77 30/04/2023
347 302100 AUGUSTO ROUSSEAU DE CASTRO ANALISTA DO MP CATAGUASES - COMARCA; CATAGUASES-PJ-02PJ 23.070,31 6.921,09 0,00 0,00 0,00 0,00 549,84 8.076,28 38.617,52 4.579,57 6.118,89 0,00 0,00 10.698,46 27.919,06 30/04/2023
348 540200 AUREA AVELAR BITTENCOURT OFICIAL DO MP BELO HORIZONTE - COMARCA; GRUPO ESP PROM JUST DEF PROB ADM PAT PUB 7.506,70 1.501,34 0,00 0,00 0,00 0,00 778,19 2.378,27 12.164,50 982,16 1.445,62 0,00 0,00 2.427,78 9.736,72 30/04/2023
349 633501 AUREA GONTIJO BIRCHAL ASSESSOR DE GABINETE I BELO HORIZONTE - COMARCA; PROCURADOR-GERAL DE JUSTIÇA 0,00 0,00 18.130,77 0,00 6.043,59 0,00 531,84 7.879,85 32.586,05 877,22 5.949,85 0,00 0,00 6.827,07 25.758,98 30/04/2023
350 734400 AUREA MARIA MILWARD PORTUGAL FLAMINI SANTOS ASSESSOR PROMOTOR JUSTICA INHAPIM - COMARCA; INHAPIM-PJ-02PJ 0,00 0,00 8.810,89 0,00 0,00 0,00 293,70 2.724,18 11.828,77 877,22 1.824,42 0,00 0,00 2.701,64 9.127,13 30/04/2023
351 183200 AURELIANO MAGELA DE REZENDE OFICIAL DO MP BELO HORIZONTE - COMARCA; COORD DE GABINETE DO PGJ 20.533,67 8.213,47 6.160,10 0,00 0,00 0,00 511,97 7.663,16 43.082,37 4.380,49 7.525,50 0,00 0,00 11.905,99 31.176,38 30/04/2023
352 629400 AYESKA DA COSTA VAL MOURA DABIEN OFICIAL DO MP BELO HORIZONTE - COMARCA; BH-09PJ AUDITORIA MILITAR-SECRETARIA 6.818,83 681,88 0,00 0,00 0,00 0,00 0,00 2.078,00 9.578,71 981,10 923,53 0,00 0,00 1.904,63 7.674,08 30/04/2023
353 707400 AYMEE JOHANSSENN TYNEE CORREIA ALVES ASSESSOR PROMOTOR JUSTICA NOVA LIMA - COMARCA; NOVA LIMA-PJ-01PJ 0,00 0,00 8.810,89 0,00 0,00 0,00 0,00 2.078,00 10.888,89 877,22 1.724,90 0,00 0,00 2.602,12 8.286,77 30/04/2023
354 701600 BARBARA CHAVES OLIVEIRA ASSESSOR PROCURADOR JUSTICA BELO HORIZONTE - COMARCA; PROC. JUSTICA DIR. DIFUSOS E COLETIVOS-SEC 0,00 0,00 8.810,89 0,00 0,00 0,00 0,00 2.078,00 10.888,89 877,22 1.724,90 0,00 0,00 2.602,12 8.286,77 30/04/2023
355 691900 BARBARA COUTINHO REIS ASSESSOR PROCURADOR JUSTICA BELO HORIZONTE - COMARCA; GABINETE DE PROCURADOR DE JUSTIÇA - SALA 910 0,00 0,00 8.810,89 0,00 0,00 0,00 0,00 2.078,00 10.888,89 877,22 1.724,90 0,00 0,00 2.602,12 8.286,77 30/04/2023
356 692200 BARBARA CRISTINA MENDES BANDEIRA DE MELO DUTRA ASSESSOR PROCURADOR JUSTICA BELO HORIZONTE - COMARCA; GABINETE DE PROCURADOR DE JUSTIÇA - SALA 1009 0,00 0,00 8.810,89 0,00 0,00 0,00 0,00 2.078,00 10.888,89 877,22 1.724,90 0,00 0,00 2.602,12 8.286,77 30/04/2023
357 723400 BARBARA CRISTINA TAVARES CARNEIRO ASSESSOR PROCURADOR JUSTICA BELO HORIZONTE - COMARCA; GABINETE DE PROCURADOR DE JUSTIÇA - SALA 502 0,00 0,00 8.810,89 0,00 0,00 0,00 0,00 2.078,00 10.888,89 877,22 1.724,90 0,00 0,00 2.602,12 8.286,77 30/04/2023
358 652800 BARBARA JULIANNE MOREIRA CASTRO ASSESSOR PROCURADOR JUSTICA BELO HORIZONTE - COMARCA; ASSESS TECNICO-JUR JUNTO AS PROC. DE JUST 0,00 0,00 8.810,89 0,00 0,00 0,00 0,00 2.078,00 10.888,89 877,22 1.724,90 0,00 0,00 2.602,12 8.286,77 30/04/2023
359 707700 BARBARA LOUISE PUFF DE OLIVEIRA ASSESSOR PROMOTOR JUSTICA RIBEIRÃO DAS NEVES - COMARCA; RIBEIRAO DAS NEVES-PJ-02PJ 0,00 0,00 8.810,89 0,00 0,00 0,00 0,00 2.078,00 10.888,89 877,22 1.724,90 0,00 0,00 2.602,12 8.286,77 30/04/2023
360 663600 BARBARA REGINA PEREIRA DE PINHO MAGALHAES ASSESSOR PROMOTOR JUSTICA BELO HORIZONTE - COMARCA; CAO-DH CONT EXT ATIV POLIC E AP COMUNIT 0,00 0,00 8.810,89 0,00 0,00 0,00 0,00 2.078,00 10.888,89 877,22 1.724,90 0,00 0,00 2.602,12 8.286,77 30/04/2023
361 692400 BARBARA SOUZA OLIVEIRA ASSESSOR PROMOTOR JUSTICA DIVINO - COMARCA; DIVINO-PJ-UNPJ 0,00 0,00 8.810,89 0,00 0,00 0,00 0,00 2.078,00 10.888,89 877,22 1.724,90 0,00 0,00 2.602,12 8.286,77 30/04/2023
362 546500 BARBARA ZACARONI GOULART OFICIAL DO MP BETIM - COMARCA; BETIM-PJ-08PJ 7.506,70 750,67 0,00 0,00 0,00 0,00 0,00 2.078,00 10.335,37 1.102,13 1.098,33 0,00 0,00 2.200,46 8.134,91 30/04/2023
363 316500 BEATRIZ ABILVIA DA SILVA ANALISTA DO MP GOVERNADOR VALADARES - COMARCA; GOVERNADOR VALADARES-PJ-07PJ 22.191,68 6.657,50 0,00 0,00 0,00 4.396,82 487,61 7.397,36 41.130,97 4.396,82 7.064,16 0,00 0,00 11.460,98 29.669,99 30/04/2023
364 311800 BEATRIZ APARECIDA SOARES GANEM OFICIAL DO MP ITAMBACURI - COMARCA; ITAMBACURI-PJ-02PJ 13.588,97 5.435,59 0,00 0,00 0,00 0,00 69,76 2.838,98 21.933,30 2.824,88 3.429,14 0,00 0,00 6.254,02 15.679,28 30/04/2023
365 266800 BEATRIZ AUGUSTA VILACA GOMES DE HUBER OFICIAL DO MP BELO HORIZONTE - COMARCA; BH-05PJ-JUÍZO SUCESSÕES-SEC 12.343,61 3.703,08 0,00 0,00 0,00 0,00 0,00 2.078,00 18.124,69 2.348,42 2.897,66 0,00 0,00 5.246,08 12.878,61 30/04/2023
366 235200 BEATRIZ BOTELHO BATISTA OFICIAL DO MP MATEUS LEME - COMARCA; MATEUS LEME-PJ-02PJ 12.343,61 4.937,44 0,00 0,00 0,00 0,00 0,00 2.078,00 19.359,05 2.545,92 3.182,80 0,00 0,00 5.728,72 13.630,33 30/04/2023
367 182300 BEATRIZ PAULA SOUSA RAMOS OFICIAL DO MP MARIANA - COMARCA; MARIANA-PJ-01PJ 20.533,67 10.266,84 0,00 0,00 0,00 0,00 451,74 7.006,08 38.258,33 4.709,03 6.305,80 0,00 0,00 11.014,83 27.243,50 30/04/2023
368 507000 BELCHIOR FRANKLIN AMARAL LEITE ANALISTA DO MP BELO HORIZONTE - COMARCA; CAO ORGAOS MPMG DESIG FUNC ELEITORAIS-SEC 13.588,97 2.717,79 0,00 0,00 0,00 0,00 0,00 2.078,00 18.384,76 2.390,03 2.801,33 0,00 0,00 5.191,36 13.193,40 30/04/2023
369 345100 BENITO ELIAS RODRIGUES ANALISTA DO MP BARBACENA - COMARCA; BARBACENA - SECRETARIA DAS PJS CRIMINAIS 21.346,53 6.403,96 0,00 0,00 0,00 0,00 508,76 9.148,10 37.407,35 4.221,03 5.549,10 0,00 0,00 9.770,13 27.637,22 30/04/2023
370 207300 BENITO VIEIRA DOS SANTOS ANALISTA DO MP BELO HORIZONTE - COMARCA; PROC JUST ESP ACOES COMP ORIG CRIMINAL-ASSESS 23.070,31 11.535,16 0,00 0,00 0,00 5.317,82 439,16 6.868,80 47.231,25 5.317,82 7.109,43 0,00 0,00 12.427,25 34.804,00 30/04/2023
371 480200 BERNADETE NUNES DOS SANTOS ANALISTA DO MP GUANHÃES - COMARCA; GUANHAES-PJ-02PJ 12.343,61 4.937,44 0,00 0,00 0,00 0,00 0,00 2.078,00 19.359,05 2.545,92 3.182,80 0,00 0,00 5.728,72 13.630,33 30/04/2023
372 378400 BETANIA FARNESI DE SOUZA E SILVA OFICIAL DO MP CURVELO - COMARCA; CURVELO-PJ-01PJ 12.343,61 4.937,44 0,00 0,00 0,00 0,00 0,00 2.078,00 19.359,05 2.545,92 3.130,66 0,00 0,00 5.676,58 13.682,47 30/04/2023
373 387400 BETANIA MENDONCA DE ASSIS CARVALHO ANALISTA DO MP JUIZ DE FORA - COMARCA; JUIZ DE FORA-PJ-03PJ 18.720,84 5.616,25 0,00 0,00 0,00 0,00 0,00 3.028,00 27.365,09 3.674,88 4.760,61 0,00 0,00 8.435,49 18.929,60 30/04/2023
374 714400 BIANCA DE CASTRO RAMOS ASSESSOR PROMOTOR JUSTICA BETIM - COMARCA; BETIM-PJ-13PJ 0,00 0,00 8.810,89 0,00 0,00 0,00 0,00 2.078,00 10.888,89 877,22 1.724,90 0,00 0,00 2.602,12 8.286,77 30/04/2023
375 450300 BIANCA OLIVEIRA DE ALBUQUERQUE ANALISTA DO MP BELO HORIZONTE - COMARCA; BH-10PJ EXECUÇÃO PENAL-SECRETARIA 12.343,61 2.468,72 0,00 0,00 0,00 0,00 0,00 3.028,00 17.840,33 2.150,92 2.612,53 0,00 0,00 4.763,45 13.076,88 30/04/2023
376 535400 BIANCA SALOTO ROSSI ANALISTA DO MP SANTOS DUMONT - COMARCA; SANTOS DUMONT-PJ-01PJ 12.343,61 2.468,72 0,00 0,00 0,00 0,00 488,81 8.360,44 23.661,58 2.150,92 2.612,53 0,00 0,00 4.763,45 18.898,13 30/04/2023
377 120800 BRAS MARQUES DE SOUZA ANALISTA DO MP BELO HORIZONTE - COMARCA; SUPERINTENDENCIA DE GESTAO ADMINISTRATIVA 29.122,38 26.210,14 0,00 0,00 0,00 5.795,34 477,24 7.284,23 68.889,33 5.795,34 9.363,60 17.742,56 0,00 32.901,50 35.987,83 30/04/2023
378 724400 BRENDA PIMENTEL DE SOUZA VIANA ASSESSOR PROMOTOR JUSTICA MANHUMIRIM - COMARCA; MANHUMIRIM-PJ-01PJ 0,00 0,00 8.810,89 0,00 0,00 0,00 0,00 2.078,00 10.888,89 877,22 1.724,90 0,00 0,00 2.602,12 8.286,77 30/04/2023
379 710500 BRENNO VINICIUS MAGESTE ROSA ASSESSOR PROMOTOR JUSTICA MANHUAÇU - COMARCA; MANHUACU-PJ-02PJ 0,00 0,00 8.810,89 0,00 0,00 0,00 0,00 2.078,00 10.888,89 877,22 1.724,90 0,00 0,00 2.602,12 8.286,77 30/04/2023
380 460900 BRENO CRISTIANO DE SOUZA REZENDE ANALISTA DO MP ITAÚNA - COMARCA; ITAUNA-PJ-02PJ 12.343,61 2.468,72 0,00 0,00 0,00 0,00 0,00 2.078,00 16.890,33 2.150,92 2.612,53 0,00 0,00 4.763,45 12.126,88 30/04/2023
381 239000 BRENO VENANCIO ROMANINI OFICIAL DO MP BELO HORIZONTE - COMARCA; BH-20PJ ORD ECON TRIBUTARIA-SECRETARIA 12.343,61 4.937,44 0,00 0,00 0,00 0,00 0,00 2.078,00 19.359,05 2.545,92 3.182,80 0,00 0,00 5.728,72 13.630,33 30/04/2023
382 722700 BRUNA DE SA FERREIRA LIMA ASSESSOR PROMOTOR JUSTICA MANGA - COMARCA; MANGA-PJ-01PJ 0,00 0,00 8.810,89 0,00 0,00 0,00 0,00 2.078,00 10.888,89 877,22 1.724,90 0,00 0,00 2.602,12 8.286,77 30/04/2023
383 722100 BRUNA HENRIQUE DE SOUZA ASSESSOR PROMOTOR JUSTICA PIRAPETINGA - COMARCA; PIRAPETINGA-PJ-UNPJ 0,00 0,00 8.810,89 0,00 0,00 0,00 0,00 2.078,00 10.888,89 877,22 1.724,90 0,00 0,00 2.602,12 8.286,77 30/04/2023
384 642300 BRUNA IZABELITA DE FATIMA OLIVEIRA COSTA OFICIAL DO MP BELO HORIZONTE - COMARCA; BH-02PJ FAMILIA-SECRETARIA 7.270,07 727,01 0,00 0,00 0,00 0,00 0,00 2.078,00 10.075,08 1.060,48 1.038,21 0,00 0,00 2.098,69 7.976,39 30/04/2023
385 513600 BRUNA KARLA MARTINS CARVALHO ANALISTA DO MP GOVERNADOR VALADARES - COMARCA; GOVERNADOR VALADARES-PJ-14PJ 12.343,61 2.468,72 0,00 0,00 0,00 0,00 0,00 2.078,00 16.890,33 982,16 2.783,28 0,00 0,00 3.765,44 13.124,89 30/04/2023
386 415100 BRUNA MARIA SOARES OLIVEIRA COSTA RAMOS ANALISTA DO MP UBÁ - COMARCA; COORD REG BACIA DO RIO PARAIBA DO SUL 18.130,77 3.626,15 0,00 0,00 0,00 0,00 0,00 2.078,00 23.834,92 982,16 4.549,80 0,00 0,00 5.531,96 18.302,96 30/04/2023
387 692900 BRUNA MENDES COELHO ASSESSOR PROCURADOR JUSTICA BELO HORIZONTE - COMARCA; GABINETE DE PROCURADOR DE JUSTIÇA - SALA 801 0,00 0,00 8.810,89 0,00 0,00 0,00 0,00 2.078,00 10.888,89 877,22 1.724,90 0,00 0,00 2.602,12 8.286,77 30/04/2023
388 470000 BRUNA MORAES ANALISTA DO MP TOMBOS - COMARCA; TOMBOS-PJ-UNPJ 15.949,86 3.189,97 0,00 0,00 0,00 0,00 0,00 2.078,00 21.217,83 2.843,32 3.455,77 0,00 0,00 6.299,09 14.918,74 30/04/2023
389 614700 BRUNA NATTANY DE LIMA OFICIAL DO MP MANTENA - COMARCA; MANTENA-PJ-01PJ 7.506,70 750,67 0,00 0,00 0,00 0,00 0,00 3.028,00 11.285,37 1.102,13 1.098,33 0,00 0,00 2.200,46 9.084,91 30/04/2023
390 729800 BRUNA PAULA AMARAL CEOLIN ASSESSOR PROMOTOR JUSTICA COMARCA - JUATUBA; JUATUBA-PJ-UNPJ 0,00 0,00 8.810,89 0,00 0,00 0,00 0,00 2.078,00 10.888,89 877,22 1.724,90 0,00 0,00 2.602,12 8.286,77 30/04/2023
391 631800 BRUNA RAPOSO JORGE OFICIAL DO MP JUIZ DE FORA - COMARCA; JUIZ DE FORA-PJ-06PJ 7.506,70 750,67 0,00 0,00 0,00 0,00 0,00 2.078,00 10.335,37 1.102,13 1.098,33 0,00 0,00 2.200,46 8.134,91 30/04/2023
392 707800 BRUNA ROMIE WERDINE ASSESSOR PROMOTOR JUSTICA IBIRITÉ - COMARCA; IBIRITE-PJ-06PJ 0,00 0,00 8.810,89 0,00 0,00 0,00 0,00 2.078,00 10.888,89 877,22 1.724,90 0,00 0,00 2.602,12 8.286,77 30/04/2023
393 697400 BRUNA SILVA SANTOS ASSESSOR PROMOTOR JUSTICA TIMÓTEO - COMARCA; TIMOTEO-PJ-04PJ 0,00 0,00 8.810,89 0,00 0,00 0,00 0,00 2.078,00 10.888,89 877,22 1.724,90 0,00 0,00 2.602,12 8.286,77 30/04/2023
394 699300 BRUNA URSINE TIMO ASSESSOR PROCURADOR JUSTICA BELO HORIZONTE - COMARCA; PROC JUST ESP ACOES COMP ORIG CRIMINAL-ASSESS 0,00 0,00 8.810,89 0,00 0,00 0,00 0,00 2.078,00 10.888,89 877,22 1.724,90 0,00 0,00 2.602,12 8.286,77 30/04/2023
395 463800 BRUNO ALVES TEIXEIRA ANALISTA DO MP UBERLÂNDIA - COMARCA; UBERLANDIA-PJ-04PJ 12.343,61 2.468,72 0,00 0,00 0,00 0,00 0,00 2.078,00 16.890,33 2.150,92 2.612,53 0,00 0,00 4.763,45 12.126,88 30/04/2023
396 538500 BRUNO AUGUSTO DA SILVA OFICIAL DO MP SANTA LUZIA - COMARCA; SANTA LUZIA-PJ-03PJ 7.506,70 1.501,34 0,00 0,00 0,00 0,00 0,00 2.078,00 11.086,04 1.222,23 1.271,74 0,00 0,00 2.493,97 8.592,07 30/04/2023
397 318200 BRUNO BARROS DE SOUZA OFICIAL DO MP BELO HORIZONTE - COMARCA; DIRETORIA GESTAO CONTRATOS CONVENIOS 12.343,61 3.703,08 0,00 0,00 0,00 0,00 0,00 2.078,00 18.124,69 982,16 2.651,83 0,00 0,00 3.633,99 14.490,70 30/04/2023
398 427400 BRUNO CESAR RIBEIRO DE PAIVA ANALISTA DO MP BELO HORIZONTE - COMARCA; DIRETORIA DO COLEGIO E DA CAMARA DE PJ 18.130,77 3.626,15 0,00 0,00 0,00 0,00 0,00 2.078,00 23.834,92 3.262,06 4.216,73 0,00 0,00 7.478,79 16.356,13 30/04/2023
399 380900 BRUNO CIRILO ANTUNES OFICIAL DO MP VARGINHA - COMARCA; VARGINHA-PJ-05PJ 11.954,43 3.586,33 0,00 0,00 0,00 0,00 0,00 2.078,00 17.618,76 2.267,47 2.780,79 0,00 0,00 5.048,26 12.570,50 30/04/2023
400 329000 BRUNO DE MELO REIS ANALISTA DO MP PATROCÍNIO - COMARCA; PATROCINIO-PJ-02PJ 22.191,68 8.876,67 0,00 0,00 0,00 0,00 455,67 8.948,94 40.472,96 4.751,88 6.263,39 0,00 0,00 11.015,27 29.457,69 30/04/2023
401 697800 BRUNO GAZZOLA BEZERRA FALCAO ASSESSOR PROCURADOR JUSTICA BELO HORIZONTE - COMARCA; PROCURADOR-GERAL ADJUNTO JURIDICO- GABINETE 0,00 0,00 8.810,89 0,00 0,00 0,00 0,00 2.078,00 10.888,89 877,22 1.724,90 0,00 0,00 2.602,12 8.286,77 30/04/2023
402 378300 BRUNO HERDY LOPES DE OLIVEIRA ANALISTA DO MP GOVERNADOR VALADARES - COMARCA; GOVERNADOR VALADARES-PJ-03PJ 18.720,84 5.616,25 0,00 0,00 0,00 0,00 446,18 6.945,42 31.728,69 3.674,88 4.812,75 0,00 0,00 8.487,63 23.241,06 30/04/2023
403 529700 BRUNO JOSE BUENO DIAS OFICIAL DO MP SÃO SEBASTIÃO DO PARAÍSO - COMARCA; SAO SEBASTIAO DO PARAISO-PJ-02PJ 7.506,70 1.501,34 0,00 0,00 0,00 0,00 0,00 2.078,00 11.086,04 1.222,23 1.219,60 0,00 0,00 2.441,83 8.644,21 30/04/2023
404 691600 BRUNO JOSE RIBEIRO ASSESSOR PROMOTOR JUSTICA CLÁUDIO - COMARCA; CLAUDIO-PJ-UNPJ 0,00 0,00 8.810,89 0,00 0,00 0,00 0,00 2.078,00 10.888,89 877,22 1.724,90 0,00 0,00 2.602,12 8.286,77 30/04/2023
405 350100 BRUNO LAUD SERRANO DOS REIS OFICIAL DO MP UBÁ - COMARCA; UBA-PJ-02PJ 12.343,61 4.937,44 0,00 0,00 0,00 0,00 0,00 2.078,00 19.359,05 2.545,92 3.130,66 0,00 0,00 5.676,58 13.682,47 30/04/2023
406 728900 BRUNO LIMA PITANGA ASSESSOR PROMOTOR JUSTICA BELO HORIZONTE - COMARCA; NUCLEO DA EXECUCAO PENAL 0,00 0,00 8.810,89 0,00 0,00 0,00 0,00 2.078,00 10.888,89 877,22 1.724,90 0,00 0,00 2.602,12 8.286,77 30/04/2023
407 373800 BRUNO MARTINO DE ALBUQUERQUE ANALISTA DO MP PONTE NOVA - COMARCA; PONTE NOVA-PJ-03PJ 18.720,84 5.616,25 0,00 0,00 0,00 0,00 0,00 2.078,00 26.415,09 3.674,88 4.708,47 0,00 0,00 8.383,35 18.031,74 30/04/2023
408 732900 BRUNO NOGUEIRA GUIMARAES ASSESSOR ADMINISTRATIVO I BELO HORIZONTE - COMARCA; COORD DE INCLUSAO E MOBILIZACAO SOCIAIS 0,00 0,00 4.872,71 0,00 0,00 0,00 0,00 2.078,00 6.950,71 718,35 685,59 0,00 0,00 1.403,94 5.546,77 30/04/2023
409 470400 BRUNO NOVAIS CABRAL ANALISTA DO MP MUTUM - COMARCA; MUTUM-PJ-UNPJ 12.343,61 2.468,72 0,00 0,00 0,00 0,00 0,00 2.078,00 16.890,33 2.150,92 2.254,48 0,00 0,00 4.405,40 12.484,93 30/04/2023
410 648600 BRUNO RIBEIRO E MELO COORDENADOR I BELO HORIZONTE - COMARCA; DIR RELACOES INSTITUCIONAIS 0,00 0,00 16.337,11 0,00 0,00 0,00 0,00 2.078,00 18.415,11 877,22 3.794,61 0,00 0,00 4.671,83 13.743,28 30/04/2023
411 369200 BRUNO ROBERTO DIAS DE OLIVEIRA OFICIAL DO MP BELO HORIZONTE - COMARCA; BH-22PJ PES COM DEF E IDOSOS-SECRETARIA 12.343,61 3.703,08 0,00 0,00 0,00 0,00 0,00 2.078,00 18.124,69 982,16 3.097,26 0,00 0,00 4.079,42 14.045,27 30/04/2023
412 547700 BRUNO ROBERTO SOUZA GONCALVES ANALISTA DO MP PARACATU - COMARCA; PARACATU-PJ-03PJ 12.343,61 1.234,36 0,00 0,00 0,00 0,00 0,00 3.028,00 16.605,97 1.953,42 2.327,39 0,00 0,00 4.280,81 12.325,16 30/04/2023
413 546100 BRUNO SA VIEIRA ANALISTA DO MP BARBACENA - COMARCA; BARBACENA-PJ-SECRETARIA 12.343,61 2.468,72 0,00 0,00 0,00 0,00 1.247,94 3.176,12 19.236,39 2.348,42 2.793,39 0,00 0,00 5.141,81 14.094,58 30/04/2023
414 438200 BRUNO SALES PEREIRA ANALISTA DO MP BELO HORIZONTE - COMARCA; CENTRAL DE APOIO TECNICO-SETOR CONTABIL 15.949,86 3.189,97 0,00 0,00 0,00 0,00 70,18 2.843,59 22.053,60 2.843,32 3.560,04 0,00 0,00 6.403,36 15.650,24 30/04/2023
415 537400 BRUNO SANT'ANA CESAR ANALISTA DO MP BELO HORIZONTE - COMARCA; BH-12PJ JUIZO CRIMINAL-GAB 105PJ 12.343,61 2.468,72 0,00 0,00 0,00 0,00 0,00 2.078,00 16.890,33 2.150,92 2.612,53 0,00 0,00 4.763,45 12.126,88 30/04/2023
416 727700 BYANKA DA SILVA MORAIS ASSESSOR PROCURADOR JUSTICA BELO HORIZONTE - COMARCA; GABINETE DE PROCURADOR DE JUSTIÇA - SALA 805 0,00 0,00 8.810,89 0,00 0,00 0,00 0,00 2.078,00 10.888,89 877,22 1.724,90 0,00 0,00 2.602,12 8.286,77 30/04/2023
417 405800 CAIO FERNANDO RODRIGUES DE OLIVEIRA ANALISTA DO MP BELO HORIZONTE - COMARCA; ASSESSORIA JURIDICO-ADMINISTRATIVA 18.130,77 3.626,15 0,00 0,00 0,00 0,00 0,00 2.078,00 23.834,92 982,16 4.706,55 0,00 0,00 5.688,71 18.146,21 30/04/2023
418 530000 CAIO GUEDES DE OLIVEIRA ANALISTA DO MP DIAMANTINA - COMARCA; DIAMANTINA-PJ-02PJ 12.343,61 2.468,72 0,00 0,00 0,00 0,00 0,00 2.078,00 16.890,33 2.150,92 2.560,39 0,00 0,00 4.711,31 12.179,02 30/04/2023
419 491400 CAIO MIRANDA JUNQUEIRA ANALISTA DO MP BUENO BRANDAO - COMARCA; BUENO BRANDAO-PJ-UNPJ 12.343,61 2.468,72 0,00 0,00 0,00 0,00 0,00 2.078,00 16.890,33 2.150,92 2.508,25 0,00 0,00 4.659,17 12.231,16 30/04/2023
420 415800 CAMILA ALVES DA SILVA ANALISTA DO MP CAETÉ - COMARCA; CAETE-PJ-01PJ 18.130,77 3.626,15 0,00 0,00 0,00 0,00 319,10 5.559,11 27.635,13 3.262,06 4.216,73 0,00 0,00 7.478,79 20.156,34 30/04/2023
421 555800 CAMILA CAROLINE ROCHA CHAVES OFICIAL DO MP SALINAS - COMARCA; SALINAS-PJ-01PJ 7.506,70 750,67 0,00 0,00 0,00 0,00 0,00 2.078,00 10.335,37 1.102,13 1.098,33 0,00 0,00 2.200,46 8.134,91 30/04/2023
422 445200 CAMILA CONDE ROCHA ANALISTA DO MP CONTAGEM - COMARCA; CONTAGEM-PJ-21PJ 13.588,97 2.717,79 0,00 0,00 0,00 0,00 0,00 2.078,00 18.384,76 2.390,03 2.957,74 0,00 0,00 5.347,77 13.036,99 30/04/2023
423 419900 CAMILA CUNNINGHAM PIMENTA DE PADUA ANALISTA DO MP BELO HORIZONTE - COMARCA; ASSESSORIA PSICOSSOCIAL 18.130,77 3.626,15 0,00 0,00 0,00 0,00 0,00 2.078,00 23.834,92 3.262,06 4.216,73 0,00 0,00 7.478,79 16.356,13 30/04/2023
424 714200 CAMILA DE SOUSA CUNHA ASSESSOR PROMOTOR JUSTICA PRADOS - COMARCA; PRADOS-PJ-UNPJ 0,00 0,00 8.810,89 0,00 0,00 0,00 0,00 2.078,00 10.888,89 877,22 1.724,90 0,00 0,00 2.602,12 8.286,77 30/04/2023
425 507700 CAMILA ELIZABETH RODRIGUES ANALISTA DO MP BELO HORIZONTE - COMARCA; BH-02PJ FAMILIA-SECRETARIA 14.960,00 2.992,00 0,00 0,00 0,00 0,00 0,00 2.078,00 20.030,00 2.653,27 3.337,79 0,00 0,00 5.991,06 14.038,94 30/04/2023
426 372700 CAMILA FONSECA LIMONGE ANALISTA DO MP BETIM - COMARCA; BETIM-PJ-01PJ 18.720,84 5.616,25 0,00 0,00 0,00 0,00 446,18 6.945,42 31.728,69 3.674,88 4.812,75 0,00 0,00 8.487,63 23.241,06 30/04/2023
427 621300 CAMILA GOLFETO DE SOUSA VALENTE OFICIAL DO MP CARANGOLA - COMARCA; CARANGOLA-PJ-SECRETARIA 7.506,70 750,67 0,00 0,00 0,00 0,00 0,00 3.503,00 11.760,37 1.102,13 994,06 0,00 0,00 2.096,19 9.664,18 30/04/2023
428 409800 CAMILA GONCALVES COSTA RIBEIRO ANALISTA DO MP INHAPIM - COMARCA; INHAPIM-PJ-02PJ 12.343,61 2.468,72 0,00 0,00 0,00 0,00 0,00 3.028,00 17.840,33 2.150,92 2.508,25 0,00 0,00 4.659,17 13.181,16 30/04/2023
429 335000 CAMILA GONTIJO DE PAIVA ANALISTA DO MP BELO HORIZONTE - COMARCA; COORD DE CONTROLE CONSTITUCIONALIDADE 23.070,31 6.921,09 0,00 0,00 0,00 0,00 549,84 8.076,28 38.617,52 4.579,57 6.066,76 0,00 0,00 10.646,33 27.971,19 30/04/2023
430 693400 CAMILA HECKSHER MONTEIRO ASSESSOR PROCURADOR JUSTICA BELO HORIZONTE - COMARCA; GABINETE DE PROCURADOR DE JUSTIÇA - SALA 613 0,00 0,00 8.810,89 0,00 0,00 0,00 0,00 2.078,00 10.888,89 877,22 1.724,90 0,00 0,00 2.602,12 8.286,77 30/04/2023
431 696000 CAMILA IMACULADA OLIVEIRA ASSESSOR PROCURADOR JUSTICA BELO HORIZONTE - COMARCA; GABINETE DE PROCURADOR DE JUSTIÇA - SALA 816 0,00 0,00 8.810,89 0,00 0,00 0,00 0,00 2.078,00 10.888,89 877,22 1.724,90 0,00 0,00 2.602,12 8.286,77 30/04/2023
432 547800 CAMILA MATTARELLI DE ABREU E SILVA ANALISTA DO MP BELO HORIZONTE - COMARCA; CAO-VIOLENCIA DOMESTICA E FAMILIAR 12.343,61 1.234,36 0,00 0,00 0,00 0,00 0,00 2.078,00 15.655,97 1.953,42 2.327,39 0,00 0,00 4.280,81 11.375,16 30/04/2023
433 430000 CANDIDA MARINA COSTA ANALISTA DO MP BELO HORIZONTE - COMARCA; DIRET DE INFORMACAO E CONHECIMENTO-DINC/CEAF 18.130,77 3.626,15 0,00 0,00 0,00 0,00 0,00 2.078,00 23.834,92 3.262,06 4.216,73 0,00 0,00 7.478,79 16.356,13 30/04/2023
434 614300 CARINA CORTIELHA OFICIAL DO MP BELO HORIZONTE - COMARCA; BH-23PJ CIVEL-FISC AC POL PUB I 6.818,83 681,88 0,00 0,00 0,00 0,00 82,51 2.978,09 10.561,31 981,10 923,53 0,00 0,00 1.904,63 8.656,68 30/04/2023
435 380400 CARINA DIAS FACANHA DE SOUZA ANALISTA DO MP SANTA RITA DO SAPUCAÍ - COMARCA; SANTA RITA DO SAPUCAI-PJ-01PJ 18.720,84 5.616,25 0,00 0,00 0,00 0,00 446,18 7.895,42 32.678,69 3.674,88 4.812,75 0,00 0,00 8.487,63 24.191,06 30/04/2023
436 255000 CARLA ADRIANA DE MENEZES OFICIAL DO MP BELO HORIZONTE - COMARCA; CENT DE APOIO TEC-SETOR DEF,IDOSO E INFANC 12.343,61 4.937,44 0,00 0,00 0,00 0,00 0,00 2.078,00 19.359,05 2.545,92 3.182,80 0,00 0,00 5.728,72 13.630,33 30/04/2023
437 425100 CARLA ADRIANA DINIZ AMARAL OFICIAL DO MP CONTAGEM - COMARCA; CONTAGEM-PJ-SECRETARIA 11.212,54 2.242,51 2.918,39 0,00 0,00 0,00 0,00 2.078,00 18.451,44 1.933,76 3.101,55 0,00 0,00 5.035,31 13.416,13 30/04/2023
438 508100 CARLA ALESSANDRA FONSECA ANALISTA DO MP BELO HORIZONTE - COMARCA; CAO-ORDEM ECONOMICA E TRIBUTARIA-SECRETARIA 12.343,61 2.468,72 0,00 0,00 0,00 0,00 0,00 2.078,00 16.890,33 2.150,92 2.612,53 0,00 0,00 4.763,45 12.126,88 30/04/2023
439 607100 CARLA ANGELICA DIAS MIRANDA OFICIAL DO MP SANTA LUZIA - COMARCA; SANTA LUZIA-PJ-SECRETARIA 7.506,70 750,67 0,00 0,00 0,00 0,00 0,00 2.078,00 10.335,37 1.102,13 941,92 0,00 0,00 2.044,05 8.291,32 30/04/2023
440 351500 CARLA APARECIDA MENDES RAMIRIO OFICIAL DO MP PASSOS - COMARCA; PASSOS-PJ-01PJ 12.343,61 3.703,08 0,00 0,00 0,00 0,00 294,19 5.287,34 21.628,22 2.348,42 2.845,53 0,00 0,00 5.193,95 16.434,27 30/04/2023
441 713100 CARLA DOS SANTOS SOUZA ASSESSOR PROMOTOR JUSTICA ESPERA FELIZ - COMARCA; ESPERA FELIZ-PJ-UNPJ 0,00 0,00 8.810,89 0,00 0,00 0,00 0,00 2.078,00 10.888,89 877,22 1.724,90 0,00 0,00 2.602,12 8.286,77 30/04/2023
442 442800 CARLA GONCALVES COSTA SOALHEIRO ANALISTA DO MP GOVERNADOR VALADARES - COMARCA; GOVERNADOR VALADARES-PJ-11PJ 12.662,97 2.632,11 0,00 0,00 0,00 0,00 0,00 3.028,00 18.323,08 2.307,78 2.650,01 0,00 0,00 4.957,79 13.365,29 30/04/2023
443 321500 CARLA GONCALVES MASSOTE OFICIAL DO MP CAMPO BELO - COMARCA; CAMPO BELO-PJ-02PJ 12.343,61 3.703,08 0,00 0,00 0,00 0,00 0,00 2.078,00 18.124,69 2.348,42 2.897,66 0,00 0,00 5.246,08 12.878,61 30/04/2023
444 429200 CARLA HAUTEQUESTT BECHARA ANALISTA DO MP BELO HORIZONTE - COMARCA; DIRET DE INFORMACAO E CONHECIMENTO-DINC/CEAF 18.130,77 3.626,15 0,00 0,00 0,00 0,00 0,00 2.078,00 23.834,92 3.262,06 4.216,73 0,00 0,00 7.478,79 16.356,13 30/04/2023
445 247500 CARLA MATILDE GUIMARAES DE OLIVEIRA OFICIAL DO MP ITAJUBA - COMARCA; ITAJUBA-PJ-SECRETARIA 12.343,61 4.937,44 0,00 0,00 0,00 0,00 0,00 2.078,00 19.359,05 2.545,92 3.130,66 0,00 0,00 5.676,58 13.682,47 30/04/2023
446 226100 CARLA MERLI DA CONCEICAO ANALISTA DO MP BELO HORIZONTE - COMARCA; CENTRAL DE APOIO TECNICO-SETOR CONTABIL 23.070,31 9.228,12 0,00 0,00 0,00 0,00 473,71 7.245,75 40.017,89 4.948,70 6.599,68 0,00 0,00 11.548,38 28.469,51 30/04/2023
447 181401 CARLO MICHEL GAUDENSI COELHO ANALISTA DO MP BELO HORIZONTE - COMARCA; BH-08PJ JUIZADO ESPECIAL-SECRETARIA 17.559,01 7.023,60 0,00 0,00 0,00 0,00 540,82 7.977,83 33.101,26 3.714,17 4.869,46 0,00 0,00 8.583,63 24.517,63 30/04/2023
448 634000 CARLOS ALBERTO AMORMINO TRIGUEIRO ANALISTA DO MP BELO HORIZONTE - COMARCA; DIRET DE APOIO AS PROCURADORIAS DE JUSTICA 11.212,54 1.121,25 0,00 0,00 0,00 0,00 0,00 3.028,00 15.361,79 982,16 2.100,66 0,00 0,00 3.082,82 12.278,97 30/04/2023
449 637900 CARLOS ALBERTO DE MOURA OFICIAL DO MP SETE LAGOAS - COMARCA; SETE LAGOAS-PJ-07PJ 7.270,07 727,01 0,00 0,00 0,00 0,00 0,00 2.078,00 10.075,08 982,16 1.007,61 0,00 0,00 1.989,77 8.085,31 30/04/2023
450 638700 CARLOS ALBERTO FERREIRA BRAGA ANALISTA DO MP VESPASIANO - COMARCA; VESPASIANO-PJ-06PJ 11.212,54 1.121,25 0,00 0,00 0,00 0,00 0,00 2.078,00 14.411,79 982,16 2.148,06 0,00 0,00 3.130,22 11.281,57 30/04/2023
451 375801 CARLOS ALBERTO ROCHA ANALISTA DO MP VARGINHA - COMARCA; GAECO REGIONAL DE VARGINHA 12.343,61 2.468,72 0,00 0,00 0,00 0,00 0,00 3.028,00 17.840,33 2.150,92 2.560,39 0,00 0,00 4.711,31 13.129,02 30/04/2023
452 462800 CARLOS ANDREI SOARES FAGUNDES ANALISTA DO MP MONTES CLAROS - COMARCA; MONTES CLAROS-PJ-09PJ 12.343,61 2.468,72 0,00 0,00 0,00 0,00 0,00 2.078,00 16.890,33 2.150,92 2.560,39 0,00 0,00 4.711,31 12.179,02 30/04/2023
453 370300 CARLOS AUGUSTO BUENO DIAS ASSESSOR ADMINISTRATIVO IV BELO HORIZONTE - COMARCA; SUPERINTENDÊNCIA DE ENGENHARIA E ARQUITETURA 0,00 0,00 14.488,22 0,00 0,00 0,00 0,00 2.078,00 16.566,22 877,22 2.400,34 0,00 0,00 3.277,56 13.288,66 30/04/2023
454 505100 CARLOS CEZAR CARVALHO ANALISTA DO MP CONTAGEM - COMARCA; CONTAGEM-PJ-02PJ 12.343,61 6.171,81 0,00 0,00 0,00 0,00 0,00 2.078,00 20.593,42 2.743,42 3.363,67 0,00 0,00 6.107,09 14.486,33 30/04/2023
455 196800 CARLOS EDUARDO DE OLIVEIRA MARINHO OFICIAL DO MP ALPINÓPOLIS - COMARCA; ALPINOPOLIS-PJ-UNPJ 21.346,53 14.942,57 0,00 0,00 0,00 0,00 532,24 7.884,26 44.705,60 5.587,20 7.521,53 0,00 0,00 13.108,73 31.596,87 30/04/2023
456 650800 CARLOS EDUARDO NIZA DA SILVA OFICIAL DO MP IGARAPÉ - COMARCA; IGARAPE-PJ-01PJ 6.603,76 660,38 0,00 0,00 0,00 0,00 0,00 3.028,00 10.292,14 944,43 764,29 0,00 0,00 1.708,72 8.583,42 30/04/2023
457 491800 CARLOS EDUARDO ROMAN OFICIAL DO MP BARBACENA - COMARCA; BARBACENA-PJ-09PJ 10.516,49 3.154,95 0,00 0,00 0,00 0,00 0,00 2.078,00 15.749,44 1.968,38 2.348,98 0,00 0,00 4.317,36 11.432,08 30/04/2023
458 299300 CARLOS HENRIQUE BICALHO ANALISTA DO MP BELO HORIZONTE - COMARCA; BH-17PJ PATRIMONIO PUBLICO-SECRETARIA 23.070,31 11.535,16 0,00 0,00 0,00 0,00 507,55 8.564,88 43.677,90 5.317,82 7.184,74 0,00 0,00 12.502,56 31.175,34 30/04/2023
459 205100 CARLOS HENRIQUE ESTEVES OFICIAL DO MP ITAMBACURI - COMARCA; ITAMBACURI-PJ-01PJ 21.346,53 8.538,61 0,00 0,00 0,00 0,00 0,00 2.078,00 31.963,14 4.562,57 6.042,21 0,00 0,00 10.604,78 21.358,36 30/04/2023
460 351600 CARLOS HENRIQUE FELICIO DA FONSECA OFICIAL DO MP JUIZ DE FORA - COMARCA; JUIZ DE FORA-PJ-21PJ 12.343,61 4.937,44 0,00 0,00 0,00 0,00 0,00 2.078,00 19.359,05 2.545,92 3.130,66 0,00 0,00 5.676,58 13.682,47 30/04/2023
461 729100 CARLOS HENRIQUE TEIXEIRA BRAGA ASSESSOR ADMINISTRATIVO II BELO HORIZONTE - COMARCA; DIRETORIA DE SUPORTE E MANUTENCAO 0,00 0,00 7.506,70 0,00 0,00 0,00 0,00 2.078,00 9.584,70 877,22 1.366,25 0,00 0,00 2.243,47 7.341,23 30/04/2023
462 85400 CARLOS JOSE VIEIRA OFICIAL DO MP BELO HORIZONTE - COMARCA; DIRETORIA DO COLEGIO E DA CAMARA DE PJ 29.122,38 23.297,91 0,00 0,00 0,00 5.795,34 477,24 7.284,23 65.977,10 5.795,34 9.467,88 14.830,33 0,00 30.093,55 35.883,55 30/04/2023
463 229100 CARLOS MERCES DE OLIVEIRA ANALISTA DO MP BELO HORIZONTE - COMARCA; CENTRAL DE APOIO TECN-SETOR DE MEIO AMBIENTE 23.070,31 9.228,12 0,00 0,00 0,00 0,00 0,00 2.078,00 34.376,43 4.948,70 5.262,99 0,00 0,00 10.211,69 24.164,74 30/04/2023
464 538300 CARLOS RANGEL SILVA DE MELO ANALISTA DO MP BELO HORIZONTE - COMARCA; DIVISAO DE CONTROLE IMOBILIARIO 12.343,61 4.937,44 0,00 0,00 0,00 0,00 0,00 3.978,00 21.259,05 2.545,92 3.182,80 0,00 0,00 5.728,72 15.530,33 30/04/2023
465 265100 CARLOS REIFF MIRANDA ANALISTA DO MP BELO HORIZONTE - COMARCA; BH-19PJ SAUDE-SECRETARIA 150PJ 23.070,31 6.921,09 0,00 0,00 0,00 0,00 0,00 2.078,00 32.069,40 4.579,57 6.118,89 0,00 0,00 10.698,46 21.370,94 30/04/2023
466 305400 CARLOS ROCHA DE SOUZA OFICIAL DO MP MONTALVÂNIA - COMARCA; MONTALVANIA-PJ-SECRETARIA 7.506,70 2.252,01 0,00 0,00 0,00 0,00 0,00 3.093,58 12.852,29 1.342,34 1.236,59 0,00 0,00 2.578,93 10.273,36 30/04/2023
467 399900 CARMELITA EVANGELISTA DE SOUZA OFICIAL DO MP JOÃO PINHEIRO - COMARCA; JOAO PINHEIRO-PJ-01PJ 10.858,90 2.171,78 0,00 0,00 0,00 0,00 47,78 2.599,23 15.677,69 1.865,86 2.200,97 0,00 0,00 4.066,83 11.610,86 30/04/2023
468 202000 CARMEN LUCIA MARIZ DE MACEDO OFICIAL DO MP BELO HORIZONTE - COMARCA; DIRETORIA GESTAO COMPRAS LICITACOES 20.533,67 14.373,58 5.434,83 0,00 0,00 0,00 413,49 6.588,80 47.344,37 5.366,11 7.887,92 2.752,12 0,00 16.006,15 31.338,22 30/04/2023
469 701900 CAROLINA CARVALHO COSTA ASSESSOR PROCURADOR JUSTICA BELO HORIZONTE - COMARCA; GABINETE DE PROCURADOR DE JUSTIÇA - SALA 811 0,00 0,00 8.810,89 0,00 0,00 0,00 0,00 2.078,00 10.888,89 877,22 1.724,90 0,00 0,00 2.602,12 8.286,77 30/04/2023
470 228500 CAROLINA CHIARELLA DOS SANTOS RIBEIRO COORDENADOR I BELO HORIZONTE - COMARCA; DIVISAO TRANSPORTES 16.469,17 6.587,67 0,00 0,00 0,00 0,00 0,00 2.078,00 25.134,84 2.545,92 4.666,87 0,00 0,00 7.212,79 17.922,05 30/04/2023
471 446500 CAROLINA COSTA VAL RODRIGUES ANALISTA DO MP BELO HORIZONTE - COMARCA; DIVISAO DE MATERIAIS 17.559,01 5.267,70 4.940,75 0,00 0,00 0,00 509,07 7.631,49 35.908,02 3.433,22 5.822,56 0,00 0,00 9.255,78 26.652,24 30/04/2023
472 603501 CAROLINA DOMINGOS BRANDAO RABELLO ANALISTA DO MP BARROSO - COMARCA; BARROSO-PJ-01PJ 12.343,61 1.234,36 0,00 0,00 4.525,99 0,00 547,65 9.952,31 28.603,92 1.953,42 3.572,04 0,00 0,00 5.525,46 23.078,46 30/04/2023
473 404300 CAROLINA DOS SANTOS VIEIRA ANALISTA DO MP BELO HORIZONTE - COMARCA; BH-08PJ JUIZADO ESPECIAL-SECRETARIA 18.720,84 3.744,17 0,00 0,00 0,00 0,00 0,00 2.078,00 24.543,01 3.375,35 4.276,02 0,00 0,00 7.651,37 16.891,64 30/04/2023
474 551200 CAROLINA LOPES ARANTES MASCARENHAS ANALISTA DO MP BELO HORIZONTE - COMARCA; CAO-VIOLENCIA DOMESTICA E FAMILIAR 12.343,61 1.234,36 0,00 0,00 0,00 0,00 49,79 2.621,12 16.248,88 1.953,42 2.223,12 0,00 0,00 4.176,54 12.072,34 30/04/2023
475 622600 CAROLINA LOREDO LOPES CATIZANI OFICIAL DO MP RIBEIRÃO DAS NEVES - COMARCA; RIBEIRAO DAS NEVES-PJ-12PJ 6.818,83 681,88 0,00 0,00 0,00 0,00 0,00 2.078,00 9.578,71 981,10 923,53 0,00 0,00 1.904,63 7.674,08 30/04/2023
476 382200 CAROLINA MENDES CHAVES LIN ANALISTA DO MP BELO HORIZONTE - COMARCA; BH-12PJ JUIZO CRIMINAL-GAB 088PJ 12.343,61 3.703,08 0,00 0,00 0,00 0,00 0,00 3.028,00 19.074,69 2.348,42 2.845,53 0,00 0,00 5.193,95 13.880,74 30/04/2023
477 461900 CAROLINA MURTA TEIXEIRA DIAS ANALISTA DO MP BELO HORIZONTE - COMARCA; CENTRO AUTOCOMPOSICAO DE CONFLITOS 12.343,61 2.468,72 0,00 0,00 0,00 0,00 0,00 2.078,00 16.890,33 2.150,92 2.612,53 0,00 0,00 4.763,45 12.126,88 30/04/2023
478 509600 CAROLINA PINTO DE OLIVEIRA SOUZA ANALISTA DO MP MURIAÉ - COMARCA; MURIAE-PJ-01PJ 12.343,61 2.468,72 0,00 0,00 0,00 0,00 0,00 3.028,00 17.840,33 2.150,92 2.508,25 0,00 0,00 4.659,17 13.181,16 30/04/2023
479 629100 CAROLINA RODRIGUES AMARAL ANALISTA DO MP BELO HORIZONTE - COMARCA; PROC. JUSTICA DIR. DIFUSOS E COLETIVOS-SEC 11.577,56 1.157,76 0,00 0,00 0,00 0,00 0,00 2.078,00 14.813,32 1.818,60 2.132,74 0,00 0,00 3.951,34 10.861,98 30/04/2023
480 502600 CAROLINA RODRIGUES RUBEN ANALISTA DO MP BELO HORIZONTE - COMARCA; BH-18PJ VIOLENCIA DOMESTICA-GAB 007PJ 12.343,61 2.468,72 0,00 0,00 0,00 0,00 0,00 3.978,00 18.790,33 2.150,92 2.508,25 0,00 0,00 4.659,17 14.131,16 30/04/2023
481 529600 CAROLINA VAZ DE MELO MAMBRINI ANALISTA DO MP BELO HORIZONTE - COMARCA; BH-14PJ DEFESA CONSUMIDOR-GAB 005PJ 12.343,61 2.468,72 0,00 0,00 0,00 0,00 0,00 2.078,00 16.890,33 2.150,92 2.612,53 0,00 0,00 4.763,45 12.126,88 30/04/2023
482 619100 CAROLINA ZAKHIA NARDELLI RODRIGUES ANALISTA DO MP NEPOMUCENO - COMARCA; NEPOMUCENO-PJ-UNPJ 11.577,56 1.157,76 0,00 0,00 0,00 0,00 0,00 3.028,00 15.763,32 1.818,60 2.080,60 0,00 0,00 3.899,20 11.864,12 30/04/2023
483 517600 CAROLINE ALVES DE OLIVEIRA MULLER ANALISTA DO MP VISCONDE DO RIO BRANCO - COMARCA; VISCONDE DO RIO BRANCO-PJ-01PJ 12.343,61 2.468,72 0,00 0,00 0,00 0,00 0,00 2.078,00 16.890,33 2.150,92 2.560,39 0,00 0,00 4.711,31 12.179,02 30/04/2023
484 373200 CAROLINE ANTUNES RIBEIRO OFICIAL DO MP JACUI - COMARCA; JACUI-PJ-UNPJ 12.343,61 3.703,08 0,00 0,00 0,00 0,00 0,00 2.078,00 18.124,69 2.348,42 2.845,53 0,00 0,00 5.193,95 12.930,74 30/04/2023
485 723500 CAROLINE CORDEIRO FERNANDES MACHADO ASSESSOR PROMOTOR JUSTICA BELO HORIZONTE - COMARCA; COORD DE INCLUSAO E MOBILIZACAO SOCIAIS 0,00 0,00 8.810,89 0,00 0,00 0,00 0,00 2.078,00 10.888,89 877,22 1.724,90 0,00 0,00 2.602,12 8.286,77 30/04/2023
486 556800 CAROLINE DE SOUZA CARDOSO DOMINGUES OFICIAL DO MP BRASÍLIA DE MINAS - COMARCA; BRASILIA DE MINAS-PJ-02PJ 7.506,70 750,67 0,00 0,00 0,00 0,00 0,00 2.078,00 10.335,37 1.102,13 1.098,33 0,00 0,00 2.200,46 8.134,91 30/04/2023
487 499400 CAROLINE MARQUES DE LOURDES MARZULLO OFICIAL DO MP JUIZ DE FORA - COMARCA; JUIZ DE FORA-PJ-08PJ 10.516,49 2.103,30 0,00 0,00 0,00 0,00 0,00 3.503,00 16.122,79 982,16 2.225,55 0,00 0,00 3.207,71 12.915,08 30/04/2023
488 616800 CAROLINE MONTEIRO DE BARROS ANALISTA DO MP CONTAGEM - COMARCA; CONTAGEM-PJ-11PJ 11.577,56 1.157,76 0,00 0,00 0,00 0,00 0,00 3.028,00 15.763,32 982,16 2.254,93 0,00 0,00 3.237,09 12.526,23 30/04/2023
489 618100 CAROLINE VASCONCELOS COSTA LANZA ANALISTA DO MP PARAOPEBA - COMARCA; PARAOPEBA-PJ-UNPJ 11.577,56 1.157,76 0,00 0,00 0,00 0,00 0,00 3.978,00 16.713,32 1.818,60 2.132,74 0,00 0,00 3.951,34 12.761,98 30/04/2023
490 699000 CAROLLINA RODRIGUES SOUTO AMARAL ASSESSOR PROCURADOR JUSTICA BELO HORIZONTE - COMARCA; GABINETE DE PROCURADOR DE JUSTIÇA - SALA 405 0,00 0,00 8.810,89 0,00 0,00 0,00 0,00 2.078,00 10.888,89 877,22 1.724,90 0,00 0,00 2.602,12 8.286,77 30/04/2023
491 604000 CASSIA APARECIDA DA SILVA OFICIAL DO MP PARACATU - COMARCA; PARACATU-PJ-01PJ 7.506,70 750,67 0,00 0,00 0,00 0,00 0,00 2.078,00 10.335,37 1.102,13 1.098,33 0,00 0,00 2.200,46 8.134,91 30/04/2023
492 268800 CASSIA BEATRIZ TEIXEIRA OFICIAL DO MP BELO HORIZONTE - COMARCA; PROC. JUSTICA DE HABEAS CORPUS 17.559,01 5.267,70 4.346,47 0,00 0,00 0,00 498,18 7.512,64 35.184,00 3.433,22 5.659,13 0,00 0,00 9.092,35 26.091,65 30/04/2023
493 500000 CASSIA DE OLIVEIRA COSTA VIANA ANALISTA DO MP SETE LAGOAS - COMARCA; SETE LAGOAS-PJ-09PJ 12.343,61 8.640,53 0,00 0,00 0,00 0,00 0,00 2.078,00 23.062,14 3.138,41 4.038,22 0,00 0,00 7.176,63 15.885,51 30/04/2023
494 368800 CASSIA LUISA BATISTA MENDONCA WEBER COORDENADOR II BELO HORIZONTE - COMARCA; DIVISÃO DE EDUCAÇÃO PARA O CONSUMO 20.533,67 6.160,10 0,00 0,00 0,00 0,00 489,39 7.416,75 34.599,91 1.932,03 5.940,12 0,00 0,00 7.872,15 26.727,76 30/04/2023
495 622200 CASSIA VAZ DE AZEVEDO LISBOA MARZANO ASSESSOR ADMINISTRATIVO III BELO HORIZONTE - COMARCA; CGMP-DIR ESTAGIO PROBATORIO E ORIENT 0,00 0,00 10.858,90 0,00 0,00 0,00 0,00 2.078,00 12.936,90 877,22 2.131,69 0,00 0,00 3.008,91 9.927,99 30/04/2023
496 121000 CASSIO HENRIQUE AFONSO DA SILVA OFICIAL DO MP BELO HORIZONTE - COMARCA; CGMP-ASSESSORIA TECNICA 23.070,31 18.456,25 0,00 0,00 0,00 0,00 413,49 6.588,80 48.528,85 5.795,34 7.769,89 3.936,60 0,00 17.501,83 31.027,02 30/04/2023
497 512001 CATARINA NATALINO CALIXTO COORDENADOR II BELO HORIZONTE - COMARCA; DIRETORIA GESTAO TRANSPORTES 20.533,67 2.053,37 0,00 0,00 0,00 0,00 0,00 3.028,00 25.615,04 1.818,60 4.841,96 0,00 0,00 6.660,56 18.954,48 30/04/2023
498 606200 CATARINE DE SIQUEIRA DE QUADROS ANALISTA DO MP CONTAGEM - COMARCA; CONTAGEM-PJ-08PJ 12.343,61 1.234,36 0,00 0,00 0,00 0,00 0,00 3.028,00 16.605,97 1.953,42 2.223,12 0,00 0,00 4.176,54 12.429,43 30/04/2023
499 622300 CECILIA APARECIDA PEREIRA ASSUNCAO OFICIAL DO MP TRÊS PONTAS - COMARCA; TRES PONTAS-PJ-SECRETARIA 8.003,54 800,35 0,00 0,00 0,00 0,00 0,00 3.028,00 11.831,89 1.189,57 1.172,44 0,00 0,00 2.362,01 9.469,88 30/04/2023
500 538000 CECILIA FONTES DE MATOS PIMENTEL ANALISTA DO MP PALMA - COMARCA; PALMA-PJ-UNPJ 12.343,61 2.468,72 0,00 0,00 0,00 0,00 0,00 3.028,00 17.840,33 2.150,92 2.612,53 0,00 0,00 4.763,45 13.076,88 30/04/2023
501 261300 CECILIO ANTONIO CAMPOS DOS REIS ANALISTA DO MP BELO HORIZONTE - COMARCA; AUDITORIA INTERNA 23.070,31 9.228,12 0,00 0,00 0,00 0,00 0,00 2.078,00 34.376,43 4.948,70 6.651,82 0,00 0,00 11.600,52 22.775,91 30/04/2023
502 386400 CEFAS AMORELI DE FIGUEIREDO OFICIAL DO MP CABO VERDE - COMARCA; CABO VERDE-PJ-SECRETARIA 7.506,70 2.252,01 0,00 0,00 0,00 0,00 0,00 2.078,00 11.836,71 1.342,34 1.445,14 0,00 0,00 2.787,48 9.049,23 30/04/2023
503 421000 CELINA BENEDITA DE SOUZA ALMEIDA OFICIAL DO MP CAMBUÍ - COMARCA; CAMBUI-PJ-01PJ 11.212,54 7.848,77 0,00 0,00 0,00 0,00 69,89 2.840,45 21.971,65 2.830,76 3.541,90 0,00 0,00 6.372,66 15.598,99 30/04/2023
504 252900 CELIO DE MELO CASTOR ANALISTA DO MP BELO HORIZONTE - COMARCA; DIVISAO FROTA 23.070,31 9.228,12 0,00 0,00 0,00 0,00 0,00 2.078,00 34.376,43 4.948,70 6.651,82 0,00 0,00 11.600,52 22.775,91 30/04/2023
505 395700 CELIO FERREIRA LIMA OFICIAL DO MP CONTAGEM - COMARCA; CONTAGEM-PJ-SECRETARIA 11.954,43 3.586,33 0,00 0,00 0,00 0,00 1.195,44 2.078,00 18.814,20 2.458,74 3.004,80 0,00 0,00 5.463,54 13.350,66 30/04/2023
506 281300 CELMA REGINA PEREIRA SANTOS ANALISTA DO MP BELO HORIZONTE - COMARCA; PROMOT ESTADUAL DE DEF PATRI CULT E TUR DE MG 23.070,31 6.921,09 0,00 0,00 0,00 0,00 0,00 2.078,00 32.069,40 4.579,57 6.118,89 0,00 0,00 10.698,46 21.370,94 30/04/2023
507 535600 CELSO MEDEIROS DE PAIVA OFICIAL DO MP RIO PRETO - COMARCA; RIO PRETO-PJ-SECRETARIA 7.506,70 1.501,34 0,00 0,00 0,00 0,00 0,00 2.259,05 11.267,09 1.222,23 1.219,60 0,00 0,00 2.441,83 8.825,26 30/04/2023
508 367000 CESAR NARVAES DE AVELAR OFICIAL DO MP BELO HORIZONTE - COMARCA; DIRET DE INFORMACAO E CONHECIMENTO-DINC/CEAF 12.343,61 3.703,08 0,00 0,00 0,00 0,00 0,00 2.078,00 18.124,69 2.348,42 2.897,66 0,00 0,00 5.246,08 12.878,61 30/04/2023
509 226500 CESAR SILVEIRA BARROUIN OFICIAL DO MP BELO HORIZONTE - COMARCA; DIRETORIA DE ADMINISTRACAO FINANCEIRA 17.559,01 8.779,51 0,00 0,00 0,00 0,00 482,87 7.345,70 34.167,09 3.995,11 5.275,08 0,00 0,00 9.270,19 24.896,90 30/04/2023
510 121400 CEZAR MORENO CONCEICAO TAVARES OFICIAL DO MP BELO HORIZONTE - COMARCA; COORD DE INCLUSAO E MOBILIZACAO SOCIAIS 22.191,68 17.753,35 0,00 0,00 0,00 5.795,34 477,24 8.234,23 54.451,84 5.795,34 9.363,60 2.355,07 0,00 17.514,01 36.937,83 30/04/2023
511 243800 CHARLES MARTINS MUNIZ OFICIAL DO MP BELO HORIZONTE - COMARCA; LAB TECNOLOGIA CONTRA LAVAGEM DINHEIRO 17.559,01 7.023,60 0,00 0,00 0,00 0,00 270,41 4.449,91 29.302,93 3.714,17 4.869,46 0,00 0,00 8.583,63 20.719,30 30/04/2023
512 193500 CHARLIN CESAR KOURLY OFICIAL DO MP ARAGUARI - COMARCA; ARAGUARI-PJ-07PJ 21.346,53 8.538,61 0,00 0,00 0,00 0,00 547,89 8.055,03 38.488,06 4.562,57 6.094,35 0,00 0,00 10.656,92 27.831,14 30/04/2023
513 385500 CHILLEN PEIXOTO DE MOURA OFICIAL DO MP BELO HORIZONTE - COMARCA; DIVISAO DE MATERIAIS 11.954,43 3.586,33 0,00 0,00 0,00 0,00 0,00 3.028,00 18.568,76 2.267,47 2.780,79 0,00 0,00 5.048,26 13.520,50 30/04/2023
514 534500 CHRISTIAN DOUGLAS BRITO RUAS OFICIAL DO MP SÃO JOÃO DA PONTE - COMARCA; SAO JOAO DA PONTE-PJ-SECRETARIA 7.506,70 1.501,34 0,00 0,00 0,00 0,00 0,00 2.078,00 11.086,04 1.222,23 1.271,74 0,00 0,00 2.493,97 8.592,07 30/04/2023
515 370600 CHRISTIAN KARINE FELIX PRATES ASSESSOR ADMINISTRATIVO IV BELO HORIZONTE - COMARCA; SUPRIN DE PLANEJAMENTO E COORDENACAO 0,00 0,00 14.488,22 0,00 4.829,41 0,00 531,23 7.873,29 27.722,15 877,22 4.614,25 0,00 0,00 5.491,47 22.230,68 30/04/2023
516 435800 CHRISTIANA BAHIA ANDRADE PINA ANALISTA DO MP BELO HORIZONTE - COMARCA; LABORATORIO TECNOLOGIA INTELIGENCIA 18.130,77 3.626,15 0,00 0,00 0,00 0,00 478,65 7.299,66 29.535,23 3.262,06 4.216,73 0,00 0,00 7.478,79 22.056,44 30/04/2023
517 516800 CHRISTIANE FERREIRA DO NASCIMENTO ANALISTA DO MP POUSO ALEGRE - COMARCA; POUSO ALEGRE-PJ-08PJ 12.343,61 2.468,72 0,00 0,00 0,00 0,00 0,00 2.078,00 16.890,33 2.150,92 2.612,53 0,00 0,00 4.763,45 12.126,88 30/04/2023
518 176000 CHRISTIANE JUNQUEIRA PULITI ANDRADE DE BARROS ASSESSOR ADM. ESPECIAL BELO HORIZONTE - COMARCA; PROCURADORIA-GERAL ADJUNTA INSTITUCIONAL 0,00 22.410,72 28.013,39 0,00 0,00 5.795,34 477,23 7.284,23 63.980,91 5.795,34 9.467,88 12.834,15 0,00 28.097,37 35.883,54 30/04/2023
519 319200 CHRISTIANE MARIA DE ASSIS RUSSO OFICIAL DO MP BELO HORIZONTE - COMARCA; CAO-ORDEM ECONOMICA E TRIBUTARIA-SECRETARIA 15.447,01 4.634,10 0,00 0,00 0,00 0,00 0,00 3.028,00 23.109,11 2.993,93 3.777,48 0,00 0,00 6.771,41 16.337,70 30/04/2023
520 510300 CHRISTIANE MARY DE CARVALHO FERREIRA ANALISTA DO MP BELO HORIZONTE - COMARCA; DIRETORIA DE SISTEMAS DE INFORMACAO 12.343,61 2.468,72 0,00 0,00 0,00 0,00 0,00 2.078,00 16.890,33 2.150,92 2.560,39 0,00 0,00 4.711,31 12.179,02 30/04/2023
521 424900 CHRISTIANE PEREIRA TURNER DE ARAUJO OFICIAL DO MP BELO HORIZONTE - COMARCA; CAO-PATRIMONIO PUBLICO 11.212,54 2.242,51 0,00 0,00 0,00 0,00 0,00 3.028,00 16.483,05 1.933,76 2.194,72 0,00 0,00 4.128,48 12.354,57 30/04/2023
522 731000 CHRISTIANE TEIXEIRA ANTUNA ASSESSOR ADMINISTRATIVO III BELO HORIZONTE - COMARCA; DIR CONTEUDO JORNALISTICO 0,00 0,00 10.635,42 0,00 0,00 0,00 0,00 2.078,00 12.713,42 877,22 2.226,65 0,00 0,00 3.103,87 9.609,55 30/04/2023
523 513700 CHRISTIANE VIEIRA SOARES PEDERSOLI COORDENADOR II BELO HORIZONTE - COMARCA; ASSESSORIA JURIDICA DO PROCON-MG 20.533,67 4.106,73 0,00 0,00 0,00 0,00 542,09 8.941,70 34.124,19 2.150,92 5.315,25 0,00 0,00 7.466,17 26.658,02 30/04/2023
524 412300 CHRYSTIAN MACHADO RIBEIRO ANALISTA DO MP VARGINHA - COMARCA; VARGINHA-PJ-04PJ 18.130,77 3.626,15 0,00 0,00 0,00 0,00 478,65 7.299,66 29.535,23 3.262,06 4.216,73 0,00 0,00 7.478,79 22.056,44 30/04/2023
525 513800 CHRYSTIANE DO NASCIMENTO DE MAGALHAES OFICIAL DO MP UBERLÂNDIA - COMARCA; UBERLANDIA-PJ-10PJ 9.699,77 1.939,95 0,00 0,00 0,00 0,00 0,00 2.078,00 13.717,72 1.643,30 1.775,38 0,00 0,00 3.418,68 10.299,04 30/04/2023
526 497900 CIBELE DE FREITAS SANCHES DIAS ANALISTA DO MP SABARÁ - COMARCA; SABARA-PJ-03PJ 12.343,61 2.468,72 0,00 0,00 0,00 0,00 162,94 3.855,48 18.830,75 982,16 2.731,14 0,00 0,00 3.713,30 15.117,45 30/04/2023
527 500900 CIBELLE SILVA PRADO ALVARENGA ANALISTA DO MP ITANHANDU - COMARCA; ITANHANDU-PJ-UNPJ 12.343,61 2.468,72 0,00 0,00 0,00 0,00 0,00 3.028,00 17.840,33 2.150,92 2.612,53 0,00 0,00 4.763,45 13.076,88 30/04/2023
528 296400 CINTIA APARECIDA MOREIRA NAVES E RODRIGUES ANALISTA DO MP CAMPO BELO - COMARCA; CAMPO BELO-PJ-01PJ 23.070,31 6.921,09 0,00 0,00 0,00 0,00 549,84 8.076,28 38.617,52 4.579,57 6.118,89 0,00 0,00 10.698,46 27.919,06 30/04/2023
529 407900 CINTIA NETO COMELLI ANALISTA DO MP BELO HORIZONTE - COMARCA; CENTRAL DE APOIO TECNICO-SETOR CONTABIL 18.130,77 3.626,15 0,00 0,00 0,00 0,00 0,00 2.078,00 23.834,92 3.262,06 4.164,59 0,00 0,00 7.426,65 16.408,27 30/04/2023
530 304700 CINTIA QUEIROZ OFICIAL DO MP BELO HORIZONTE - COMARCA; OUVIDORIA DO MPMG 12.343,61 3.703,08 0,00 0,00 0,00 0,00 0,00 2.078,00 18.124,69 2.348,42 2.897,66 0,00 0,00 5.246,08 12.878,61 30/04/2023
531 286100 CIRO CANGUSSU CORDEIRO OFICIAL DO MP IPATINGA - COMARCA; IPATINGA-PJ-09PJ 10.516,49 3.154,95 0,00 0,00 0,00 0,00 0,00 3.028,00 16.699,44 1.968,38 2.244,71 0,00 0,00 4.213,09 12.486,35 30/04/2023
532 689900 CISSA NOGUEIRA COLEN ASSESSOR PROCURADOR JUSTICA BELO HORIZONTE - COMARCA; GABINETE DE PROCURADOR DE JUSTIÇA - SALA 608 0,00 0,00 8.810,89 0,00 0,00 0,00 0,00 2.078,00 10.888,89 877,22 1.724,90 0,00 0,00 2.602,12 8.286,77 30/04/2023
533 681700 CLARA FERREIRA ALKIMIM ASSESSOR PROMOTOR JUSTICA PEDRA AZUL - COMARCA; PEDRA AZUL-PJ-02PJ 0,00 0,00 8.810,89 0,00 0,00 0,00 0,00 2.078,00 10.888,89 877,22 1.724,90 0,00 0,00 2.602,12 8.286,77 30/04/2023
534 715500 CLARA ISABELLE SOUSA FARIA ASSESSOR PROCURADOR JUSTICA BELO HORIZONTE - COMARCA; GABINETE DE PROCURADOR DE JUSTIÇA - SALA 712 0,00 0,00 8.810,89 0,00 0,00 0,00 0,00 2.078,00 10.888,89 877,22 1.724,90 0,00 0,00 2.602,12 8.286,77 30/04/2023
535 723100 CLARA PRADO CAMPOS ASSESSOR PROCURADOR JUSTICA BELO HORIZONTE - COMARCA; GABINETE DE PROCURADOR DE JUSTIÇA - SALA 1006 0,00 0,00 8.810,89 0,00 0,00 0,00 0,00 2.078,00 10.888,89 877,22 1.724,90 0,00 0,00 2.602,12 8.286,77 30/04/2023
536 695500 CLARA RODRIGUES BLACH ASSESSOR PROCURADOR JUSTICA BELO HORIZONTE - COMARCA; GABINETE DE PROCURADOR DE JUSTIÇA - SALA 1003 0,00 0,00 8.810,89 0,00 0,00 0,00 0,00 2.078,00 10.888,89 877,22 1.724,90 0,00 0,00 2.602,12 8.286,77 30/04/2023
537 412500 CLARICE GOMES MAROTTA ANALISTA DO MP BELO HORIZONTE - COMARCA; COORD ESTADUAL DE DEFESA DOS ANIMAIS 18.130,77 7.252,31 0,00 0,00 0,00 0,00 465,36 7.154,62 33.003,06 3.842,24 5.054,37 0,00 0,00 8.896,61 24.106,45 30/04/2023
538 605300 CLARISSA AZEVEDO ROCHA OFICIAL DO MP BELO HORIZONTE - COMARCA; BH-17PJ PATRIMONIO PUBLICO-SECRETARIA 7.506,70 750,67 0,00 0,00 0,00 0,00 0,00 2.078,00 10.335,37 1.102,13 1.098,33 0,00 0,00 2.200,46 8.134,91 30/04/2023
539 308100 CLARISSA DUARTE BELLONI DIRETOR-GERAL BELO HORIZONTE - COMARCA; DIRETORIA-GERAL 34.667,33 10.400,20 0,00 0,00 0,00 0,00 413,49 9.438,79 54.919,81 4.579,57 8.104,22 7.477,57 0,00 20.161,36 34.758,45 30/04/2023
540 730500 CLARISSA FERNANDES ABREU ASSESSOR PROMOTOR JUSTICA SANTOS DUMONT - COMARCA; SANTOS DUMONT-PJ-02PJ 0,00 0,00 8.810,89 0,00 0,00 0,00 0,00 2.078,00 10.888,89 877,22 1.724,90 0,00 0,00 2.602,12 8.286,77 30/04/2023
541 497100 CLARISSA ROCHA GUIDI ANALISTA DO MP BELO HORIZONTE - COMARCA; BH-02PJ FAMILIA-SECRETARIA 14.960,00 2.992,00 0,00 0,00 0,00 0,00 526,59 9.722,64 28.201,23 2.653,27 3.285,65 0,00 0,00 5.938,92 22.262,31 30/04/2023
542 641800 CLARISSE TAVARES GONCALVES OFICIAL DO MP BELO HORIZONTE - COMARCA; BH-07PJ 01 TRIBUNAL JURI-SECRETARIA 7.270,07 727,01 0,00 0,00 0,00 0,00 0,00 2.078,00 10.075,08 982,16 1.059,74 0,00 0,00 2.041,90 8.033,18 30/04/2023
543 463700 CLAUDIA ADRIANA FERRAO DIAS ANALISTA DO MP SETE LAGOAS - COMARCA; SETE LAGOAS-PJ-06PJ 12.343,61 2.468,72 0,00 0,00 4.937,44 0,00 543,12 8.002,93 28.295,82 2.150,92 3.970,32 0,00 0,00 6.121,24 22.174,58 30/04/2023
544 415400 CLAUDIA ALMEIDA DE VASCONCELLOS BARROS OFICIAL DO MP BELO HORIZONTE - COMARCA; DIVISAO DE SERVICOS 10.858,90 2.171,78 4.020,58 0,00 0,00 0,00 437,65 6.852,35 24.341,26 1.865,86 3.306,63 0,00 0,00 5.172,49 19.168,77 30/04/2023
545 207000 CLAUDIA APARECIDA VILELA MACHADO ANALISTA DO MP BELO HORIZONTE - COMARCA; CENTRAL DE APOIO TECNICO-SETOR CONTABIL 23.070,31 11.535,16 0,00 0,00 0,00 0,00 507,55 7.614,88 42.727,90 5.317,82 7.028,33 0,00 0,00 12.346,15 30.381,75 30/04/2023
546 365700 CLAUDIA BREGUEZ CUNHA ANALISTA DO MP VARGINHA - COMARCA; VARGINHA-PJ-07PJ 20.533,67 6.160,10 0,00 0,00 0,00 0,00 0,00 3.028,00 29.721,77 4.051,95 5.357,14 0,00 0,00 9.409,09 20.312,68 30/04/2023
547 430500 CLAUDIA CECILIA SANTANA VENCESLAU OFICIAL DO MP BELO HORIZONTE - COMARCA; LAB TECNOLOGIA CONTRA LAVAGEM DINHEIRO 11.212,54 2.242,51 0,00 0,00 0,00 0,00 0,00 2.078,00 15.533,05 1.933,76 2.246,86 0,00 0,00 4.180,62 11.352,43 30/04/2023
548 213601 CLAUDIA GONCALVES CALIXTO ASSESSOR PROCURADOR JUSTICA BELO HORIZONTE - COMARCA; PROC. JUSTICA DIR. DIFUSOS E COLETIVOS-SEC 0,00 0,00 8.810,89 0,00 0,00 0,00 0,00 2.078,00 10.888,89 877,22 1.724,90 0,00 0,00 2.602,12 8.286,77 30/04/2023
549 480400 CLAUDIA GOULART DE SOUZA OFICIAL DO MP PASSOS - COMARCA; PASSOS-PJ-06PJ 10.516,49 3.154,95 0,00 0,00 0,00 0,00 0,00 2.078,00 15.749,44 1.968,38 2.348,98 0,00 0,00 4.317,36 11.432,08 30/04/2023
550 519800 CLAUDIA HELENA CORREA DE ALMEIDA ANALISTA DO MP BELO HORIZONTE - COMARCA; BH-12PJ JUIZO CRIMINAL-GAB 096PJ 12.343,61 2.468,72 0,00 0,00 0,00 0,00 0,00 2.078,00 16.890,33 2.150,92 2.612,53 0,00 0,00 4.763,45 12.126,88 30/04/2023
551 422100 CLAUDIA IACOMINI CABRAL ANALISTA DO MP BELO HORIZONTE - COMARCA; CENT DE APOIO TEC-SETOR DEF,IDOSO E INFANC 18.130,77 12.691,55 0,00 0,00 0,00 0,00 452,06 7.009,57 38.283,95 4.712,52 6.310,84 0,00 0,00 11.023,36 27.260,59 30/04/2023
552 258200 CLAUDIA LAGE MICHALAROS ANALISTA DO MP BELO HORIZONTE - COMARCA; CENTRAL DE APOIO TECN-SETOR DE MEIO AMBIENTE 23.070,31 18.456,25 0,00 0,00 0,00 5.795,34 0,00 2.078,00 49.399,90 5.795,34 9.467,88 3.936,60 0,00 19.199,82 30.200,08 30/04/2023
553 284600 CLAUDIA LENI DE FREITAS OFICIAL DO MP CONTAGEM - COMARCA; CONTAGEM-PJ-SECRETARIA 7.506,70 3.753,35 0,00 0,00 0,00 1.582,56 0,00 2.078,00 14.920,61 1.582,56 2.227,15 0,00 0,00 3.809,71 11.110,90 30/04/2023
554 433600 CLAUDIA LUIZA SANTIAGO FELICIO ANALISTA DO MP BELO HORIZONTE - COMARCA; CENT DE APOIO TEC-SETOR DEF,IDOSO E INFANC 18.130,77 3.626,15 0,00 0,00 0,00 0,00 0,00 2.078,00 23.834,92 3.262,06 4.112,45 0,00 0,00 7.374,51 16.460,41 30/04/2023
555 317000 CLAUDIA MACHADO ALVES OFICIAL DO MP BELO HORIZONTE - COMARCA; DIR GOVERNANCA TECNOLOGIA INFORMACAO 12.343,61 3.703,08 4.020,58 0,00 0,00 0,00 73,58 2.880,69 23.021,54 2.348,42 4.003,32 0,00 0,00 6.351,74 16.669,80 30/04/2023
556 155300 CLAUDIA MACIEL MIRANDA OFICIAL DO MP CONGONHAS - COMARCA; CONGONHAS-PJ-02PJ 22.191,68 15.534,18 0,00 0,00 0,00 0,00 0,00 2.078,00 39.803,86 5.795,34 7.769,89 135,90 0,00 13.701,13 26.102,73 30/04/2023
557 242200 CLAUDIA MICHELLE DIAS MUNIZ BALEEIRO OFICIAL DO MP MONTE AZUL - COMARCA; MONTE AZUL-PJ-SECRETARIA 17.559,01 8.779,51 0,00 0,00 0,00 0,00 482,87 7.345,70 34.167,09 3.995,11 5.222,94 0,00 0,00 9.218,05 24.949,04 30/04/2023
558 623000 CLAUDIA PATRICIA SILVA RODRIGUES RAPOSEIRAS OFICIAL DO MP BELO HORIZONTE - COMARCA; DIVISÃO DE EDUCAÇÃO PARA O CONSUMO 7.506,70 750,67 0,00 0,00 0,00 0,00 0,00 2.078,00 10.335,37 1.102,13 1.046,19 0,00 0,00 2.148,32 8.187,05 30/04/2023
559 418400 CLAUDIA REGINA MARTINS BONIFACIO OFICIAL DO MP ITUIUTABA - COMARCA; ITUIUTABA-PJ-06PJ 11.212,54 2.242,51 0,00 0,00 0,00 0,00 0,00 2.078,00 15.533,05 1.933,76 2.194,72 0,00 0,00 4.128,48 11.404,57 30/04/2023
560 498300 CLAUDIA SOUTO FARIAS BRAUN OFICIAL DO MP TEÓFILO OTONI - COMARCA; TEOFILO OTONI-PJ-SECRETARIA 7.506,70 1.501,34 0,00 0,00 0,00 0,00 0,00 2.078,00 11.086,04 1.222,23 1.167,46 0,00 0,00 2.389,69 8.696,35 30/04/2023
561 206500 CLAUDIA VALERIA FONSECA ANDRADE ANALISTA DO MP BELO HORIZONTE - COMARCA; BH-23PJ INF-FISC MED SOC FEC 23.070,31 16.149,22 0,00 0,00 0,00 5.795,34 477,23 7.284,23 52.776,33 5.795,34 9.467,88 1.629,57 0,00 16.892,79 35.883,54 30/04/2023
562 277500 CLAUDIO ANTONIO BORGES BRUNSWICK ALVARES OFICIAL DO MP BELO HORIZONTE - COMARCA; BH-15PJ M AMB PAT HIST CULT-GAB 116PJ 12.343,61 3.703,08 0,00 0,00 0,00 0,00 0,00 2.078,00 18.124,69 2.348,42 2.897,66 0,00 0,00 5.246,08 12.878,61 30/04/2023
563 444800 CLAUDIO ARESIO DO CARMO ANALISTA DO MP SETE LAGOAS - COMARCA; SETE LAGOAS-PJ-01PJ 14.960,00 5.984,00 0,00 0,00 0,00 0,00 76,79 2.915,76 23.936,55 3.131,99 3.976,81 0,00 0,00 7.108,80 16.827,75 30/04/2023
564 545100 CLAUDIO HENRIQUE MACEDO DE SOUZA FRANSOZO ANALISTA DO MP OURO PRETO - COMARCA; OURO PRETO-PJ-03PJ 12.343,61 2.468,72 0,00 0,00 0,00 0,00 1.234,36 3.028,00 19.074,69 982,16 3.097,26 0,00 0,00 4.079,42 14.995,27 30/04/2023
565 353500 CLAUDIO HENRIQUE PEDRO DA ROCHA OFICIAL DO MP BELO HORIZONTE - COMARCA; DIVISAO TRANSPORTES 12.343,61 3.703,08 0,00 0,00 0,00 0,00 294,19 5.287,34 21.628,22 2.348,42 2.793,39 0,00 0,00 5.141,81 16.486,41 30/04/2023
566 265800 CLAUDIO KUPIDLOWSKY FERNANDES OFICIAL DO MP BELO HORIZONTE - COMARCA; SECRETARIA DO PROCON-MG 12.343,61 4.937,44 0,00 0,00 0,00 0,00 443,55 6.916,69 24.641,29 2.545,92 1.774,10 0,00 0,00 4.320,02 20.321,27 30/04/2023
567 193600 CLAUDIO LEITE FONTES OFICIAL DO MP ITUIUTABA - COMARCA; ITUIUTABA-PJ-02PJ 12.343,61 6.171,81 0,00 0,00 0,00 0,00 0,00 2.078,00 20.593,42 2.743,42 3.109,89 0,00 0,00 5.853,31 14.740,11 30/04/2023
568 329400 CLAUDIO MARCIO BERNARDES OFICIAL DO MP ITAÚNA - COMARCA; ITAUNA-PJ-03PJ 12.343,61 9.874,89 0,00 0,00 0,00 0,00 0,00 3.028,00 25.246,50 3.335,91 4.271,22 0,00 0,00 7.607,13 17.639,37 30/04/2023
569 270200 CLAUDIO RABELO ALVES OFICIAL DO MP FORMIGA - COMARCA; FORMIGA-PJ-03PJ 14.960,00 5.984,00 0,00 0,00 0,00 0,00 76,79 2.947,00 23.967,79 3.131,99 3.872,53 0,00 0,00 7.004,52 16.963,27 30/04/2023
570 264700 CLAUDIO ROBERTO KFURI DE ARAUJO ANALISTA DO MP BELO HORIZONTE - COMARCA; CENTRAL DE APOIO TECNICO-SETOR DE INFORMATICA 23.070,31 6.921,09 0,00 0,00 0,00 0,00 0,00 2.078,00 32.069,40 4.579,57 6.014,62 0,00 0,00 10.594,19 21.475,21 30/04/2023
571 543300 CLAUDIO SILVA DE CARVALHO ANALISTA DO MP CAMPO BELO - COMARCA; CAMPO BELO-PJ-03PJ 11.577,56 1.157,76 0,00 0,00 0,00 0,00 0,00 2.078,00 14.813,32 1.818,60 2.080,60 0,00 0,00 3.899,20 10.914,12 30/04/2023
572 160700 CLAUDIO VICENTE HESS ASSESSOR DE GABINETE I BELO HORIZONTE - COMARCA; CENTRAL DE APOIO TECNICO-SETOR DE INFORMATICA 0,00 9.065,39 18.130,77 0,00 0,00 0,00 498,60 7.517,23 35.211,99 877,22 6.676,57 0,00 0,00 7.553,79 27.658,20 30/04/2023
573 312900 CLAUDIO VIEIRA FIRPE OFICIAL DO MP BELO HORIZONTE - COMARCA; DIR RELACOES INSTITUCIONAIS 12.343,61 3.703,08 0,00 0,00 0,00 0,00 0,00 2.078,00 18.124,69 2.348,42 2.897,66 0,00 0,00 5.246,08 12.878,61 30/04/2023
574 634100 CLEA CRISTINA GUERRA DE FREITAS COSTA OFICIAL DO MP BELO HORIZONTE - COMARCA; BH-18PJ VIOLENCIA DOMESTICA-SECRETARIA 7.270,07 727,01 0,00 0,00 0,00 0,00 0,00 2.078,00 10.075,08 1.060,48 986,07 0,00 0,00 2.046,55 8.028,53 30/04/2023
575 459200 CLEIA ZILLE PEREIRA ANALISTA DO MP BELO HORIZONTE - COMARCA; BH-07PJ 01 TRIBUNAL DO JURI-GAB 059PJ 12.343,61 2.468,72 0,00 0,00 0,00 0,00 0,00 3.503,00 18.315,33 2.150,92 2.612,53 0,00 0,00 4.763,45 13.551,88 30/04/2023
576 481800 CLEIDE CARDOSO DA SILVA ANALISTA DO MP MANHUAÇU - COMARCA; MANHUACU-PJ-04PJ 12.343,61 2.468,72 0,00 0,00 0,00 0,00 0,00 2.078,00 16.890,33 2.150,92 2.508,25 0,00 0,00 4.659,17 12.231,16 30/04/2023
577 347600 CLEIDIMAR DE OLIVEIRA SILVA OFICIAL DO MP PATOS DE MINAS - COMARCA; PATOS DE MINAS-PJ-03PJ 12.343,61 4.937,44 0,00 0,00 0,00 0,00 0,00 2.078,00 19.359,05 2.545,92 2.974,25 0,00 0,00 5.520,17 13.838,88 30/04/2023
578 396500 CLEIDISON BATISTA DE ANDRADE OFICIAL DO MP RESPLENDOR - COMARCA; RESPLENDOR-PJ-UNPJ 11.212,54 3.363,76 0,00 0,00 0,00 0,00 1.174,70 2.661,05 18.412,05 2.292,56 2.712,74 0,00 0,00 5.005,30 13.406,75 30/04/2023
579 535100 CLEISON ALVES DA SILVA ANALISTA DO MP BOA ESPERANÇA - COMARCA; BOA ESPERANCA-PJ-01PJ 12.343,61 2.468,72 0,00 0,00 0,00 0,00 543,12 8.002,93 23.358,38 2.150,92 2.508,25 0,00 0,00 4.659,17 18.699,21 30/04/2023
580 298100 CLEONICE AUGUSTA BARROS DE OLIVEIRA ANALISTA DO MP JUIZ DE FORA - COMARCA; JUIZ DE FORA-PJ-08PJ 23.070,31 6.921,09 0,00 0,00 0,00 0,00 0,00 2.078,00 32.069,40 4.579,57 6.118,89 0,00 0,00 10.698,46 21.370,94 30/04/2023
581 114301 CLERES PEREIRA DA SILVA JUNIOR ASSESSOR ADMINISTRATIVO I BELO HORIZONTE - COMARCA; GAECO - SECRETARIA 0,00 0,00 4.872,71 0,00 0,00 0,00 0,00 2.078,00 6.950,71 718,35 685,59 0,00 0,00 1.403,94 5.546,77 30/04/2023
582 264100 CLETO HENRIQUE ANDRADE SILVA ANALISTA DO MP BELO HORIZONTE - COMARCA; DIRETORIA DE SISTEMAS DE INFORMACAO 23.070,31 6.921,09 0,00 0,00 0,00 0,00 0,00 2.078,00 32.069,40 4.579,57 6.014,62 0,00 0,00 10.594,19 21.475,21 30/04/2023
583 334400 CLEUBA DE OLIVEIRA BARCELOS GONCALVES OFICIAL DO MP DIVINÓPOLIS - COMARCA; COORD REG SAUDE MACRORREGIAO SANITARIA OESTE 12.343,61 3.703,08 0,00 0,00 0,00 0,00 0,00 2.078,00 18.124,69 2.348,42 2.845,53 0,00 0,00 5.193,95 12.930,74 30/04/2023
584 347500 CLEUSA CORDEIRO DA MATA PIMENTA OFICIAL DO MP CAMPO BELO - COMARCA; CAMPO BELO-PJ-01PJ 12.343,61 11.109,25 0,00 0,00 0,00 3.533,41 494,75 7.475,25 34.956,27 3.533,41 5.528,04 0,00 0,00 9.061,45 25.894,82 30/04/2023
585 510200 CLEZIO SALES SILVA OFICIAL DO MP BRASÓPOLIS - COMARCA; BRASOPOLIS-PJ-UNPJ 7.506,70 1.501,34 0,00 0,00 0,00 0,00 0,00 3.692,56 12.700,60 1.222,23 1.271,74 0,00 0,00 2.493,97 10.206,63 30/04/2023
586 323000 CLOTILDE DE PADUA VIEIRA OFICIAL DO MP BELO HORIZONTE - COMARCA; BH-19PJ SAUDE-SECRETARIA 129PJ 12.343,61 3.703,08 0,00 0,00 0,00 0,00 0,00 2.078,00 18.124,69 2.348,42 2.897,66 0,00 0,00 5.246,08 12.878,61 30/04/2023
587 285200 CLOVIS ANDRE LUDTKE OFICIAL DO MP BELO HORIZONTE - COMARCA; DIVISAO DE MANUTENCAO PREDIAL 13.160,57 3.948,17 0,00 0,00 0,00 0,00 0,00 2.078,00 19.186,74 2.518,35 3.143,00 0,00 0,00 5.661,35 13.525,39 30/04/2023
588 381100 CONCEICAO APARECIDA TEIXEIRA ARANTES ANALISTA DO MP BELO HORIZONTE - COMARCA; BH-23PJ INFRACIONAL-ASS JURIDICA 18.999,41 5.699,82 0,00 0,00 0,00 0,00 4.354,12 8.955,82 38.009,17 4.342,54 5.724,55 0,00 0,00 10.067,09 27.942,08 30/04/2023
589 249900 CONSTANTINO CEZAR GOMES MOTA OFICIAL DO MP MONTES CLAROS - COMARCA; COORD REG BACIA RIOS VERDE GRANDE E PARDO 12.343,61 4.937,44 0,00 0,00 0,00 0,00 0,00 3.978,00 21.259,05 2.545,92 3.078,53 0,00 0,00 5.624,45 15.634,60 30/04/2023
590 481000 CRISHMA ANALIA LOMBELLO ANALISTA DO MP JUIZ DE FORA - COMARCA; JUIZ DE FORA-PJ-13PJ 12.343,61 2.468,72 0,00 0,00 0,00 0,00 0,00 2.078,00 16.890,33 2.150,92 2.560,39 0,00 0,00 4.711,31 12.179,02 30/04/2023
591 523900 CRISTHYANE BAZOLI COSTA GUEDES COUTO OFICIAL DO MP BELO HORIZONTE - COMARCA; BH-04PJ JUIZO REG PÚBLICOS-SECRETARIA 9.699,77 1.939,95 0,00 0,00 0,00 0,00 0,00 2.078,00 13.717,72 1.643,30 1.879,66 0,00 0,00 3.522,96 10.194,76 30/04/2023
592 187000 CRISTIAN DAYVSON EVANGELISTA OFICIAL DO MP JUIZ DE FORA - COMARCA; JUIZ DE FORA-PJ-13PJ 20.533,67 8.213,47 0,00 0,00 0,00 0,00 0,00 2.078,00 30.825,14 4.380,49 5.779,33 0,00 0,00 10.159,82 20.665,32 30/04/2023
593 682100 CRISTIAN TRISTAO DE ANDRADE ASSESSOR PROMOTOR JUSTICA TRÊS CORACOES - COMARCA; TRES CORACOES-PJ-04PJ 0,00 0,00 8.810,89 0,00 0,00 0,00 193,84 4.192,61 13.197,34 877,22 1.724,90 0,00 0,00 2.602,12 10.595,22 30/04/2023
594 319800 CRISTIANA GONCALVES DOS SANTOS GUSMAO OFICIAL DO MP PARAOPEBA - COMARCA; PARAOPEBA-PJ-UNPJ 12.343,61 3.703,08 0,00 0,00 0,00 0,00 0,00 2.078,00 18.124,69 2.348,42 2.897,66 0,00 0,00 5.246,08 12.878,61 30/04/2023
595 520600 CRISTIANA JANAINA BARBOZA JUVENCIO DOS SANTOS ANALISTA DO MP BELO HORIZONTE - COMARCA; BH-02PJ FAMILIA-SECRETARIA 12.343,61 2.468,72 0,00 0,00 0,00 0,00 0,00 2.078,00 16.890,33 2.150,92 2.612,53 0,00 0,00 4.763,45 12.126,88 30/04/2023
596 195600 CRISTIANA SOARES HALABI OFICIAL DO MP UBERABA - COMARCA; UBERABA-PJ-01PJ 20.533,67 8.213,47 0,00 0,00 0,00 0,00 527,03 7.827,43 37.101,60 4.380,49 5.831,47 0,00 0,00 10.211,96 26.889,64 30/04/2023
597 218900 CRISTIANE ALVES BELLES OFICIAL DO MP JUIZ DE FORA - COMARCA; JUIZ DE FORA-PJ-10PJ 7.506,70 3.002,68 0,00 0,00 0,00 0,00 0,00 3.503,00 14.012,38 1.462,45 1.514,27 0,00 0,00 2.976,72 11.035,66 30/04/2023
598 263600 CRISTIANE CARVALHO COUTINHO OFICIAL DO MP BELO HORIZONTE - COMARCA; BH-23PJ INFRACIONAL-SEC EXP 13.588,97 5.435,59 0,00 0,00 0,00 0,00 0,00 2.078,00 21.102,56 2.824,88 3.533,41 0,00 0,00 6.358,29 14.744,27 30/04/2023
599 541000 CRISTIANE COELHO ALVES OFICIAL DO MP ITABIRA - COMARCA; ITABIRA-PJ-03PJ 7.506,70 1.501,34 0,00 0,00 250,22 0,00 764,43 2.228,13 12.250,82 1.342,34 1.461,82 0,00 0,00 2.804,16 9.446,66 30/04/2023
600 441700 CRISTIANE CORRADO DE ANDRADE ANALISTA DO MP BELO HORIZONTE - COMARCA; DIRETORIA DE SISTEMAS DE INFORMACAO 18.130,77 3.626,15 4.020,58 0,00 0,00 0,00 94,52 3.109,10 28.981,12 3.262,06 5.322,39 0,00 0,00 8.584,45 20.396,67 30/04/2023
601 375100 CRISTIANE DAS DORES ERCIO DE LIMA OFICIAL DO MP GOVERNADOR VALADARES - COMARCA; GOVERNADOR VALADARES-PJ-12PJ 11.577,56 3.473,27 0,00 0,00 0,00 0,00 0,00 2.078,00 17.128,83 2.189,08 2.667,62 0,00 0,00 4.856,70 12.272,13 30/04/2023
602 178800 CRISTIANE DE LIMA HOSKEN OFICIAL DO MP BELO HORIZONTE - COMARCA; BH-14PJ DEFESA CONSUMIDOR-GAB 110PJ 21.346,53 8.538,61 0,00 0,00 0,00 0,00 547,89 8.055,03 38.488,06 4.562,57 6.042,21 0,00 0,00 10.604,78 27.883,28 30/04/2023
603 494000 CRISTIANE DE MELO MARQUEZ OLIVEIRA ANALISTA DO MP UBERLÂNDIA - COMARCA; UBERLANDIA-PJ-06PJ 15.447,01 3.089,40 0,00 0,00 0,00 0,00 0,00 3.028,00 21.564,41 2.746,77 3.472,79 0,00 0,00 6.219,56 15.344,85 30/04/2023
604 266100 CRISTIANE DE OLIVEIRA CASTRO OFICIAL DO MP BELO HORIZONTE - COMARCA; BH-14PJ DEFESA CONSUMIDOR-SECRETARIA 17.559,01 7.023,60 0,00 0,00 0,00 0,00 1.771,66 2.078,00 28.432,27 3.714,17 5.252,39 0,00 0,00 8.966,56 19.465,71 30/04/2023
605 329500 CRISTIANE DOS REIS SILVA OFICIAL DO MP ARAXÁ - COMARCA; ARAXA-PJ-04PJ 12.343,61 3.703,08 0,00 0,00 0,00 0,00 0,00 2.078,00 18.124,69 2.348,42 2.793,39 0,00 0,00 5.141,81 12.982,88 30/04/2023
606 301600 CRISTIANE GODINHO PIRES ANALISTA DO MP BETIM - COMARCA; BETIM-PJ-06PJ 23.070,31 6.921,09 0,00 0,00 0,00 0,00 549,84 8.076,28 38.617,52 4.579,57 6.118,89 0,00 0,00 10.698,46 27.919,06 30/04/2023
607 406100 CRISTIANE GONCALVES CHAVES ANALISTA DO MP BELO HORIZONTE - COMARCA; BH-14PJ DEFESA CONSUMIDOR-GAB 112PJ 18.720,84 7.488,34 0,00 0,00 0,00 0,00 0,00 2.078,00 28.287,18 3.974,42 5.245,20 0,00 0,00 9.219,62 19.067,56 30/04/2023
608 487600 CRISTIANE LOPES DE OLIVEIRA OFICIAL DO MP DIVINÓPOLIS - COMARCA; DIVINOPOLIS-PJ-03PJ 8.810,89 1.762,18 0,00 0,00 0,00 0,00 0,00 2.078,00 12.651,07 1.472,64 1.633,26 0,00 0,00 3.105,90 9.545,17 30/04/2023
609 502500 CRISTIANE MACIEL DE OLIVEIRA GOMES ANALISTA DO MP JUIZ DE FORA - COMARCA; JUIZ DE FORA-PJ-02PJ 12.343,61 2.468,72 0,00 0,00 0,00 0,00 0,00 3.028,00 17.840,33 2.150,92 2.612,53 0,00 0,00 4.763,45 13.076,88 30/04/2023
610 285500 CRISTIANE MAGALHAES LOURENCO ANALISTA DO MP BELO HORIZONTE - COMARCA; CENTRAL DE APOIO TECNICO-SETOR CONTABIL 23.070,31 6.921,09 0,00 0,00 0,00 0,00 549,84 8.076,28 38.617,52 4.579,57 6.066,76 0,00 0,00 10.646,33 27.971,19 30/04/2023
611 536500 CRISTIANE MICHELE DE SOUZA ANALISTA DO MP BARÃO DE COCAIS - COMARCA; BARAO DE COCAIS-PJ-UNPJ 12.343,61 2.468,72 0,00 0,00 0,00 0,00 0,00 2.078,00 16.890,33 2.150,92 2.508,25 0,00 0,00 4.659,17 12.231,16 30/04/2023
612 346600 CRISTIANE NOGUEIRA ANDRADE ANALISTA DO MP BELO HORIZONTE - COMARCA; CENTRAL DE APOIO TECNICO-SETOR CONTABIL 21.346,53 6.403,96 0,00 0,00 0,00 0,00 0,00 2.078,00 29.828,49 4.221,03 5.601,24 0,00 0,00 9.822,27 20.006,22 30/04/2023
613 234000 CRISTIANE OLIVEIRA TOSTES OFICIAL DO MP JUIZ DE FORA - COMARCA; JUIZ DE FORA-PJ-08PJ 18.720,84 7.488,34 0,00 0,00 0,00 0,00 0,00 3.028,00 29.237,18 3.974,42 5.245,20 0,00 0,00 9.219,62 20.017,56 30/04/2023
614 445800 CRISTIANE ORZIL COSTA OFICIAL DO MP SANTA LUZIA - COMARCA; SANTA LUZIA-PJ-05PJ 9.097,81 1.819,56 0,00 0,00 0,00 0,00 0,00 3.028,00 13.945,37 1.527,73 1.712,79 0,00 0,00 3.240,52 10.704,85 30/04/2023
615 616100 CRISTIANE PAES RODRIGUES MARCICANO ANALISTA DO MP CATAGUASES - COMARCA; CATAGUASES-PJ-05PJ 10.516,49 1.051,65 0,00 0,00 0,00 0,00 0,00 3.028,00 14.596,14 1.631,85 1.863,12 0,00 0,00 3.494,97 11.101,17 30/04/2023
616 612300 CRISTIANE RIBEIRO DOS REIS ARCANJO OFICIAL DO MP BELO HORIZONTE - COMARCA; DIRETORIA DE PAGAMENTO DE PESSOAL-DPAG 7.506,70 750,67 0,00 0,00 0,00 0,00 0,00 0,00 8.257,37 1.717,06 824,95 0,00 0,00 2.542,01 5.715,36 30/04/2023
617 257700 CRISTIANE RODRIGUES PAES NUNES ANALISTA DO MP BELO HORIZONTE - COMARCA; BH-22PJ PES COM DEF E IDOSOS-ORIENTACAO PSIC 23.070,31 9.228,12 0,00 0,00 0,00 0,00 473,71 8.195,75 40.967,89 4.948,70 6.599,68 0,00 0,00 11.548,38 29.419,51 30/04/2023
618 510800 CRISTIANE SANTOS FERNANDES ORNELES ANALISTA DO MP BELO HORIZONTE - COMARCA; BH-03PJ EMPRESARIAL-SECRETARIA 12.343,61 2.468,72 0,00 0,00 0,00 0,00 0,00 2.078,00 16.890,33 2.150,92 2.612,53 0,00 0,00 4.763,45 12.126,88 30/04/2023
619 535701 CRISTIANE SANTOS MIRANDA ANALISTA DO MP CONTAGEM - COMARCA; CONTAGEM-PJ-03PJ 10.341,72 1.034,17 0,00 0,00 0,00 0,00 0,00 2.078,00 13.453,89 1.601,09 1.818,71 0,00 0,00 3.419,80 10.034,09 30/04/2023
620 536200 CRISTIANO DE OLIVEIRA ANALISTA DO MP CONCEIÇÃO DO MATO DENTRO - COMARCA; CONCEICAO DO MATO DENTRO-PJ-UNPJ 12.343,61 2.468,72 0,00 0,00 0,00 0,00 0,00 3.978,00 18.790,33 2.150,92 2.508,25 0,00 0,00 4.659,17 14.131,16 30/04/2023
621 477400 CRISTIANO SOARES ELEUTERIO ANALISTA DO MP BELO HORIZONTE - COMARCA; GABINETE DE PROCURADOR DE JUSTIÇA - SALA 812 15.447,01 3.089,40 0,00 0,00 0,00 0,00 0,00 2.078,00 20.614,41 2.746,77 3.472,79 0,00 0,00 6.219,56 14.394,85 30/04/2023
622 449400 CRISTIANO TEIXEIRA RODRIGUES LANA ANALISTA DO MP BELO HORIZONTE - COMARCA; BH-18PJ VIOLENCIA DOMESTICA-SECRETARIA 13.588,97 2.717,79 0,00 0,00 0,00 0,00 0,00 2.078,00 18.384,76 2.390,03 2.957,74 0,00 0,00 5.347,77 13.036,99 30/04/2023
623 239400 CRISTINA DE FATIMA CRUZ E SILVA OFICIAL DO MP MONTE SANTO DE MINAS - COMARCA; MONTE SANTO DE MINAS-PJ-SECRETARIA 17.559,01 7.023,60 0,00 0,00 0,00 0,00 0,00 2.078,00 26.660,61 3.714,17 4.869,46 0,00 0,00 8.583,63 18.076,98 30/04/2023
624 544000 CRISTINA DE OLIVEIRA TERRA ANALISTA DO MP BELO HORIZONTE - COMARCA; BH-18PJ VIOLENCIA DOMESTICA-SECRETARIA 12.343,61 2.468,72 0,00 0,00 0,00 0,00 1.234,36 2.078,00 18.124,69 2.348,42 2.897,66 0,00 0,00 5.246,08 12.878,61 30/04/2023
625 356800 CRISTINA DE PINHO BARROSO OFICIAL DO MP SABINÓPOLIS - COMARCA; SABINOPOLIS-PJ-UNPJ 10.516,49 4.206,60 0,00 0,00 0,00 0,00 0,00 3.028,00 17.751,09 2.136,64 2.487,64 0,00 0,00 4.624,28 13.126,81 30/04/2023
626 649500 CRISTINA DO DIVINO ESPIRITO SANTOS OFICIAL DO MP DIVINÓPOLIS - COMARCA; DIVINOPOLIS-PJ-12PJ 6.603,76 660,38 0,00 0,00 0,00 0,00 0,00 2.078,00 9.342,14 944,43 868,56 0,00 0,00 1.812,99 7.529,15 30/04/2023
627 727100 CRISTINA DORNELLES CLARET ASSESSOR ADMINISTRATIVO III BELO HORIZONTE - COMARCA; CAO-MEIO AMBIENTE 0,00 0,00 10.858,90 0,00 0,00 0,00 0,00 2.078,00 12.936,90 877,22 2.288,10 0,00 0,00 3.165,32 9.771,58 30/04/2023
628 348201 CRISTINA MARIA DA SILVA ANALISTA DO MP ARAXÁ - COMARCA; ARAXA-PJ-06PJ 12.343,61 2.468,72 0,00 0,00 0,00 0,00 0,00 4.214,08 19.026,41 2.150,92 2.612,53 0,00 0,00 4.763,45 14.262,96 30/04/2023
629 434900 CRISTINA MELO DE MADUREIRA ANALISTA DO MP BELO HORIZONTE - COMARCA; BH-07PJ 01 TRIBUNAL JURI-SECRETARIA 18.130,77 3.626,15 0,00 0,00 0,00 0,00 0,00 2.078,00 23.834,92 3.262,06 4.216,73 0,00 0,00 7.478,79 16.356,13 30/04/2023
630 307700 CRISTINA TEIXEIRA MARQUES OFICIAL DO MP BELO HORIZONTE - COMARCA; CENTRAL DE APOIO TECNICO-SETOR CONTABIL 12.343,61 3.703,08 0,00 0,00 0,00 0,00 0,00 2.078,00 18.124,69 2.348,42 2.897,66 0,00 0,00 5.246,08 12.878,61 30/04/2023
631 265300 CRISTOVAO SANCHES DE MEDEIROS ANALISTA DO MP BELO HORIZONTE - COMARCA; DIRETORIA DE CONTABILIDADE 22.191,68 6.657,50 0,00 0,00 0,00 0,00 0,00 2.078,00 30.927,18 4.396,82 5.855,04 0,00 0,00 10.251,86 20.675,32 30/04/2023
632 349800 CROZEIR LUIZ DA SILVA OFICIAL DO MP UNAÍ - COMARCA; UNAI-PJ-SECRETARIA 12.343,61 3.703,08 0,00 0,00 0,00 0,00 0,00 2.840,54 18.887,23 2.348,42 2.845,53 0,00 0,00 5.193,95 13.693,28 30/04/2023
633 490500 CYNTHIA CRISTINA DE SOUZA OLIVEIRA VALENTE ANALISTA DO MP BELO HORIZONTE - COMARCA; BH-09PJ AUDITORIA MILITAR-SECRETARIA 12.343,61 2.468,72 0,00 0,00 0,00 0,00 0,00 2.078,00 16.890,33 2.150,92 2.612,53 0,00 0,00 4.763,45 12.126,88 30/04/2023
634 389800 CYNTHIA GARIGLIO DOS SANTOS OFICIAL DO MP PERDIZES - COMARCA; PERDIZES-PJ-SECRETARIA 10.858,90 3.257,67 0,00 0,00 0,00 0,00 0,00 2.078,00 16.194,57 2.039,60 2.295,40 0,00 0,00 4.335,00 11.859,57 30/04/2023
635 335101 CYNTHIA GONTIJO D ASSUNCAO ANALISTA DO MP BELO HORIZONTE - COMARCA; FEPDC-SECRETARIA EXECUTIVA 12.343,61 2.468,72 4.020,58 0,00 0,00 0,00 0,00 3.028,00 21.860,91 2.150,92 3.718,19 0,00 0,00 5.869,11 15.991,80 30/04/2023
636 269700 CYNTIA ROCHA CAVALCANTI OFICIAL DO MP UBERLÂNDIA - COMARCA; UBERLANDIA-PJ-06PJ 17.559,01 5.267,70 0,00 0,00 0,00 0,00 334,79 6.680,27 29.841,77 3.433,22 4.463,85 0,00 0,00 7.897,07 21.944,70 30/04/2023
637 278000 DAIRTON LOPES MARTINS FILHO COORDENADOR II BELO HORIZONTE - COMARCA; DIRETORIA DE SISTEMAS DE INFORMACAO 20.533,67 6.160,10 0,00 0,00 0,00 0,00 489,39 7.416,75 34.599,91 2.348,42 5.825,61 0,00 0,00 8.174,03 26.425,88 30/04/2023
638 392700 DALIANA CHAVES IBRAIM MARINHO OFICIAL DO MP ITAÚNA - COMARCA; ITAUNA-PJ-04PJ 9.393,95 1.878,79 0,00 0,00 0,00 0,00 41,33 2.528,91 13.842,98 1.584,59 1.794,88 0,00 0,00 3.379,47 10.463,51 30/04/2023
639 558101 DALLEY TASSIA SILVA ANALISTA DO MP MORADA NOVA DE MINAS - COMARCA; MORADA NOVA DE MINAS-PJ-UNPJ 11.577,56 1.157,76 0,00 0,00 0,00 0,00 0,00 3.028,00 15.763,32 1.818,60 2.028,46 0,00 0,00 3.847,06 11.916,26 30/04/2023
640 476700 DALTON DAUD ANALISTA DO MP ARAGUARI - COMARCA; ARAGUARI-PJ-05PJ 12.343,61 2.468,72 0,00 0,00 0,00 0,00 0,00 2.078,00 16.890,33 2.150,92 2.508,25 0,00 0,00 4.659,17 12.231,16 30/04/2023
641 426900 DANIEL ALVES DA SILVA OFICIAL DO MP BELO HORIZONTE - COMARCA; DIVISÃO DE FISCALIZAÇÃO DAS RELAÇÕES DE CONSU 7.506,70 1.501,34 0,00 0,00 0,00 0,00 33,03 2.438,32 11.479,39 1.222,23 1.167,46 0,00 0,00 2.389,69 9.089,70 30/04/2023
642 714000 DANIEL FERREIRA CAMARA ASSESSOR PROMOTOR JUSTICA RIBEIRÃO DAS NEVES - COMARCA; RIBEIRAO DAS NEVES-PJ-12PJ 0,00 0,00 8.810,89 0,00 0,00 0,00 0,00 2.078,00 10.888,89 877,22 1.724,90 0,00 0,00 2.602,12 8.286,77 30/04/2023
643 411000 DANIEL FERREIRA DA SILVA ANALISTA DO MP GOVERNADOR VALADARES - COMARCA; GOVERNADOR VALADARES-PJ-15PJ 17.559,01 7.023,60 0,00 0,00 0,00 0,00 0,00 4.453,00 29.035,61 3.714,17 4.660,91 0,00 0,00 8.375,08 20.660,53 30/04/2023
644 703500 DANIEL FILIPE DE DEUS SOARES ASSESSOR PROMOTOR JUSTICA ITABIRITO - COMARCA; ITABIRITO-PJ-02PJ 0,00 0,00 8.810,89 0,00 0,00 0,00 0,00 2.078,00 10.888,89 877,22 1.724,90 0,00 0,00 2.602,12 8.286,77 30/04/2023
645 309000 DANIEL GOMES DOS SANTOS ANALISTA DO MP POÇOS DE CALDAS - COMARCA; POCOS DE CALDAS-PJ-05PJ 23.070,31 6.921,09 0,00 0,00 0,00 0,00 549,84 8.076,28 38.617,52 4.579,57 6.118,89 0,00 0,00 10.698,46 27.919,06 30/04/2023
646 554500 DANIEL GOMES PEREIRA OFICIAL DO MP NANUQUE - COMARCA; NANUQUE-PJ-02PJ 7.506,70 750,67 0,00 0,00 0,00 0,00 0,00 2.078,00 10.335,37 1.102,13 1.098,33 0,00 0,00 2.200,46 8.134,91 30/04/2023
647 453000 DANIEL GONCALVES PEREIRA ANALISTA DO MP UNAÍ - COMARCA; UNAI-PJ-02PJ 12.343,61 2.468,72 0,00 0,00 0,00 0,00 0,00 4.453,00 19.265,33 2.150,92 2.612,53 0,00 0,00 4.763,45 14.501,88 30/04/2023
648 495500 DANIEL GUIMARAES CABRAL OFICIAL DO MP BELO HORIZONTE - COMARCA; BH-17PJ PATRIMONIO PUBLICO-SECRETARIA 10.015,59 2.003,12 0,00 0,00 0,00 0,00 0,00 3.028,00 15.046,71 1.703,94 1.967,20 0,00 0,00 3.671,14 11.375,57 30/04/2023
649 442900 DANIEL GUIMARAES GONCALVES ANALISTA DO MP UBERLÂNDIA - COMARCA; UBERLANDIA-PJ-03PJ 17.559,01 3.511,80 0,00 0,00 0,00 0,00 309,04 5.449,33 26.829,18 982,16 4.375,28 0,00 0,00 5.357,44 21.471,74 30/04/2023
650 655900 DANIEL LUIZ DA SILVA ASSESSOR ADMINISTRATIVO II BELO HORIZONTE - COMARCA; DIV FISCAL ADM CONT TERCEIRIZACAO 0,00 0,00 7.506,70 0,00 0,00 0,00 0,00 2.078,00 9.584,70 877,22 1.366,25 0,00 0,00 2.243,47 7.341,23 30/04/2023
651 464600 DANIEL PIACENTINI STIVANIN ANALISTA DO MP ANDRADAS - COMARCA; ANDRADAS-PJ-02PJ 12.343,61 2.468,72 0,00 0,00 0,00 0,00 0,00 2.078,00 16.890,33 2.150,92 2.612,53 0,00 0,00 4.763,45 12.126,88 30/04/2023
652 417000 DANIEL QUEIROZ FERREIRA ANALISTA DO MP PASSOS - COMARCA; PASSOS-PJ-06PJ 17.559,01 3.511,80 0,00 0,00 0,00 0,00 309,04 6.399,33 27.779,18 982,16 4.375,28 0,00 0,00 5.357,44 22.421,74 30/04/2023
653 396700 DANIEL SILVA CARNEVALLI SUPERINTENDENTE BELO HORIZONTE - COMARCA; SUPERINTENDENCIA DE TECNOLOGIA DA INFORMACAO 28.013,39 5.602,68 0,00 0,00 0,00 0,00 493,04 8.406,57 42.515,68 3.375,35 7.446,84 0,00 0,00 10.822,19 31.693,49 30/04/2023
654 489300 DANIEL TABOZA ROCHA ANALISTA DO MP IPATINGA - COMARCA; IPATINGA-PJ-08PJ 12.343,61 2.468,72 0,00 0,00 0,00 0,00 0,00 3.028,00 17.840,33 982,16 2.783,28 0,00 0,00 3.765,44 14.074,89 30/04/2023
655 414100 DANIEL TARDELI VALADAO ANALISTA DO MP TRÊS CORACOES - COMARCA; TRES CORACOES-PJ-02PJ 17.559,01 3.511,80 0,00 0,00 0,00 0,00 0,00 2.078,00 23.148,81 982,16 4.166,73 0,00 0,00 5.148,89 17.999,92 30/04/2023
656 731800 DANIEL VASCONCELOS ARAUJO SILVA ASSESSOR ADMINISTRATIVO IV BELO HORIZONTE - COMARCA; DIRETORIA DE REDES E BANCOS DE DADOS 0,00 0,00 14.488,22 0,00 0,00 0,00 0,00 2.078,00 16.566,22 877,22 3.286,17 0,00 0,00 4.163,39 12.402,83 30/04/2023
657 446601 DANIEL VIEIRA BUENO ANALISTA DO MP SÃO DOMINGOS DO PRATA - COMARCA; SAO DOMINGOS DO PRATA-PJ-UNPJ 12.343,61 1.234,36 0,00 0,00 0,00 0,00 0,00 3.028,00 16.605,97 1.953,42 2.275,25 0,00 0,00 4.228,67 12.377,30 30/04/2023
658 253200 DANIELA BATISTA LIMA BARBOSA ASSESSOR ADMINISTRATIVO II BELO HORIZONTE - COMARCA; CENTRAL DE APOIO TECN-SETOR DE MEIO AMBIENTE 0,00 3.002,68 7.506,70 0,00 0,00 0,00 0,00 2.078,00 12.587,38 877,22 2.191,98 0,00 0,00 3.069,20 9.518,18 30/04/2023
659 505800 DANIELA BORGES DE MATTOS RESENDE ANALISTA DO MP JUIZ DE FORA - COMARCA; JUIZ DE FORA-PJ-20PJ 12.343,61 2.468,72 0,00 0,00 0,00 0,00 0,00 2.078,00 16.890,33 2.150,92 2.612,53 0,00 0,00 4.763,45 12.126,88 30/04/2023
660 478000 DANIELA CARVALHO SOARES ANALISTA DO MP SÃO JOÃO DEL REI - COMARCA; SAO JOAO DEL REI-PJ-01PJ 12.343,61 2.468,72 0,00 0,00 0,00 0,00 0,00 2.078,00 16.890,33 2.150,92 2.612,53 0,00 0,00 4.763,45 12.126,88 30/04/2023
661 275900 DANIELA CHAGAS SODRE ANALISTA DO MP BELO HORIZONTE - COMARCA; CENTRAL DE APOIO TECNICO-SETOR CONTABIL 23.070,31 6.921,09 0,00 0,00 0,00 0,00 0,00 2.078,00 32.069,40 4.579,57 6.066,76 0,00 0,00 10.646,33 21.423,07 30/04/2023
662 234301 DANIELA CRUZ SOARES ANALISTA DO MP BELO HORIZONTE - COMARCA; LABORATORIO TECNOLOGIA INTELIGENCIA 23.070,31 9.228,12 0,00 0,00 0,00 0,00 0,00 2.078,00 34.376,43 4.948,70 6.651,82 0,00 0,00 11.600,52 22.775,91 30/04/2023
663 638000 DANIELA DE ALMEIDA BATISTA ANALISTA DO MP ANDRELÂNDIA - COMARCA; ANDRELANDIA-PJ-UNPJ 11.212,54 1.121,25 0,00 0,00 0,00 0,00 0,00 3.028,00 15.361,79 982,16 2.252,34 0,00 0,00 3.234,50 12.127,29 30/04/2023
664 301000 DANIELA DE ALMEIDA E OLIVEIRA ANALISTA DO MP BELO HORIZONTE - COMARCA; DIRETORIA DE SISTEMAS DE INFORMACAO 23.070,31 6.921,09 0,00 0,00 0,00 0,00 0,00 2.078,00 32.069,40 4.579,57 6.118,89 0,00 0,00 10.698,46 21.370,94 30/04/2023
665 296000 DANIELA DE AZEVEDO SILVA ANALISTA DO MP BRASÓPOLIS - COMARCA; BRASOPOLIS-PJ-UNPJ 23.070,31 9.228,12 0,00 0,00 0,00 0,00 0,00 2.078,00 34.376,43 4.948,70 6.651,82 0,00 0,00 11.600,52 22.775,91 30/04/2023
666 453500 DANIELA DE CASTRO SOUSA BARBOSA ANALISTA DO MP BELO HORIZONTE - COMARCA; BH-08PJ JUIZADO ESPECIAL-SECRETARIA 13.588,97 2.717,79 0,00 0,00 0,00 0,00 0,00 2.078,00 18.384,76 2.390,03 2.957,74 0,00 0,00 5.347,77 13.036,99 30/04/2023
667 506000 DANIELA DE OLIVEIRA CAVALIERI ANALISTA DO MP BELO HORIZONTE - COMARCA; BH-14PJ DEFESA CONSUMIDOR-GAB 005PJ 12.343,61 2.468,72 0,00 0,00 0,00 0,00 0,00 2.078,00 16.890,33 2.150,92 2.612,53 0,00 0,00 4.763,45 12.126,88 30/04/2023
668 546200 DANIELA DE VILHENA LEMES GONCALVES OFICIAL DO MP TRÊS CORACOES - COMARCA; TRES CORACOES-PJ-05PJ 7.506,70 750,67 0,00 0,00 0,00 0,00 0,00 2.078,00 10.335,37 1.102,13 994,06 0,00 0,00 2.096,19 8.239,18 30/04/2023
669 356400 DANIELA LEAL FERRAZ ANALISTA DO MP MONTES CLAROS - COMARCA; COORD REG PJ DEF EDUC DIR CRIANCA ADOL NORTE 20.533,67 6.160,10 0,00 0,00 0,00 0,00 489,39 7.416,75 34.599,91 4.051,95 5.357,14 0,00 0,00 9.409,09 25.190,82 30/04/2023
670 501000 DANIELA LOURENCO SANTOS DA SILVA GUIMARAES ANALISTA DO MP BELO HORIZONTE - COMARCA; BH-12PJ JUIZO CRIMINAL-GAB 095PJ 12.343,61 2.468,72 0,00 0,00 0,00 0,00 0,00 2.078,00 16.890,33 2.150,92 2.560,39 0,00 0,00 4.711,31 12.179,02 30/04/2023
671 195801 DANIELA MARIA DE OLIVEIRA QUEIROZ ANALISTA DO MP ARAGUARI - COMARCA; ARAGUARI-PJ-06PJ 18.130,77 7.252,31 0,00 0,00 0,00 0,00 465,36 7.154,62 33.003,06 3.842,24 5.054,37 0,00 0,00 8.896,61 24.106,45 30/04/2023
672 511400 DANIELA MARIA LARA DE OLIVEIRA ANALISTA DO MP BOA ESPERANÇA - COMARCA; BOA ESPERANCA-PJ-02PJ 12.343,61 2.468,72 0,00 0,00 0,00 0,00 0,00 3.028,00 17.840,33 2.150,92 2.560,39 0,00 0,00 4.711,31 13.129,02 30/04/2023
673 252101 DANIELA PAULA ALVES PENA ANALISTA DO MP CONTAGEM - COMARCA; CONTAGEM-PJ-APO TECNICO 18.720,84 7.488,34 0,00 0,00 0,00 0,00 96,10 3.126,37 29.431,65 3.974,42 5.245,20 0,00 0,00 9.219,62 20.212,03 30/04/2023
674 604700 DANIELA PEIXOTO NOGUEIRA COORDENADOR II BELO HORIZONTE - COMARCA; DIRET DE FORMACAO, APERFEIC. E POS-GRADUACAO 20.533,67 2.053,37 0,00 0,00 0,00 0,00 0,00 3.028,00 25.615,04 1.102,13 5.038,99 0,00 0,00 6.141,12 19.473,92 30/04/2023
675 662000 DANIELA RIBAS DE AVILA ASSESSOR ADMINISTRATIVO III BELO HORIZONTE - COMARCA; CENTRO AUTOCOMPOSICAO DE CONFLITOS 0,00 0,00 10.858,90 0,00 0,00 0,00 0,00 2.078,00 12.936,90 877,22 2.288,10 0,00 0,00 3.165,32 9.771,58 30/04/2023
676 462000 DANIELA SOUSA GOMES DO AMARAL ANALISTA DO MP BETIM - COMARCA; BETIM-PJ-04PJ 14.960,00 2.992,00 0,00 0,00 0,00 0,00 0,00 2.078,00 20.030,00 2.653,27 3.337,79 0,00 0,00 5.991,06 14.038,94 30/04/2023
677 427000 DANIELA TEIXEIRA DINIZ ANDRADE ANALISTA DO MP BELO HORIZONTE - COMARCA; DIRETORIA DE PROJETOS DE EDIFICACOES 13.160,57 2.632,11 4.020,58 0,00 0,00 0,00 0,00 2.078,00 21.891,26 2.307,78 3.892,51 0,00 0,00 6.200,29 15.690,97 30/04/2023
678 337200 DANIELA TOLEDO SENIUK ANALISTA DO MP BELO HORIZONTE - COMARCA; GABINETE DE PROCURADOR DE JUSTIÇA - SALA 412 23.070,31 6.921,09 0,00 0,00 0,00 0,00 549,84 8.076,28 38.617,52 4.579,57 6.118,89 0,00 0,00 10.698,46 27.919,06 30/04/2023
679 605600 DANIELE ALZIRA SILVA CABRAL MOREIRA OFICIAL DO MP BELO HORIZONTE - COMARCA; BH-10PJ EXECUÇÃO PENAL-SECRETARIA 7.506,70 750,67 0,00 0,00 0,00 0,00 0,00 2.078,00 10.335,37 1.102,13 1.098,33 0,00 0,00 2.200,46 8.134,91 30/04/2023
680 195500 DANIELE CHAVES FONSECA OFICIAL DO MP BELO HORIZONTE - COMARCA; CGMP-DIR INSP CORR PROCED PROC DISC 20.533,67 8.213,47 0,00 0,00 0,00 0,00 527,03 7.827,43 37.101,60 4.380,49 5.831,47 0,00 0,00 10.211,96 26.889,64 30/04/2023
681 323400 DANIELE MEGALE SANTINI OFICIAL DO MP BELO HORIZONTE - COMARCA; CGMP-DIR INSP CORR PROCED PROC DISC 13.588,97 4.076,69 0,00 0,00 0,00 0,00 64,77 2.784,63 20.515,06 2.607,45 3.219,51 0,00 0,00 5.826,96 14.688,10 30/04/2023
682 357900 DANIELE REJANE PINTO VERSIEUX OFICIAL DO MP PEDRO LEOPOLDO - COMARCA; PEDRO LEOPOLDO-PJ-03PJ 12.343,61 3.703,08 0,00 0,00 0,00 0,00 0,00 2.078,00 18.124,69 2.348,42 2.897,66 0,00 0,00 5.246,08 12.878,61 30/04/2023
683 389500 DANIELE VASCONCELOS AMORIM OFICIAL DO MP SÃO SEBASTIÃO DO PARAÍSO - COMARCA; SAO SEBASTIAO DO PARAISO-PJ-04PJ 12.343,61 3.703,08 0,00 0,00 0,00 0,00 0,00 2.078,00 18.124,69 2.348,42 2.897,66 0,00 0,00 5.246,08 12.878,61 30/04/2023
684 629700 DANIELLA BASTOS MARTINS BICALHO OFICIAL DO MP GOVERNADOR VALADARES - COMARCA; GOVERNADOR VALADARES-PJ-16PJ 7.506,70 750,67 0,00 0,00 0,00 0,00 0,00 2.078,00 10.335,37 1.102,13 1.098,33 0,00 0,00 2.200,46 8.134,91 30/04/2023
685 725500 DANIELLE CAMILE OLIVEIRA FONSECA ASSESSOR PROCURADOR JUSTICA BELO HORIZONTE - COMARCA; GABINETE DE PROCURADOR DE JUSTIÇA - SALA 501 0,00 0,00 8.810,89 0,00 0,00 0,00 0,00 2.078,00 10.888,89 877,22 1.724,90 0,00 0,00 2.602,12 8.286,77 30/04/2023
686 265000 DANIELLE CASTANHEIRA SCALABRINI OFICIAL DO MP BELO HORIZONTE - COMARCA; JUNTA RECURSAL DO PROCON ESTADUAL 12.343,61 3.703,08 0,00 0,00 0,00 0,00 0,00 2.078,00 18.124,69 2.348,42 2.845,53 0,00 0,00 5.193,95 12.930,74 30/04/2023
687 490100 DANIELLE DE AVILA SILVA LOPES ANALISTA DO MP BELO HORIZONTE - COMARCA; PROC. JUSTICA DIR. DIFUSOS E COLETIVOS-SEC 12.343,61 3.703,08 0,00 0,00 0,00 0,00 0,00 2.933,00 18.979,69 2.348,42 2.897,66 0,00 0,00 5.246,08 13.733,61 30/04/2023
688 549600 DANIELLE GOMES LOPES RODRIGUES OFICIAL DO MP BELO HORIZONTE - COMARCA; COORD DE GABINETE DO PGJ 7.506,70 750,67 0,00 0,00 0,00 0,00 0,00 2.078,00 10.335,37 1.102,13 1.098,33 0,00 0,00 2.200,46 8.134,91 30/04/2023
689 613000 DANIELLE SILVA OLIVEIRA FRANKLIN ASSESSOR ADMINISTRATIVO IV BELO HORIZONTE - COMARCA; DIRETORIA DE ORCAMENTO-DIOR/SPC 14.488,22 1.448,82 0,00 0,00 0,00 0,00 0,00 3.028,00 18.965,04 1.189,57 3.186,19 0,00 0,00 4.375,76 14.589,28 30/04/2023
690 722800 DANIELLE VALENTIM SOUZA ASSESSOR PROCURADOR JUSTICA BELO HORIZONTE - COMARCA; GABINETE DE PROCURADOR DE JUSTIÇA - SALA 606 0,00 0,00 8.810,89 0,00 0,00 0,00 0,00 2.078,00 10.888,89 877,22 1.724,90 0,00 0,00 2.602,12 8.286,77 30/04/2023
691 380800 DANILLO RIBEIRO ANTUNES ANALISTA DO MP MONTES CLAROS - COMARCA; MONTES CLAROS-PJ-SECRETARIA 18.720,84 5.616,25 0,00 0,00 0,00 0,00 1.771,66 2.078,00 28.186,75 3.674,88 5.247,82 0,00 0,00 8.922,70 19.264,05 30/04/2023
692 453700 DANILO BOTELHO DE CARVALHO SUPERINTENDENTE BELO HORIZONTE - COMARCA; SUPERINTENDENCIA DE FINANCAS 28.013,39 5.602,68 0,00 0,00 0,00 0,00 493,04 7.456,57 41.565,68 3.152,28 7.508,18 0,00 0,00 10.660,46 30.905,22 30/04/2023
693 391200 DANILO D'AVILA MENDES ANALISTA DO MP MONTES CLAROS - COMARCA; GAECO REGIONAL DE MONTES CLAROS 18.720,84 5.616,25 0,00 0,00 0,00 0,00 446,18 7.895,42 32.678,69 3.674,88 4.812,75 0,00 0,00 8.487,63 24.191,06 30/04/2023
694 710900 DANILO DE SOUZA RODRIGUES ASSESSOR PROMOTOR JUSTICA IPANEMA - COMARCA; IPANEMA-PJ-01PJ 0,00 0,00 8.810,89 0,00 0,00 0,00 0,00 2.078,00 10.888,89 877,22 1.724,90 0,00 0,00 2.602,12 8.286,77 30/04/2023
695 494900 DANILO GAVIAO AVELINO DE MELLO ANALISTA DO MP POUSO ALEGRE - COMARCA; GAECO REGIONAL DE POUSO ALEGRE 12.343,61 2.468,72 0,00 0,00 0,00 0,00 0,00 2.078,00 16.890,33 2.150,92 2.612,53 0,00 0,00 4.763,45 12.126,88 30/04/2023
696 604300 DANILO NASCIMENTO SALGADO ANALISTA DO MP JANAÚBA - COMARCA; JANAUBA-PJ-01PJ 12.343,61 1.234,36 0,00 0,00 0,00 0,00 0,00 2.078,00 15.655,97 1.953,42 2.327,39 0,00 0,00 4.280,81 11.375,16 30/04/2023
697 298300 DANUZA MONICA DE SOUZA DINIZ ANALISTA DO MP BELO HORIZONTE - COMARCA; CAO-FUNDACOES-ASSESSORIA JURIDICA 22.191,68 6.657,50 0,00 0,00 0,00 0,00 528,90 7.847,84 37.225,92 4.396,82 5.802,90 0,00 0,00 10.199,72 27.026,20 30/04/2023
698 398700 DARCY LUIZ MILEO GREGATTI OFICIAL DO MP LAMBARI - COMARCA; LAMBARI-PJ-SECRETARIA 11.954,43 2.390,89 0,00 0,00 0,00 0,00 210,40 4.373,25 18.928,97 2.076,20 2.504,65 0,00 0,00 4.580,85 14.348,12 30/04/2023
699 406200 DARIANA AUGUSTA DE TOLEDO PATROCINIO RUIZ COORDENADOR II BELO HORIZONTE - COMARCA; DIRETORIA GESTAO COMPRAS LICITACOES 20.533,67 4.106,73 0,00 0,00 0,00 0,00 542,09 8.941,70 34.124,19 2.150,92 5.315,25 0,00 0,00 7.466,17 26.658,02 30/04/2023
700 586901 DARIO VITORINO DE CARVALHO SILVA ASSESSOR ADM. ESPECIAL BELO HORIZONTE - COMARCA; DIRETORIA DE SEGURANCA 0,00 0,00 28.013,39 0,00 0,00 0,00 513,58 7.680,68 36.207,65 877,22 6.953,45 0,00 0,00 7.830,67 28.376,98 30/04/2023
701 305000 DARLI LEITE DE OLIVEIRA OFICIAL DO MP ARAÇUAÍ - COMARCA; ARACUAI-PJ-01PJ 7.506,70 2.252,01 0,00 0,00 0,00 0,00 0,00 2.078,00 11.836,71 1.342,34 1.288,73 0,00 0,00 2.631,07 9.205,64 30/04/2023
702 729400 DAVI PIMENTA ASSESSOR PROMOTOR JUSTICA CANDEIAS - COMARCA; CANDEIAS-PJ-UNPJ 0,00 0,00 8.810,89 0,00 0,00 0,00 0,00 2.078,00 10.888,89 877,22 1.724,90 0,00 0,00 2.602,12 8.286,77 30/04/2023
703 122200 DAVID RIBEIRO DOS SANTOS ANALISTA DO MP BORDA DA MATA - COMARCA; BORDA DA MATA-PJ-UNPJ 23.070,31 23.070,31 0,00 0,00 0,00 5.795,34 477,24 7.284,23 59.697,43 5.795,34 9.467,88 8.550,66 0,00 23.813,88 35.883,55 30/04/2023
704 389400 DAWSON CANEDO MARQUES OFICIAL DO MP POUSO ALEGRE - COMARCA; POUSO ALEGRE-PJ-SECRETARIA 12.343,61 3.703,08 0,00 0,00 0,00 0,00 235,35 5.595,47 21.877,51 2.348,42 2.038,34 0,00 0,00 4.386,76 17.490,75 30/04/2023
705 537200 DAYANE TEIXEIRA DE OLIVEIRA CASELLI ANALISTA DO MP BELO HORIZONTE - COMARCA; ASSESS TECNICO-JUR JUNTO AS PROC. DE JUST 10.341,72 1.034,17 0,00 0,00 0,00 0,00 0,00 2.078,00 13.453,89 1.601,09 1.818,71 0,00 0,00 3.419,80 10.034,09 30/04/2023
706 256100 DAYSE ROSALY PEREIRA BATISTA OFICIAL DO MP BELO HORIZONTE - COMARCA; BH-08PJ JUIZADO ESPECIAL-SECRETARIA 12.343,61 4.937,44 0,00 0,00 0,00 0,00 0,00 2.078,00 19.359,05 2.545,92 3.182,80 0,00 0,00 5.728,72 13.630,33 30/04/2023
707 311901 DEBORA APARECIDA DA SILVA ASSESSOR ADMINISTRATIVO I BELO HORIZONTE - COMARCA; BH-23PJ CIVEL-SETOR ATEND PUB 0,00 0,00 4.872,71 0,00 0,00 0,00 0,00 2.078,00 6.950,71 718,35 685,59 0,00 0,00 1.403,94 5.546,77 30/04/2023
708 194301 DEBORA APARECIDA DOS SANTOS ANALISTA DO MP UBERLÂNDIA - COMARCA; UBERLANDIA-PJ-SEC FAMILIA 23.070,31 9.228,12 0,00 0,00 0,00 0,00 473,71 7.245,75 40.017,89 4.948,70 6.651,82 0,00 0,00 11.600,52 28.417,37 30/04/2023
709 518800 DEBORA CARVALHO FIORATTO COORDENADOR II BELO HORIZONTE - COMARCA; DIRETORIA MATERIAIS E SERVICOS 20.533,67 4.106,73 0,00 0,00 0,00 0,00 542,09 7.991,70 33.174,19 1.643,30 5.454,84 0,00 0,00 7.098,14 26.076,05 30/04/2023
710 444900 DEBORA CLAUDIA PEREIRA ALVES ANALISTA DO MP BELO HORIZONTE - COMARCA; BH-08PJ JUIZADO ESPECIAL-SECRETARIA 13.588,97 2.717,79 0,00 0,00 0,00 0,00 0,00 2.078,00 18.384,76 2.390,03 2.957,74 0,00 0,00 5.347,77 13.036,99 30/04/2023
711 617700 DEBORA COMANDUCI SCHREIDER ANALISTA DO MP BICAS - COMARCA; BICAS-PJ-UNPJ 11.577,56 1.157,76 0,00 0,00 0,00 0,00 0,00 2.078,00 14.813,32 1.818,60 2.080,60 0,00 0,00 3.899,20 10.914,12 30/04/2023
712 555700 DEBORA CRISTINA BUITRAGO PEREIRA ANALISTA DO MP BELO HORIZONTE - COMARCA; DIRETORIA GESTAO CONTRATOS CONVENIOS 12.343,61 1.234,36 4.020,58 0,00 0,00 0,00 0,00 3.028,00 20.626,55 1.953,42 3.433,05 0,00 0,00 5.386,47 15.240,08 30/04/2023
713 513100 DEBORA CRISTINA PEREIRA DE OLIVEIRA ANALISTA DO MP BELO HORIZONTE - COMARCA; BH-23PJ CIVEL-SETOR JURIDICO 13.588,97 2.717,79 0,00 0,00 0,00 0,00 0,00 3.503,00 19.809,76 2.390,03 2.957,74 0,00 0,00 5.347,77 14.461,99 30/04/2023
714 612100 DEBORA DUARTE SILVA DE SOUZA OFICIAL DO MP RIBEIRÃO DAS NEVES - COMARCA; RIBEIRAO DAS NEVES-PJ-06PJ 7.506,70 3.002,68 0,00 0,00 0,00 0,00 0,00 2.078,00 12.587,38 1.462,45 1.514,27 0,00 0,00 2.976,72 9.610,66 30/04/2023
715 717500 DEBORA ENDREFFY ORSI PARENZI ASSESSOR PROMOTOR JUSTICA MATEUS LEME - COMARCA; MATEUS LEME-PJ-01PJ 0,00 0,00 8.810,89 0,00 0,00 0,00 0,00 2.078,00 10.888,89 877,22 1.724,90 0,00 0,00 2.602,12 8.286,77 30/04/2023
716 539700 DEBORA SALES CARVALHO ANALISTA DO MP PATOS DE MINAS - COMARCA; COORD REG PJ DEF EDU DIR CRI ADO AL PAR NOROE 12.343,61 2.468,72 0,00 0,00 0,00 0,00 1.234,36 2.078,00 18.124,69 982,16 3.097,26 0,00 0,00 4.079,42 14.045,27 30/04/2023
717 424100 DEBORA SANTOS E ALVES ANALISTA DO MP JANUÁRIA - COMARCA; JANUARIA-PJ-01PJ 18.130,77 3.626,15 0,00 0,00 0,00 0,00 319,10 6.509,11 28.585,13 3.262,06 4.216,73 0,00 0,00 7.478,79 21.106,34 30/04/2023
718 426301 DEBORA SCUCATO MACHADO SOARES OFICIAL DO MP ITABIRA - COMARCA; ITABIRA-PJ-SECRETARIA 7.506,70 1.501,34 0,00 0,00 0,00 0,00 0,00 3.028,00 12.036,04 1.222,23 1.271,74 0,00 0,00 2.493,97 9.542,07 30/04/2023
719 678100 DEBORA SOUZA COSTA ASSESSOR PROMOTOR JUSTICA BOTELHOS - COMARCA; BOTELHOS-PJ-UNPJ 0,00 0,00 8.810,89 0,00 0,00 0,00 0,00 2.078,00 10.888,89 877,22 1.672,76 0,00 0,00 2.549,98 8.338,91 30/04/2023
720 550200 DEBORA TRINDADE LEITE ANALISTA DO MP MANHUAÇU - COMARCA; MANHUACU-PJ-05PJ 12.343,61 1.234,36 0,00 0,00 0,00 0,00 0,00 2.078,00 15.655,97 1.953,42 2.223,12 0,00 0,00 4.176,54 11.479,43 30/04/2023
721 438000 DEBORAH COSTA LAGE ANALISTA DO MP BELO HORIZONTE - COMARCA; PROC JUST ATUACAO TRIBUNAIS SUPERIORES-GAB006 18.130,77 3.626,15 0,00 0,00 0,00 0,00 0,00 2.078,00 23.834,92 3.262,06 4.216,73 0,00 0,00 7.478,79 16.356,13 30/04/2023
722 613700 DEISER MARIA FERREIRA ROSCOE OFICIAL DO MP BELO HORIZONTE - COMARCA; DIVISÃO DE EDUCAÇÃO PARA O CONSUMO 7.506,70 750,67 0,00 0,00 0,00 0,00 0,00 2.078,00 10.335,37 1.102,13 1.098,33 0,00 0,00 2.200,46 8.134,91 30/04/2023
723 551900 DEISY ROCHA DA SILVA ANALISTA DO MP CARMO DO PARANAÍBA - COMARCA; CARMO DO PARANAIBA-PJ-01PJ 12.343,61 1.234,36 0,00 0,00 0,00 0,00 0,00 2.078,00 15.655,97 1.953,42 2.275,25 0,00 0,00 4.228,67 11.427,30 30/04/2023
724 501900 DELI RAQUEL RODRIGUES ANALISTA DO MP ITUIUTABA - COMARCA; ITUIUTABA-PJ-04PJ 12.343,61 2.468,72 0,00 0,00 0,00 0,00 0,00 2.078,00 16.890,33 2.150,92 2.612,53 0,00 0,00 4.763,45 12.126,88 30/04/2023
725 378600 DELIANE LOPES VIEIRA BREIJAO ANALISTA DO MP JUIZ DE FORA - COMARCA; JUIZ DE FORA-PJ-14PJ 18.720,84 5.616,25 0,00 0,00 0,00 0,00 446,18 6.945,42 31.728,69 3.674,88 4.760,61 0,00 0,00 8.435,49 23.293,20 30/04/2023
726 730100 DELIENE FRACETE GUTIERREZ ASSESSOR ADMINISTRATIVO I TEÓFILO OTONI - COMARCA; COORD REG APOIO COM INC MOB SOC VALE MUCURI 0,00 0,00 4.872,71 0,00 0,00 0,00 0,00 2.078,00 6.950,71 718,35 685,59 0,00 0,00 1.403,94 5.546,77 30/04/2023
727 487700 DENIA FERREIRA MAIA SILVA OFICIAL DO MP TRÊS CORACOES - COMARCA; TRES CORACOES-PJ-04PJ 8.003,54 1.600,71 0,00 0,00 0,00 0,00 0,00 2.078,00 11.682,25 1.317,63 1.305,19 0,00 0,00 2.622,82 9.059,43 30/04/2023
728 726300 DENILZA RODRIGUES MORAES ASSESSOR ADMINISTRATIVO I BELO HORIZONTE - COMARCA; CENT DE ATENDIMENTO AS PROMOTORIAS DE JUSTICA 0,00 0,00 4.872,71 0,00 0,00 0,00 0,00 2.078,00 6.950,71 718,35 685,59 0,00 0,00 1.403,94 5.546,77 30/04/2023
729 424800 DENIS APARECIDO CAMPOS DELFINO ANALISTA DO MP LUZ - COMARCA; LUZ-PJ-UNPJ 17.559,01 3.511,80 0,00 0,00 0,00 0,00 309,04 5.449,33 26.829,18 3.152,28 3.849,69 0,00 0,00 7.001,97 19.827,21 30/04/2023
730 381400 DENISE ANGELICA MELLO DE PAULA OFICIAL DO MP BELO HORIZONTE - COMARCA; BH-18PJ DIREITOS HUMANOS-SECRETARIA 12.343,61 3.703,08 4.346,47 0,00 0,00 0,00 0,00 3.028,00 23.421,16 2.348,42 4.092,94 0,00 0,00 6.441,36 16.979,80 30/04/2023
731 702100 DENISE CANDIDO LIMA MACEDO KATOPODIS ASSESSOR PROCURADOR JUSTICA BELO HORIZONTE - COMARCA; GABINETE DE PROCURADOR DE JUSTIÇA - SALA 306 0,00 0,00 8.810,89 0,00 0,00 0,00 0,00 2.078,00 10.888,89 877,22 1.724,90 0,00 0,00 2.602,12 8.286,77 30/04/2023
732 196300 DENISE DE ALMEIDA VILELA FURTADO OFICIAL DO MP BELO HORIZONTE - COMARCA; CENTRAL DE APOIO TECNICO-SECRETARIA 20.533,67 8.213,47 0,00 0,00 9.582,38 0,00 527,03 9.252,43 48.108,98 4.380,49 8.466,62 0,00 0,00 12.847,11 35.261,87 30/04/2023
733 271100 DENISE ELOY PEIXOTO OFICIAL DO MP BELO HORIZONTE - COMARCA; DIRETORIA DE INTELIGENCIA 17.559,01 5.267,70 0,00 0,00 0,00 0,00 334,79 5.730,27 28.891,77 3.433,22 4.463,85 0,00 0,00 7.897,07 20.994,70 30/04/2023
734 385400 DENISE FREITAS DE ASSIS OFICIAL DO MP CARATINGA - COMARCA; CARATINGA-PJ-SECRETARIA 11.212,54 3.363,76 3.004,68 0,00 0,00 0,00 1.182,92 2.750,75 21.514,65 2.292,56 3.643,30 0,00 0,00 5.935,86 15.578,79 30/04/2023
735 437100 DENISE NOGUEIRA MAGRI MENDES ANALISTA DO MP BELO HORIZONTE - COMARCA; LAB TECNOLOGIA CONTRA LAVAGEM DINHEIRO 18.130,77 7.252,31 0,00 0,00 0,00 0,00 0,00 2.078,00 27.461,08 3.842,24 4.950,10 0,00 0,00 8.792,34 18.668,74 30/04/2023
736 524700 DENISE RAMOS GUIMARAES OFICIAL DO MP BELO HORIZONTE - COMARCA; BH-07PJ 01 TRIBUNAL JURI-SECRETARIA 7.506,70 1.501,34 0,00 0,00 0,00 0,00 0,00 2.078,00 11.086,04 1.222,23 1.271,74 0,00 0,00 2.493,97 8.592,07 30/04/2023
737 239100 DENISE RIBEIRO DOS SANTOS CAETANO OFICIAL DO MP ITANHANDU - COMARCA; ITANHANDU-PJ-SECRETARIA 17.559,01 7.023,60 0,00 0,00 0,00 0,00 540,82 7.977,83 33.101,26 3.714,17 4.817,32 0,00 0,00 8.531,49 24.569,77 30/04/2023
738 325500 DENISE ROSA TORRES OFICIAL DO MP BELO HORIZONTE - COMARCA; DIRETORIA DE PESSOAL ADMINISTRATIVO - DPAD 13.588,97 4.076,69 0,00 0,00 0,00 0,00 64,77 2.784,63 20.515,06 2.607,45 3.271,65 0,00 0,00 5.879,10 14.635,96 30/04/2023
739 437200 DENISE VIVIANE DOS SANTOS ANALISTA DO MP BELO HORIZONTE - COMARCA; CGMP-DIR ESTAGIO PROBATORIO E ORIENT 15.447,01 3.089,40 0,00 0,00 0,00 0,00 0,00 3.503,00 22.039,41 2.746,77 3.420,65 0,00 0,00 6.167,42 15.871,99 30/04/2023
740 267900 DENISIA ALMEIDA SALES OFICIAL DO MP BELO HORIZONTE - COMARCA; BH-18PJ DIREITOS HUMANOS-SECRETARIA 12.343,61 3.703,08 0,00 0,00 0,00 0,00 294,19 5.287,34 21.628,22 2.348,42 2.845,53 0,00 0,00 5.193,95 16.434,27 30/04/2023
741 480300 DESIREE ARANTES FERREIRA GOUVEA OFICIAL DO MP PRATÁPOLIS - COMARCA; PRATAPOLIS-PJ-UNPJ 7.506,70 1.501,34 0,00 0,00 0,00 1.222,23 0,00 2.078,00 12.308,27 1.222,23 1.607,85 0,00 0,00 2.830,08 9.478,19 30/04/2023
742 355300 DEYSE CRISTINA MORAIS OFICIAL DO MP PASSOS - COMARCA; PASSOS-PJ-02PJ 12.343,61 3.703,08 0,00 0,00 0,00 0,00 0,00 2.078,00 18.124,69 2.348,42 2.897,66 0,00 0,00 5.246,08 12.878,61 30/04/2023
743 523700 DIANA CAMPOS RESENDE OFICIAL DO MP SÃO JOÃO DEL REI - COMARCA; SAO JOAO DEL REI-PJ-04PJ 9.699,77 6.789,84 0,00 0,00 0,00 0,00 0,00 2.078,00 18.567,61 2.419,29 2.947,84 0,00 0,00 5.367,13 13.200,48 30/04/2023
744 241900 DIANA CARDOSO MARTINS OFICIAL DO MP BELO HORIZONTE - COMARCA; CAO-DH CONT EXT ATIV POLIC E AP COMUNIT 12.343,61 4.937,44 0,00 0,00 0,00 0,00 0,00 2.078,00 19.359,05 2.545,92 3.182,80 0,00 0,00 5.728,72 13.630,33 30/04/2023
745 410100 DIANA GORDILHO SILVEIRA SENA ANALISTA DO MP BELO HORIZONTE - COMARCA; BH-06PJ JUIZO CIVEL-SECRETARIA 18.130,77 3.626,15 0,00 0,00 0,00 0,00 319,10 5.559,11 27.635,13 3.262,06 4.216,73 0,00 0,00 7.478,79 20.156,34 30/04/2023
746 553000 DIANA MARIA MARQUES ANALISTA DO MP BETIM - COMARCA; BETIM-PJ-07PJ 12.343,61 1.234,36 0,00 0,00 0,00 0,00 0,00 2.078,00 15.655,97 1.953,42 2.275,25 0,00 0,00 4.228,67 11.427,30 30/04/2023
747 520000 DIARLE TOSTE DOS SANTOS ANALISTA DO MP RIO POMBA - COMARCA; RIO POMBA-PJ-UNPJ 12.343,61 2.468,72 0,00 0,00 0,00 0,00 0,00 2.078,00 16.890,33 2.150,92 1.896,43 0,00 0,00 4.047,35 12.842,98 30/04/2023
748 539800 DIEGO CAMARGOS RODRIGUES OFICIAL DO MP CONTAGEM - COMARCA; CONTAGEM-PJ-05PJ 7.506,70 1.501,34 0,00 0,00 0,00 0,00 0,00 2.078,00 11.086,04 1.222,23 1.271,74 0,00 0,00 2.493,97 8.592,07 30/04/2023
749 607300 DIEGO CERVEIRA DE SOUZA ANALISTA DO MP PATOS DE MINAS - COMARCA; COORD REG BACIAS PARACATU,URUCUIA E ABAETE 12.343,61 1.234,36 0,00 0,00 0,00 0,00 0,00 2.078,00 15.655,97 982,16 2.469,28 0,00 0,00 3.451,44 12.204,53 30/04/2023
750 446900 DIEGO DE FREITAS OFICIAL DO MP UBERABA - COMARCA; UBERABA-PJ-06PJ 10.516,49 2.103,30 0,00 0,00 0,00 0,00 0,00 2.078,00 14.697,79 1.800,11 2.106,05 0,00 0,00 3.906,16 10.791,63 30/04/2023
751 288800 DILENE NEPOMUCENO ALVES OFICIAL DO MP BELO HORIZONTE - COMARCA; DIRETORIA DE PESSOAL ADMINISTRATIVO - DPAD 12.343,61 3.703,08 0,00 0,00 0,00 0,00 0,00 2.078,00 18.124,69 2.348,42 2.897,66 0,00 0,00 5.246,08 12.878,61 30/04/2023
752 681200 DILLIANY PAULA LOPES SERRANO ASSESSOR PROMOTOR JUSTICA RESPLENDOR - COMARCA; RESPLENDOR-PJ-UNPJ 0,00 0,00 8.810,89 0,00 0,00 0,00 0,00 3.028,00 11.838,89 877,22 1.724,90 0,00 0,00 2.602,12 9.236,77 30/04/2023
753 270101 DILSON DO AMARAL ANALISTA DO MP RIO CASCA - COMARCA; RIO CASCA-PJ-UNPJ 12.343,61 2.468,72 0,00 0,00 0,00 0,00 1.234,36 2.078,00 18.124,69 2.348,42 2.897,66 0,00 0,00 5.246,08 12.878,61 30/04/2023
754 466000 DIMITRI GUDE MARCIAL ANALISTA DO MP NANUQUE - COMARCA; NANUQUE-PJ-02PJ 12.343,61 2.468,72 0,00 0,00 0,00 0,00 0,00 3.978,00 18.790,33 2.150,92 2.456,12 0,00 0,00 4.607,04 14.183,29 30/04/2023
755 516300 DINORA APARECIDA MACEDO BRANDAO ANALISTA DO MP BELO HORIZONTE - COMARCA; BH-19PJ SAUDE-SECRETARIA 150PJ 12.343,61 2.468,72 0,00 0,00 0,00 0,00 0,00 2.078,00 16.890,33 2.150,92 2.612,53 0,00 0,00 4.763,45 12.126,88 30/04/2023
756 511700 DIOGENES HENRIQUES PEREIRA LOURENCO ANALISTA DO MP BELO HORIZONTE - COMARCA; BH-03PJ EMPRESARIAL-SECRETARIA 12.343,61 2.468,72 0,00 0,00 0,00 0,00 0,00 3.028,00 17.840,33 982,16 2.783,28 0,00 0,00 3.765,44 14.074,89 30/04/2023
757 604100 DIOGO CESAR DE OLIVEIRA HONORIO ASSESSOR ADMINISTRATIVO III PIUMHI - COMARCA; PIUMHI-PJ-02PJ 0,00 0,00 10.858,90 0,00 0,00 0,00 0,00 2.078,00 12.936,90 877,22 2.288,10 0,00 0,00 3.165,32 9.771,58 30/04/2023
758 259600 DIOGO MESQUITA MAIA ANALISTA DO MP BELO HORIZONTE - COMARCA; DIRET DE APOIO AS PROCURADORIAS DE JUSTICA 22.191,68 19.972,51 0,00 0,00 0,00 5.795,34 477,24 7.284,23 55.721,00 5.795,34 9.415,74 4.574,23 0,00 19.785,31 35.935,69 30/04/2023
759 386700 DIRCIMAR FERNANDES CARNEIRO OFICIAL DO MP VISCONDE DO RIO BRANCO - COMARCA; VISCONDE DO RIO BRANCO-PJ-03PJ 12.343,61 8.640,53 0,00 0,00 0,00 0,00 76,94 2.917,37 23.978,45 3.138,41 4.038,22 0,00 0,00 7.176,63 16.801,82 30/04/2023
760 113800 DIRSON APARECIDO GUIMARAES ASSESSOR ADMINISTRATIVO II BELO HORIZONTE - COMARCA; DIVISAO DE MANUTENCAO PREDIAL 0,00 7.506,70 7.506,70 0,00 0,00 0,00 0,00 2.078,00 17.091,40 877,22 3.430,59 0,00 0,00 4.307,81 12.783,59 30/04/2023
761 216700 DOMICIO VALDETE PEREIRA OFICIAL DO MP TEÓFILO OTONI - COMARCA; COORD REG PJ DEF EDU DIR CRIAN ADOL JEQUI MUC 20.533,67 8.213,47 0,00 0,00 0,00 0,00 527,03 7.827,43 37.101,60 4.380,49 5.727,19 0,00 0,00 10.107,68 26.993,92 30/04/2023
762 192701 DONIZETTI APARECIDO AMORIM ANALISTA DO MP PRATÁPOLIS - COMARCA; PRATAPOLIS-PJ-UNPJ 12.224,29 4.937,44 0,00 0,00 5.760,35 0,00 506,91 7.607,94 31.036,93 2.545,92 4.681,95 0,00 0,00 7.227,87 23.809,06 30/04/2023
763 558700 DORCILIA FATIMA DE OLIVEIRA OFICIAL DO MP DIVINÓPOLIS - COMARCA; DIVINOPOLIS-PJ-02PJ 7.506,70 750,67 0,00 0,00 0,00 1.102,13 0,00 2.078,00 11.437,50 1.102,13 1.349,28 0,00 0,00 2.451,41 8.986,09 30/04/2023
764 555300 DOUGLAS CUNHA DE SOUZA ANALISTA DO MP VARZEA DA PALMA - COMARCA; VARZEA DA PALMA-PJ-01PJ 12.343,61 1.234,36 0,00 0,00 0,00 0,00 0,00 3.028,00 16.605,97 982,16 2.469,28 0,00 0,00 3.451,44 13.154,53 30/04/2023
765 265900 DOUGLAS GOMES MOREIRA ANALISTA DO MP BELO HORIZONTE - COMARCA; CENTRAL DE APOIO TECNICO-SETOR DE ENGENHARIA 23.070,31 6.921,09 0,00 0,00 0,00 0,00 0,00 2.078,00 32.069,40 4.579,57 6.118,89 0,00 0,00 10.698,46 21.370,94 30/04/2023
766 241000 DOUGLAS MEIRELLES DE CASTRO OFICIAL DO MP CONCEIÇÃO DO RIO VERDE - COMARCA; CONCEICAO DO RIO VERDE-PJ-UNPJ 17.559,01 7.023,60 0,00 0,00 0,00 0,00 0,00 2.078,00 26.660,61 3.714,17 4.817,32 0,00 0,00 8.531,49 18.129,12 30/04/2023
767 534900 DOUGLAS SILVA E SOUZA ANALISTA DO MP CAMPOS GERAIS - COMARCA; CAMPOS GERAIS-PJ-01PJ 12.343,61 2.468,72 0,00 0,00 0,00 0,00 0,00 2.078,00 16.890,33 982,16 2.731,14 0,00 0,00 3.713,30 13.177,03 30/04/2023
768 638900 DOUGLAS WALLAS CONCEICAO NEVES OFICIAL DO MP RIBEIRÃO DAS NEVES - COMARCA; RIBEIRAO DAS NEVES-PJ-SEC CIVEL 6.603,76 660,38 0,00 0,00 0,00 0,00 0,00 2.078,00 9.342,14 944,43 868,56 0,00 0,00 1.812,99 7.529,15 30/04/2023
769 146800 DUCINALVA AMARAL LOPES REIS OFICIAL DO MP PARAISÓPOLIS - COMARCA; PARAISOPOLIS-PJ-UNPJ 23.070,31 18.456,25 0,00 0,00 0,00 5.795,34 477,24 7.284,24 55.083,38 5.795,34 9.363,60 3.936,60 0,00 19.095,54 35.987,84 30/04/2023
770 122500 DUILIO CARLOS FERREIRA UTSCH OFICIAL DO MP CONCEIÇÃO DO MATO DENTRO - COMARCA; CONCEICAO DO MATO DENTRO-PJ-UNPJ 20.533,67 18.480,31 0,00 0,00 0,00 5.795,34 0,00 2.078,00 46.887,32 5.795,34 9.467,88 1.424,02 0,00 16.687,24 30.200,08 30/04/2023
771 201800 DULCINEIA ANDRE DE SOUZA OFICIAL DO MP JEQUITINHONHA - COMARCA; JEQUITINHONHA-PJ-SECRETARIA 20.533,67 8.213,47 0,00 0,00 0,00 0,00 0,00 2.078,00 30.825,14 4.380,49 5.675,06 0,00 0,00 10.055,55 20.769,59 30/04/2023
772 395800 DUVIDIER MEDIRCIO JUNIOR ANALISTA DO MP BELO HORIZONTE - COMARCA; CENTRAL DE APOIO TECNICO-SETOR DE ENGENHARIA 19.751,60 5.925,48 0,00 0,00 0,00 0,00 1.975,16 2.078,00 29.730,24 4.205,31 5.578,55 0,00 0,00 9.783,86 19.946,38 30/04/2023
773 604800 ECIA RAMILIS ISSA DE ABREU ANALISTA DO MP BRASÍLIA DE MINAS - COMARCA; BRASILIA DE MINAS-PJ-01PJ 12.343,61 1.234,36 0,00 0,00 0,00 0,00 0,00 3.028,00 16.605,97 1.953,42 2.327,39 0,00 0,00 4.280,81 12.325,16 30/04/2023
774 273000 EDELFINA APARECIDA GUIMARAES OFICIAL DO MP CACHOEIRA DE MINAS - COMARCA; CACHOEIRA DE MINAS-PJ-UNPJ 13.588,97 10.871,18 0,00 0,00 0,00 0,00 0,00 2.078,00 26.538,15 3.694,57 4.789,04 0,00 0,00 8.483,61 18.054,54 30/04/2023
775 523300 EDER DOS SANTOS PATRICIO ANALISTA DO MP NOVA SERRANA - COMARCA; NOVA SERRANA-PJ-03PJ 12.343,61 2.468,72 0,00 0,00 0,00 0,00 0,00 3.028,00 17.840,33 982,16 2.731,14 0,00 0,00 3.713,30 14.127,03 30/04/2023
776 356700 EDER JOSE PACHECO OFICIAL DO MP CAMPO BELO - COMARCA; CAMPO BELO-PJ-04PJ 12.343,61 3.703,08 0,00 0,00 0,00 0,00 8.503,96 2.078,00 26.628,65 2.348,42 4.989,23 0,00 0,00 7.337,65 19.291,00 30/04/2023
777 507900 EDERSON SILVA LOPES OFICIAL DO MP BELO HORIZONTE - COMARCA; LABORATORIO TECNOLOGIA INTELIGENCIA 9.097,81 1.819,56 0,00 0,00 0,00 0,00 0,00 2.078,00 12.995,37 1.527,73 1.608,52 0,00 0,00 3.136,25 9.859,12 30/04/2023
778 296200 EDGARD GOULART MATOSINHO DE LAET JR ANALISTA DO MP GOVERNADOR VALADARES - COMARCA; GOVERNADOR VALADARES-PJ-12PJ 22.191,68 6.657,50 0,00 0,00 0,00 0,00 528,90 7.847,84 37.225,92 4.396,82 5.750,76 0,00 0,00 10.147,58 27.078,34 30/04/2023
779 295000 EDILA MARIA DA SILVEIRA OFICIAL DO MP FORMIGA - COMARCA; FORMIGA-PJ-01PJ 12.343,61 3.703,08 0,00 0,00 0,00 0,00 0,00 2.078,00 18.124,69 2.348,42 2.897,66 0,00 0,00 5.246,08 12.878,61 30/04/2023
780 332300 EDILA MARILAC MIRANDA PRADO OFICIAL DO MP DIAMANTINA - COMARCA; DIAMANTINA-PJ-01PJ 12.343,61 6.171,81 0,00 0,00 0,00 0,00 0,00 2.078,00 20.593,42 2.743,42 3.363,67 0,00 0,00 6.107,09 14.486,33 30/04/2023
781 376600 EDILANE CONSOLACAO ROSA NAZARETH ANALISTA DO MP BETIM - COMARCA; BETIM-PJ-10PJ 18.720,84 5.616,25 0,00 0,00 0,00 0,00 0,00 2.078,00 26.415,09 982,16 5.206,14 0,00 0,00 6.188,30 20.226,79 30/04/2023
782 309800 EDILZA DOS REIS OFICIAL DO MP UBERLÂNDIA - COMARCA; UBERLANDIA-PJ-03PJ 12.343,61 3.703,08 0,00 0,00 0,00 0,00 0,00 2.078,00 18.124,69 2.348,42 2.845,53 0,00 0,00 5.193,95 12.930,74 30/04/2023
783 200500 EDINEIA MARIA DE OLIVEIRA ANTUNES OFICIAL DO MP MONTES CLAROS - COMARCA; MONTES CLAROS-PJ-10PJ 20.533,67 10.266,84 0,00 0,00 0,00 0,00 451,74 7.006,08 38.258,33 4.709,03 6.305,80 0,00 0,00 11.014,83 27.243,50 30/04/2023
784 427700 EDISANGELA SOARES LOPES OFICIAL DO MP PIRAPORA - COMARCA; PIRAPORA-PJ-02PJ 7.506,70 1.501,34 0,00 0,00 0,00 0,00 0,00 2.078,00 11.086,04 1.222,23 1.271,74 0,00 0,00 2.493,97 8.592,07 30/04/2023
785 555400 EDISON MONTEIRO SAMPAIO NETO ANALISTA DO MP BELO HORIZONTE - COMARCA; BH-12PJ JUIZO CRIMINAL-GAB 094PJ 12.343,61 1.234,36 0,00 0,00 0,00 0,00 0,00 2.078,00 15.655,97 1.953,42 2.327,39 0,00 0,00 4.280,81 11.375,16 30/04/2023
786 517700 EDMILSON TADEU FERNANDES OFICIAL DO MP POUSO ALEGRE - COMARCA; GAECO REGIONAL DE POUSO ALEGRE 9.393,95 1.878,79 0,00 0,00 0,00 0,00 0,00 2.078,00 13.350,74 1.584,59 1.794,88 0,00 0,00 3.379,47 9.971,27 30/04/2023
787 358400 EDNA APARECIDA SILVA FERREIRA OFICIAL DO MP CORONEL FABRICIANO - COMARCA; CORONEL FABRICIANO-PJ-02PJ 13.588,97 4.076,69 0,00 0,00 0,00 0,00 64,77 2.784,63 20.515,06 2.607,45 3.167,37 0,00 0,00 5.774,82 14.740,24 30/04/2023
788 331800 EDNA MARCIA CAMILO DA SILVA OFICIAL DO MP SETE LAGOAS - COMARCA; SETE LAGOAS-PJ-SEC CRIMINAIS 12.343,61 3.703,08 0,00 0,00 5.348,90 0,00 529,54 7.854,81 29.779,94 2.348,42 4.316,47 0,00 0,00 6.664,89 23.115,05 30/04/2023
789 327900 EDRIEL SANTANA PEREIRA OFICIAL DO MP TUPACIGUARA - COMARCA; TUPACIGUARA-PJ-01PJ 12.343,61 3.703,08 0,00 0,00 0,00 0,00 0,00 3.127,09 19.173,78 2.348,42 2.897,66 0,00 0,00 5.246,08 13.927,70 30/04/2023
790 482400 EDSON GARCIA OFICIAL DO MP MACHADO - COMARCA; MACHADO-PJ-02PJ 7.506,70 1.501,34 0,00 0,00 0,00 0,00 0,00 2.078,00 11.086,04 1.222,23 1.167,46 0,00 0,00 2.389,69 8.696,35 30/04/2023
791 225601 EDSON LABRE FILHO ANALISTA DO MP VARGINHA - COMARCA; VARGINHA-PJ-01PJ 22.191,68 8.876,67 0,00 0,00 0,00 0,00 455,67 7.048,94 38.572,96 4.751,88 6.315,53 0,00 0,00 11.067,41 27.505,55 30/04/2023
792 602700 EDSON NOGUEIRA BUENO OFICIAL DO MP PITANGUI - COMARCA; PITANGUI-PJ-02PJ 7.506,70 750,67 0,00 0,00 0,00 0,00 0,00 2.078,00 10.335,37 1.102,13 1.098,33 0,00 0,00 2.200,46 8.134,91 30/04/2023
793 716500 EDUARDA CORREA MOREIRA ASSESSOR ADMINISTRATIVO I BELO HORIZONTE - COMARCA; DIRET DE FORMACAO, APERFEIC. E POS-GRADUACAO 0,00 0,00 4.872,71 0,00 0,00 0,00 0,00 3.028,00 7.900,71 718,35 685,59 0,00 0,00 1.403,94 6.496,77 30/04/2023
794 414400 EDUARDO ABRANTES CAMPOS ANALISTA DO MP SÃO JOÃO DEL REI - COMARCA; SAO JOAO DEL REI-PJ-02PJ 18.130,77 3.626,15 0,00 0,00 0,00 0,00 319,10 5.559,11 27.635,13 3.262,06 4.216,73 0,00 0,00 7.478,79 20.156,34 30/04/2023
795 476800 EDUARDO ALVES DE MOURA ANALISTA DO MP UBERLÂNDIA - COMARCA; UBERLANDIA-PJ-02PJ 12.343,61 2.468,72 0,00 0,00 0,00 0,00 0,00 3.028,00 17.840,33 982,16 2.626,86 0,00 0,00 3.609,02 14.231,31 30/04/2023
796 390800 EDUARDO AMORIM PETTERSEN OFICIAL DO MP CARANGOLA - COMARCA; CARANGOLA-PJ-SECRETARIA 11.212,54 3.363,76 0,00 0,00 0,00 0,00 106,89 3.244,10 17.927,29 2.113,16 2.558,00 0,00 0,00 4.671,16 13.256,13 30/04/2023
797 461600 EDUARDO ANTONIO DE ASSIS FARIA ASSESSOR ADMINISTRATIVO III BELO HORIZONTE - COMARCA; ASSESS EXECUTIVA DO CONSELHO SUPERIOR DO MP 0,00 0,00 10.858,90 0,00 0,00 0,00 0,00 2.078,00 12.936,90 877,22 2.235,96 0,00 0,00 3.113,18 9.823,72 30/04/2023
798 248800 EDUARDO DE CASTRO AMORIM ANALISTA DO MP BELO HORIZONTE - COMARCA; SUPER DE GESTAO DE PESSOAS-LOTACAO TEMPORARIA 23.070,31 9.228,12 0,00 0,00 0,00 0,00 473,71 7.245,75 40.017,89 4.948,70 6.651,82 0,00 0,00 11.600,52 28.417,37 30/04/2023
799 209100 EDUARDO DE SOUZA MAIA ANALISTA DO MP BELO HORIZONTE - COMARCA; SUPER DE GESTAO DE PESSOAS-LOTACAO TEMPORARIA 23.070,31 9.228,12 0,00 0,00 0,00 0,00 0,00 2.078,00 34.376,43 4.948,70 6.547,54 0,00 0,00 11.496,24 22.880,19 30/04/2023
800 633900 EDUARDO GONCALVES PIRES OFICIAL DO MP BELO HORIZONTE - COMARCA; DIRETORIA DE PAGAMENTO DE PESSOAL-DPAG 8.264,07 3.305,63 0,00 0,00 0,00 0,00 509,07 7.631,46 19.710,23 1.632,10 1.863,48 0,00 0,00 3.495,58 16.214,65 30/04/2023
801 350500 EDUARDO GONCALVES RIBEIRO OFICIAL DO MP VESPASIANO - COMARCA; VESPASIANO-PJ-04PJ 11.577,56 3.473,27 0,00 0,00 0,00 0,00 0,00 2.078,00 17.128,83 2.189,08 2.667,62 0,00 0,00 4.856,70 12.272,13 30/04/2023
802 115800 EDUARDO HENRIQUE DE CAMPOS MAIA OFICIAL DO MP BELO HORIZONTE - COMARCA; DIV FISCAL ADM CONT TERCEIRIZACAO 22.191,68 15.534,18 0,00 0,00 0,00 0,00 413,48 6.588,79 44.728,13 5.795,34 7.717,75 135,90 0,00 13.648,99 31.079,14 30/04/2023
803 392600 EDUARDO HENRIQUE DOS SANTOS COSTA ELIAZAR OFICIAL DO MP MATOZINHOS - COMARCA; MATOZINHOS-PJ-01PJ 10.858,90 3.257,67 0,00 0,00 0,00 0,00 1.137,65 2.642,67 17.896,89 2.213,34 2.598,37 0,00 0,00 4.811,71 13.085,18 30/04/2023
804 99101 EDUARDO JOSE DE FREITAS NUNES ASSESSOR ADMINISTRATIVO II BELO HORIZONTE - COMARCA; PROC JUST ATUACAO TRIBUNAIS SUPERIORES-GAB007 0,00 3.753,35 7.506,70 0,00 0,00 0,00 0,00 2.078,00 13.338,05 877,22 2.398,42 0,00 0,00 3.275,64 10.062,41 30/04/2023
805 407500 EDUARDO MASCARENHAS CURI AZEVEDO ANALISTA DO MP BELO HORIZONTE - COMARCA; DIR CONTEUDO JORNALISTICO 12.343,61 2.468,72 0,00 0,00 0,00 0,00 0,00 3.028,00 17.840,33 2.150,92 2.612,53 0,00 0,00 4.763,45 13.076,88 30/04/2023
806 601300 EDUARDO TRAD VIEIRA OFICIAL DO MP BELO HORIZONTE - COMARCA; SUPER DE GESTAO DE PESSOAS-LOTACAO TEMPORARIA 7.506,70 750,67 0,00 0,00 0,00 0,00 0,00 2.078,00 10.335,37 1.102,13 1.098,33 0,00 0,00 2.200,46 8.134,91 30/04/2023
807 257600 EDUARDO VALADARES CABRAL ANALISTA DO MP BELO HORIZONTE - COMARCA; COORD DE INCLUSAO E MOBILIZACAO SOCIAIS 23.070,31 9.228,12 0,00 0,00 0,00 0,00 0,00 2.078,00 34.376,43 4.948,70 6.651,82 0,00 0,00 11.600,52 22.775,91 30/04/2023
808 545700 EDVAIR FERREIRA DE CARVALHO OFICIAL DO MP ARAGUARI - COMARCA; ARAGUARI-PJ-06PJ 7.506,70 1.501,34 0,00 0,00 0,00 0,00 750,67 2.078,00 11.836,71 1.342,34 1.393,00 0,00 0,00 2.735,34 9.101,37 30/04/2023
809 401700 EDWANIA AMORIM DO CARMO OFICIAL DO MP RIBEIRÃO DAS NEVES - COMARCA; RIBEIRAO DAS NEVES-PJ-03PJ 12.343,61 2.468,72 0,00 0,00 0,00 0,00 162,94 3.855,48 18.830,75 2.150,92 2.612,53 0,00 0,00 4.763,45 14.067,30 30/04/2023
810 303600 EFIGENIO SARAIVA LOPES ANALISTA DO MP BELO HORIZONTE - COMARCA; DIRETORIA DE PAGAMENTO DE PESSOAL-DPAG 23.070,31 6.921,09 5.538,92 0,00 0,00 0,00 521,11 7.762,85 43.814,28 4.579,57 7.589,96 0,00 0,00 12.169,53 31.644,75 30/04/2023
811 286000 ELAINE APARECIDA SILVA BERZOINI OFICIAL DO MP JUIZ DE FORA - COMARCA; JUIZ DE FORA-PJ-07PJ 12.343,61 3.703,08 0,00 0,00 0,00 0,00 0,00 2.078,00 18.124,69 2.348,42 2.897,66 0,00 0,00 5.246,08 12.878,61 30/04/2023
812 509000 ELAINE CANDIDA PONTES OFICIAL DO MP BELO HORIZONTE - COMARCA; BH-02PJ FAMILIA-SECRETARIA 10.341,72 2.068,34 0,00 0,00 0,00 0,00 0,00 2.078,00 14.488,06 1.766,56 2.057,60 0,00 0,00 3.824,16 10.663,90 30/04/2023
813 283601 ELAINE CRISTINA MEQUELINO DUARTE ANALISTA DO MP ALFENAS - COMARCA; ALFENAS-PJ-02PJ 18.720,84 5.616,25 0,00 0,00 0,00 0,00 446,18 6.945,42 31.728,69 3.674,88 4.708,47 0,00 0,00 8.383,35 23.345,34 30/04/2023
814 535500 ELAINE DE OLIVEIRA CAMPOS REIS OFICIAL DO MP RIBEIRÃO DAS NEVES - COMARCA; RIBEIRAO NEVES-SEC PJ EXECUCAO PENAL 7.506,70 1.501,34 0,00 0,00 0,00 0,00 495,44 7.482,82 16.986,30 1.222,23 1.271,74 0,00 0,00 2.493,97 14.492,33 30/04/2023
815 455700 ELAINE DE OLIVEIRA CASTRO ANALISTA DO MP POMPÉU - COMARCA; POMPEU-PJ-UNPJ 12.343,61 2.468,72 0,00 0,00 0,00 0,00 0,00 2.078,00 16.890,33 2.150,92 2.508,25 0,00 0,00 4.659,17 12.231,16 30/04/2023
816 367200 ELAINE MUNIZ BARBOSA ANALISTA DO MP BELO HORIZONTE - COMARCA; DIRETORIA DE SISTEMAS DE INFORMACAO 20.533,67 6.160,10 0,00 0,00 0,00 0,00 0,00 3.028,00 29.721,77 4.051,95 5.305,00 0,00 0,00 9.356,95 20.364,82 30/04/2023
817 679200 ELAINE RIBEIRO CHAVES ASSESSOR PROCURADOR JUSTICA BELO HORIZONTE - COMARCA; GABINETE DE PROCURADOR DE JUSTIÇA - SALA 614 0,00 0,00 8.810,89 0,00 0,00 0,00 0,00 2.078,00 10.888,89 877,22 1.672,76 0,00 0,00 2.549,98 8.338,91 30/04/2023
818 176900 ELAINE RIBEIRO TAVEIRA OFICIAL DO MP BELO HORIZONTE - COMARCA; DIVISAO FROTA 17.005,40 6.802,16 0,00 0,00 0,00 0,00 349,18 5.887,21 30.043,95 3.590,16 4.690,43 0,00 0,00 8.280,59 21.763,36 30/04/2023
819 496200 ELAINE SABRINA MOREIRA SCHUWARTEN ANALISTA DO MP IPATINGA - COMARCA; GAECO REGIONAL DE IPATINGA 13.588,97 2.717,79 0,00 0,00 0,00 0,00 0,00 2.078,00 18.384,76 2.390,03 2.957,74 0,00 0,00 5.347,77 13.036,99 30/04/2023
820 489200 ELAINE VICENTINO GARCIA ANALISTA DO MP BELO HORIZONTE - COMARCA; CENTRAL DE APOIO TECNICO-SETOR CONTABIL 12.343,61 4.937,44 0,00 0,00 0,00 0,00 0,00 2.078,00 19.359,05 2.545,92 3.078,53 0,00 0,00 5.624,45 13.734,60 30/04/2023
821 731400 ELBERT MENDES PINHEIRO ASSESSOR PROMOTOR JUSTICA BELO HORIZONTE - COMARCA; COORD ESTADUAL DAS PJS DE HAB. E URBANISMO 0,00 0,00 8.810,89 0,00 0,00 0,00 0,00 2.078,00 10.888,89 877,22 1.724,90 0,00 0,00 2.602,12 8.286,77 30/04/2023
822 244500 ELCI ALVES DE SOUZA ASSESSOR ADMINISTRATIVO II BELO HORIZONTE - COMARCA; CAO-CONFLITOS AGRARIOS-SECRETARIA 0,00 3.002,68 7.506,70 0,00 0,00 0,00 0,00 2.078,00 12.587,38 877,22 2.139,85 0,00 0,00 3.017,07 9.570,31 30/04/2023
823 472500 ELCI VAZ DE OLIVEIRA FILHO ANALISTA DO MP PIUMHI - COMARCA; PIUMHI-PJ-02PJ 12.343,61 6.171,81 0,00 0,00 0,00 0,00 0,00 2.078,00 20.593,42 2.743,42 3.467,94 0,00 0,00 6.211,36 14.382,06 30/04/2023
824 385200 ELCI VIANA REIS OFICIAL DO MP RIO PARDO DE MINAS - COMARCA; RIO PARDO DE MINAS-PJ-SECRETARIA 12.343,61 6.171,81 0,00 0,00 0,00 0,00 0,00 2.271,83 20.787,25 2.743,42 3.467,94 0,00 0,00 6.211,36 14.575,89 30/04/2023
825 289801 ELCIO JOSE DOS SANTOS ANALISTA DO MP BELO HORIZONTE - COMARCA; DIVISAO DE SERVICOS 12.343,61 2.468,72 5.538,92 0,00 0,00 0,00 0,00 2.078,00 22.429,25 2.150,92 4.135,73 0,00 0,00 6.286,65 16.142,60 30/04/2023
826 319600 ELEN TULER DE ALBERGARIA ANALISTA DO MP BELO HORIZONTE - COMARCA; BH-19PJ SAUDE-SECRETARIA 130PJ 23.070,31 9.228,12 0,00 0,00 0,00 0,00 0,00 2.078,00 34.376,43 4.948,70 6.651,82 0,00 0,00 11.600,52 22.775,91 30/04/2023
827 205500 ELIANA ALVES DE SOUSA OFICIAL DO MP GOVERNADOR VALADARES - COMARCA; GOVERNADOR VALADARES-PJ-07PJ 12.343,61 4.937,44 0,00 0,00 0,00 0,00 0,00 2.078,00 19.359,05 2.545,92 3.182,80 0,00 0,00 5.728,72 13.630,33 30/04/2023
828 628800 ELIANA APARECIDA PEREIRA ANALISTA DO MP CAMBUÍ - COMARCA; CAMBUI-PJ-02PJ 10.516,49 1.051,65 0,00 0,00 0,00 0,00 0,00 2.078,00 13.646,14 1.631,85 1.810,98 0,00 0,00 3.442,83 10.203,31 30/04/2023
829 301700 ELIANA DA SILVEIRA ANALISTA DO MP BELO HORIZONTE - COMARCA; BH-11PJ COMB CRIME ORGANIZ-GAB 081PJ 21.346,53 6.403,96 0,00 0,00 0,00 0,00 101,75 3.188,02 31.040,26 4.221,03 5.601,24 0,00 0,00 9.822,27 21.217,99 30/04/2023
830 251500 ELIANA DE LIMA MILAGRES FONSECA ANALISTA DO MP CONTAGEM - COMARCA; CONTAGEM-PJ-16PJ 23.070,31 9.228,12 0,00 0,00 0,00 0,00 473,71 7.245,75 40.017,89 4.948,70 6.599,68 0,00 0,00 11.548,38 28.469,51 30/04/2023
831 503900 ELIANA DIAS DUTRA FERREIRA OFICIAL DO MP BELO HORIZONTE - COMARCA; DIRETORIA GESTAO COMPRAS LICITACOES 10.516,49 2.103,30 0,00 0,00 0,00 0,00 509,00 7.630,71 20.759,50 1.800,11 2.053,91 0,00 0,00 3.854,02 16.905,48 30/04/2023
832 413900 ELIANA PINTO DE OLIVEIRA NEVES ANALISTA DO MP CAMPO BELO - COMARCA; CAMPO BELO-PJ-04PJ 17.559,01 3.511,80 0,00 0,00 0,00 0,00 309,04 5.449,33 26.829,18 3.152,28 4.058,24 0,00 0,00 7.210,52 19.618,66 30/04/2023
833 228200 ELIANA RODRIGUES DA CUNHA PINHEIRO OFICIAL DO MP BELO HORIZONTE - COMARCA; DIRETORIA DE PROJETOS DE EDIFICACOES 17.559,01 7.023,60 0,00 0,00 0,00 3.714,17 518,77 7.737,36 36.552,91 3.714,17 5.890,86 0,00 0,00 9.605,03 26.947,88 30/04/2023
834 386600 ELIANA SABINO CHAVES PESSOA ANALISTA DO MP CARATINGA - COMARCA; CARATINGA-PJ-06PJ 18.130,77 12.691,55 0,00 0,00 0,00 4.712,52 521,18 7.763,58 43.819,60 4.712,52 7.554,64 0,00 0,00 12.267,16 31.552,44 30/04/2023
835 677500 ELIANA SILVA ANDRADE ASSESSOR PROMOTOR JUSTICA TRÊS CORACOES - COMARCA; TRES CORACOES-PJ-06PJ 0,00 0,00 8.810,89 0,00 2.936,96 0,00 549,21 8.069,41 20.366,47 877,22 2.532,56 0,00 0,00 3.409,78 16.956,69 30/04/2023
836 297400 ELIANE AUGUSTA RIBEIRO COSTA ANALISTA DO MP CONSELHEIRO LAFAIETE - COMARCA; CONSELHEIRO LAFAIETE-PJ-05PJ 23.070,31 6.921,09 0,00 0,00 0,00 0,00 549,84 8.076,28 38.617,52 4.579,57 6.014,62 0,00 0,00 10.594,19 28.023,33 30/04/2023
837 510600 ELIANE CAROLINA MAIA ANALISTA DO MP IGARAPÉ - COMARCA; IGARAPE-PJ-03PJ 12.343,61 2.468,72 0,00 0,00 0,00 0,00 0,00 2.078,00 16.890,33 2.150,92 2.456,12 0,00 0,00 4.607,04 12.283,29 30/04/2023
838 262600 ELIANE FERREIRA SOARES ASSESSOR ADMINISTRATIVO II BELO HORIZONTE - COMARCA; BH-18PJ DIREITOS HUMANOS-SECRETARIA 0,00 3.002,68 7.506,70 0,00 0,00 0,00 0,00 2.078,00 12.587,38 877,22 2.191,98 0,00 0,00 3.069,20 9.518,18 30/04/2023
839 204400 ELIANE GLAUCE DE QUEIROS MAIA OFICIAL DO MP GUANHÃES - COMARCA; GUANHAES-PJ-02PJ 20.533,67 8.213,47 0,00 0,00 0,00 0,00 527,03 7.827,43 37.101,60 4.380,49 5.831,47 0,00 0,00 10.211,96 26.889,64 30/04/2023
840 91800 ELIANE KAPLER ALVES OFICIAL DO MP BELO HORIZONTE - COMARCA; DIVISAO DE CONTROLE IMOBILIARIO 23.070,31 16.149,22 0,00 0,00 0,00 5.795,34 477,23 7.284,23 52.776,33 5.795,34 9.363,60 1.629,57 0,00 16.788,51 35.987,82 30/04/2023
841 334200 ELIANE MARCIA DE OLIVEIRA BRITO OFICIAL DO MP BELO HORIZONTE - COMARCA; BH-08PJ JUIZADO ESPECIAL-SECRETARIA 7.506,70 2.252,01 0,00 0,00 0,00 0,00 0,00 2.078,00 11.836,71 1.342,34 1.445,14 0,00 0,00 2.787,48 9.049,23 30/04/2023
842 365900 ELIANE MARIA DE OLIVEIRA FERREIRA OFICIAL DO MP SETE LAGOAS - COMARCA; SETE LAGOAS-PJ-SEC CRIMINAIS 12.343,61 6.171,81 0,00 0,00 0,00 0,00 0,00 2.078,00 20.593,42 2.743,42 3.467,94 0,00 0,00 6.211,36 14.382,06 30/04/2023
843 320600 ELIANE STADLER DE SOUZA OFICIAL DO MP MONTES CLAROS - COMARCA; MONTES CLAROS-PJ-13PJ 11.577,56 3.473,27 0,00 0,00 0,00 0,00 0,00 2.078,00 17.128,83 2.189,08 2.615,48 0,00 0,00 4.804,56 12.324,27 30/04/2023
844 448900 ELIAS PEREIRA OTONI ASSESSOR ADMINISTRATIVO II BELO HORIZONTE - COMARCA; BH-18PJ DIREITOS HUMANOS-SECRETARIA 0,00 0,00 7.506,70 0,00 0,00 0,00 0,00 2.078,00 9.584,70 877,22 1.261,97 0,00 0,00 2.139,19 7.445,51 30/04/2023
845 495400 ELICA SOUZA GASPARONI MATTOS OFICIAL DO MP UBÁ - COMARCA; UBA-PJ-06PJ 10.516,49 2.103,30 0,00 0,00 0,00 0,00 0,00 2.078,00 14.697,79 1.800,11 2.106,05 0,00 0,00 3.906,16 10.791,63 30/04/2023
846 86600 ELIENE FERREIRA DA SILVA OFICIAL DO MP BELO HORIZONTE - COMARCA; BH-22PJ PES COM DEF E IDOSOS-SECRETARIA 25.920,35 20.736,29 0,00 0,00 0,00 5.795,34 477,24 7.284,24 60.213,46 5.795,34 9.311,47 9.066,68 0,00 24.173,49 36.039,97 30/04/2023
847 183800 ELIENE MARIA CUNHA OFICIAL DO MP BELO HORIZONTE - COMARCA; DIRETORIA DE PESSOAL ADMINISTRATIVO - DPAD 21.346,53 8.538,61 0,00 0,00 0,00 0,00 547,89 8.055,03 38.488,06 4.562,57 6.042,21 0,00 0,00 10.604,78 27.883,28 30/04/2023
848 172300 ELINA APARECIDA SILVA ASSESSOR ADMINISTRATIVO I BELO HORIZONTE - COMARCA; BH-19PJ SAUDE-SECRETARIA 130PJ 0,00 1.949,08 4.872,71 0,00 0,00 0,00 0,00 2.078,00 8.899,79 877,22 1.125,76 0,00 0,00 2.002,98 6.896,81 30/04/2023
849 492501 ELINE CAMPOS DA FONSECA CUNHA ANALISTA DO MP PONTE NOVA - COMARCA; PONTE NOVA-PJ-05PJ 12.343,61 2.468,72 0,00 0,00 0,00 0,00 0,00 2.078,00 16.890,33 2.150,92 2.612,53 0,00 0,00 4.763,45 12.126,88 30/04/2023
850 618900 ELISA MOURA VIEIRA MARCATTI OFICIAL DO MP BELO HORIZONTE - COMARCA; GRUPO ESP PROM JUST DEF PROB ADM PAT PUB 7.506,70 750,67 0,00 0,00 0,00 0,00 0,00 3.028,00 11.285,37 1.102,13 1.098,33 0,00 0,00 2.200,46 9.084,91 30/04/2023
851 256500 ELISABETE NOGUEIRA ANALISTA DO MP RIBEIRÃO DAS NEVES - COMARCA; RIBEIRAO NEVES-SEC PJ EXECUCAO PENAL 18.720,84 9.360,42 0,00 0,00 0,00 0,00 0,00 2.078,00 30.159,26 4.273,95 5.469,10 0,00 0,00 9.743,05 20.416,21 30/04/2023
852 355000 ELISANGELA DARLANTONI RIBEIRO OFICIAL DO MP ARAXÁ - COMARCA; ARAXA-PJ-05PJ 11.954,43 3.586,33 0,00 0,00 0,00 0,00 0,00 2.078,00 17.618,76 2.267,47 2.728,66 0,00 0,00 4.996,13 12.622,63 30/04/2023
853 604400 ELISANGELA DEMASI FERREIRA MOREIRA ANALISTA DO MP CABO VERDE - COMARCA; CABO VERDE-PJ-UNPJ 12.343,61 1.234,36 0,00 0,00 0,00 0,00 0,00 2.078,00 15.655,97 982,16 2.469,28 0,00 0,00 3.451,44 12.204,53 30/04/2023
854 323800 ELISANGELA GONCALVES DE JESUS OFICIAL DO MP BELO HORIZONTE - COMARCA; DIRETORIA DE PESSOAL ADMINISTRATIVO - DPAD 12.343,61 3.703,08 0,00 0,00 0,00 0,00 0,00 2.078,00 18.124,69 2.348,42 2.845,53 0,00 0,00 5.193,95 12.930,74 30/04/2023
855 507400 ELISANGELA MIGUEL DA ROCHA SILVA ASSESSOR ADMINISTRATIVO II BELO HORIZONTE - COMARCA; CGMP-DIR INSP CORR PROCED PROC DISC 0,00 0,00 7.506,70 0,00 0,00 0,00 0,00 2.078,00 9.584,70 877,22 1.314,11 0,00 0,00 2.191,33 7.393,37 30/04/2023
856 261400 ELISANGELA REZENDE MENDES OFICIAL DO MP POUSO ALEGRE - COMARCA; POUSO ALEGRE-PJ-05PJ 12.343,61 3.703,08 0,00 0,00 0,00 0,00 0,00 2.078,00 18.124,69 2.348,42 2.897,66 0,00 0,00 5.246,08 12.878,61 30/04/2023
857 534100 ELISANGELA ROSINE SILVA OFICIAL DO MP UBERABA - COMARCA; UBERABA-PJ-06PJ 7.506,70 1.501,34 0,00 0,00 0,00 0,00 0,00 2.078,00 11.086,04 1.222,23 1.271,74 0,00 0,00 2.493,97 8.592,07 30/04/2023
858 634300 ELIUDE GRACA DAMASIO ROSARIO FRANCELINO OFICIAL DO MP BELO HORIZONTE - COMARCA; BH-18PJ VIOLENCIA DOMESTICA-SECRETARIA 6.361,62 660,38 0,00 0,00 0,00 0,00 0,00 3.909,82 10.931,82 944,43 801,97 0,00 0,00 1.746,40 9.185,42 30/04/2023
859 461700 ELIZABETH ALEIXO DA PAZ ANALISTA DO MP JUIZ DE FORA - COMARCA; JUIZ DE FORA-PJ-18PJ 12.343,61 2.468,72 0,00 0,00 0,00 0,00 0,00 2.078,00 16.890,33 2.150,92 2.612,53 0,00 0,00 4.763,45 12.126,88 30/04/2023
860 227300 ELIZABETH COIMBRA FELIX OFICIAL DO MP JABOTICATUBAS - COMARCA; JABOTICATUBAS-PJ-UNPJ 18.130,77 9.065,39 0,00 0,00 0,00 0,00 498,60 7.517,23 35.211,99 4.132,33 5.368,92 0,00 0,00 9.501,25 25.710,74 30/04/2023
861 354800 ELIZABETH DOS REIS OFICIAL DO MP BELO HORIZONTE - COMARCA; DIVISAO DE MATERIAIS 12.343,61 3.703,08 0,00 0,00 0,00 0,00 0,00 2.078,00 18.124,69 2.348,42 2.845,53 0,00 0,00 5.193,95 12.930,74 30/04/2023
862 612000 ELIZABETH MARIA DE QUEIROZ TANIGUCHI OFICIAL DO MP BELO HORIZONTE - COMARCA; SUPERINTENDENCIA GESTÃO DE PESSOAS 6.818,83 681,88 0,00 0,00 0,00 0,00 0,00 2.078,00 9.578,71 981,10 923,53 0,00 0,00 1.904,63 7.674,08 30/04/2023
863 452800 ELIZANGELA MARIA DAVI OFICIAL DO MP ARCOS - COMARCA; ARCOS-PJ-01PJ 7.506,70 1.501,34 0,00 0,00 0,00 0,00 0,00 2.078,00 11.086,04 1.222,23 1.219,60 0,00 0,00 2.441,83 8.644,21 30/04/2023
864 496300 ELIZANGELA MARQUES PINTO COELHO OFICIAL DO MP BELO HORIZONTE - COMARCA; DIRETORIA DE PESSOAL ADMINISTRATIVO - DPAD 10.516,49 2.103,30 0,00 0,00 0,00 0,00 0,00 2.078,00 14.697,79 1.800,11 2.106,05 0,00 0,00 3.906,16 10.791,63 30/04/2023
865 422500 ELIZETE FORTES DA CUNHA ANALISTA DO MP RIBEIRÃO DAS NEVES - COMARCA; RIBEIRAO DAS NEVES-PJ-07PJ 18.130,77 3.626,15 0,00 0,00 0,00 0,00 319,10 5.559,11 27.635,13 3.262,06 4.164,59 0,00 0,00 7.426,65 20.208,48 30/04/2023
866 506100 ELLEM CRISTINA ROCHA FONSECA BOWEN ANALISTA DO MP GOVERNADOR VALADARES - COMARCA; COORD REG PJ DEF EDU DIR CRIANCA ADOL RIODOCE 12.343,61 2.468,72 0,00 0,00 0,00 0,00 0,00 2.078,00 16.890,33 2.150,92 2.612,53 0,00 0,00 4.763,45 12.126,88 30/04/2023
867 468200 ELLEN CRISTINA BERNARDES DARE ANALISTA DO MP TRÊS PONTAS - COMARCA; TRES PONTAS-PJ-02PJ 12.343,61 2.468,72 0,00 0,00 0,00 0,00 0,00 3.028,00 17.840,33 2.150,92 2.560,39 0,00 0,00 4.711,31 13.129,02 30/04/2023
868 418800 ELLEN CRISTINA DE QUEIROZ FERREIRA ANALISTA DO MP BELO HORIZONTE - COMARCA; CENTRAL DE APOIO TECNICO-SETOR CONTABIL 17.559,01 3.511,80 0,00 0,00 0,00 0,00 309,04 6.874,33 28.254,18 982,16 4.375,28 0,00 0,00 5.357,44 22.896,74 30/04/2023
869 328401 ELLEN CRISTINA FERREIRA MORAIS MONTEIRO ANALISTA DO MP CAMANDUCAIA - COMARCA; CAMANDUCAIA-PJ-UNPJ 17.559,01 3.511,80 0,00 0,00 0,00 0,00 0,00 2.078,00 23.148,81 3.152,28 3.953,96 0,00 0,00 7.106,24 16.042,57 30/04/2023
870 556100 ELLEN CRISTINE BIANCHIN DA SILVA OFICIAL DO MP SÃO GONÇALO DO SAPUCAÍ - COMARCA; SAO GONCALO DO SAPUCAI-PJ-02PJ 7.506,70 750,67 0,00 0,00 0,00 0,00 0,00 2.078,00 10.335,37 1.102,13 1.046,19 0,00 0,00 2.148,32 8.187,05 30/04/2023
871 714500 ELLEN PROENCA CARVALHO DE ARAUJO ASSESSOR PROMOTOR JUSTICA MARIANA - COMARCA; MARIANA-PJ-02PJ 0,00 0,00 8.810,89 0,00 0,00 0,00 0,00 2.078,00 10.888,89 877,22 1.724,90 0,00 0,00 2.602,12 8.286,77 30/04/2023
872 447100 ELLEN ROSANA DE MACEDO BORGES OFICIAL DO MP UBERLÂNDIA - COMARCA; UBERLANDIA-PJ-17PJ 10.858,90 2.171,78 0,00 0,00 0,00 0,00 0,00 2.078,00 15.108,68 1.865,86 2.200,97 0,00 0,00 4.066,83 11.041,85 30/04/2023
873 477700 ELMA JACOB OFICIAL DO MP BELO HORIZONTE - COMARCA; COORD DE GABINETE DO PGJ 10.516,49 8.413,20 0,00 0,00 0,00 2.809,70 159,42 3.817,16 25.715,97 2.809,70 4.336,30 0,00 0,00 7.146,00 18.569,97 30/04/2023
874 123300 ELMA PAULA DOS SANTOS COELHO OFICIAL DO MP BELO HORIZONTE - COMARCA; BH-19PJ SAUDE-SECRETARIA 130PJ 23.070,31 23.070,31 0,00 0,00 0,00 5.795,34 0,00 2.078,00 54.013,96 5.795,34 9.467,88 8.550,66 0,00 23.813,88 30.200,08 30/04/2023
875 728200 ELMITA XISTO DO VALLE ASSESSOR ADMINISTRATIVO I BELO HORIZONTE - COMARCA; DIRET DE FORMACAO, APERFEIC. E POS-GRADUACAO 0,00 0,00 4.872,71 0,00 0,00 0,00 0,00 2.078,00 6.950,71 718,35 685,59 0,00 0,00 1.403,94 5.546,77 30/04/2023
876 356500 ELOISA CARDOSO SILVA FRANCA OFICIAL DO MP PEÇANHA - COMARCA; PECANHA-PJ-SECRETARIA 7.506,70 2.252,01 0,00 0,00 0,00 0,00 0,00 2.078,00 11.836,71 1.342,34 1.393,00 0,00 0,00 2.735,34 9.101,37 30/04/2023
877 251901 ELOISA COSTA E SILVA ANALISTA DO MP BELO HORIZONTE - COMARCA; CENT ESTAD COOPERACAO TECNICO-JURIDICA 12.343,61 4.937,44 0,00 0,00 0,00 0,00 0,00 2.078,00 19.359,05 2.545,92 3.130,66 0,00 0,00 5.676,58 13.682,47 30/04/2023
878 400400 ELOIZA MARIA FERRI PIRES DA SILVA OFICIAL DO MP BELO HORIZONTE - COMARCA; ASSESSORIA DE COMUNICACAO INTEGRADA 10.858,90 2.171,78 3.752,54 0,00 0,00 0,00 0,00 2.078,00 18.861,22 1.865,86 3.232,91 0,00 0,00 5.098,77 13.762,45 30/04/2023
879 258000 ELSO CECIANO PALMEIRA OFICIAL DO MP BELO HORIZONTE - COMARCA; DIRET DE PESSOAL DO MINISTERIO PUBLICO - DPMP 15.949,86 12.759,89 5.928,90 0,00 0,00 0,00 508,03 7.620,18 42.766,86 4.374,51 7.453,28 0,00 0,00 11.827,79 30.939,07 30/04/2023
880 206900 ELVIRA RITA DOS SANTOS ANALISTA DO MP BELO HORIZONTE - COMARCA; CENTRAL DE APOIO TECNICO-SETOR CONTABIL 23.070,31 9.228,12 0,00 0,00 0,00 4.948,70 546,29 8.037,54 45.830,96 4.948,70 8.012,71 0,00 0,00 12.961,41 32.869,55 30/04/2023
881 506800 ELVIS FERREIRA DA SILVA ANALISTA DO MP BELO HORIZONTE - COMARCA; DIRETORIA DE SISTEMAS DE INFORMACAO 12.343,61 2.468,72 0,00 0,00 0,00 0,00 0,00 3.028,00 17.840,33 2.150,92 2.456,12 0,00 0,00 4.607,04 13.233,29 30/04/2023
882 602400 ELZA MARIA MOREIRA MUNIZ ANALISTA DO MP RIO PARANAÍBA - COMARCA; RIO PARANAIBA-PJ-UNPJ 12.343,61 1.234,36 0,00 0,00 0,00 0,00 0,00 2.078,00 15.655,97 1.953,42 2.223,12 0,00 0,00 4.176,54 11.479,43 30/04/2023
883 368401 ELZIRA SIMOES DOS SANTOS ASSESSOR DE GABINETE I BELO HORIZONTE - COMARCA; ASSESSORIA DE COMUNICACAO INTEGRADA 0,00 7.252,31 18.130,77 0,00 8.461,03 0,00 465,36 7.154,62 41.464,09 877,22 8.609,03 0,00 0,00 9.486,25 31.977,84 30/04/2023
884 437400 EMANOELLE DA SILVA RODRIGUES OFICIAL DO MP UNAÍ - COMARCA; UNAI-PJ-03PJ 10.015,59 2.003,12 0,00 0,00 0,00 0,00 0,00 3.028,00 15.046,71 1.703,94 1.915,06 0,00 0,00 3.619,00 11.427,71 30/04/2023
885 458900 EMANUELLE CONRAD SILVA FREDERICO NAVES ANALISTA DO MP ALFENAS - COMARCA; ALFENAS-PJ-05PJ 17.559,01 3.511,80 0,00 0,00 0,00 0,00 0,00 3.028,00 24.098,81 3.152,28 4.006,10 0,00 0,00 7.158,38 16.940,43 30/04/2023
886 284100 EMERSON MAGNO ALMEIDA PEDROSA DA FONSECA ANALISTA DO MP BELO HORIZONTE - COMARCA; CENTRAL DE APOIO TECNICO-SETOR CONTABIL 23.070,31 6.921,09 0,00 0,00 0,00 0,00 549,84 9.026,28 39.567,52 4.579,57 4.470,79 0,00 0,00 9.050,36 30.517,16 30/04/2023
887 179900 EMERSON MORAIS DIAS OFICIAL DO MP BELO HORIZONTE - COMARCA; SUPERINTENDÊNCIA DE ENGENHARIA E ARQUITETURA 21.346,53 8.538,61 0,00 0,00 0,00 0,00 547,89 8.055,03 38.488,06 4.562,57 6.094,35 0,00 0,00 10.656,92 27.831,14 30/04/2023
888 488700 EMERSON SIQUEIRA DE SOUSA TEIXEIRA ANALISTA DO MP ITANHOMI - COMARCA; ITANHOMI-PJ-UNPJ 12.343,61 2.468,72 0,00 0,00 0,00 0,00 162,94 3.855,48 18.830,75 2.150,92 2.456,12 0,00 0,00 4.607,04 14.223,71 30/04/2023
889 194200 EMILIA ALVES FERREIRA RAMOS OFICIAL DO MP UBERLÂNDIA - COMARCA; UBERLANDIA-PJ-SEC CIVEIS CRIMINAIS 14.960,00 5.984,00 0,00 0,00 0,00 0,00 76,79 2.915,76 23.936,55 3.131,99 4.028,94 0,00 0,00 7.160,93 16.775,62 30/04/2023
890 679500 EMILY DIAS LEMOS E SILVA ASSESSOR PROCURADOR JUSTICA BELO HORIZONTE - COMARCA; GABINETE DE PROCURADOR DE JUSTIÇA - SALA 307 0,00 0,00 8.810,89 0,00 0,00 0,00 0,00 3.028,00 11.838,89 877,22 1.620,62 0,00 0,00 2.497,84 9.341,05 30/04/2023
891 620700 EMILY FONTANA DE SIQUEIRA ANALISTA DO MP BELO HORIZONTE - COMARCA; BH-18PJ VIOLENCIA DOMESTICA-SECRETARIA 11.577,56 1.157,76 0,00 0,00 0,00 0,00 0,00 3.028,00 15.763,32 1.818,60 2.080,60 0,00 0,00 3.899,20 11.864,12 30/04/2023
892 297000 ENEIDA SOARES COSTA MELO ANALISTA DO MP PIUMHI - COMARCA; PIUMHI-PJ-01PJ 23.070,31 6.921,09 0,00 0,00 0,00 0,00 549,84 8.076,28 38.617,52 4.579,57 6.118,89 0,00 0,00 10.698,46 27.919,06 30/04/2023
893 276000 ENEZIO RODRIGUES DE SOUZA FILHO OFICIAL DO MP UBERLÂNDIA - COMARCA; UBERLANDIA-PJ-10PJ 12.343,61 3.703,08 0,00 0,00 0,00 0,00 0,00 2.078,00 18.124,69 2.348,42 2.897,66 0,00 0,00 5.246,08 12.878,61 30/04/2023
894 387700 ENI MARIA DOS REIS OFICIAL DO MP POUSO ALEGRE - COMARCA; POUSO ALEGRE-PJ-07PJ 12.343,61 3.703,08 0,00 0,00 0,00 0,00 0,00 2.078,00 18.124,69 2.348,42 2.897,66 0,00 0,00 5.246,08 12.878,61 30/04/2023
895 605100 ENIA MAIA ASSESSOR ADMINISTRATIVO IV BELO HORIZONTE - COMARCA; DIRETORIA DE ORCAMENTO-DIOR/SPC 14.488,22 1.448,82 0,00 0,00 0,00 0,00 0,00 2.078,00 18.015,04 1.102,13 3.210,24 0,00 0,00 4.312,37 13.702,67 30/04/2023
896 612200 ENILDO GOMES MEIRA FILHO ANALISTA DO MP BELO HORIZONTE - COMARCA; BH-23PJ INFRACIONAL-ASS JURIDICA 11.577,56 1.157,76 0,00 0,00 0,00 0,00 1.309,92 3.028,00 17.073,24 2.028,19 2.278,92 0,00 0,00 4.307,11 12.766,13 30/04/2023
897 553700 ENIVALDO NOVATO PUBLIO ANALISTA DO MP DIVINÓPOLIS - COMARCA; DIVINOPOLIS-PJ-09PJ 12.343,61 1.234,36 0,00 0,00 0,00 0,00 0,00 2.078,00 15.655,97 1.953,42 2.275,25 0,00 0,00 4.228,67 11.427,30 30/04/2023
898 680600 ENZO JOSE FERES SOUZA JABER ASSESSOR PROMOTOR JUSTICA NOVO CRUZEIRO - COMARCA; NOVO CRUZEIRO-PJ-SECRETARIA 0,00 0,00 8.810,89 0,00 0,00 0,00 0,00 1.658,92 10.469,81 877,22 1.724,90 0,00 38,42 2.640,54 7.829,27 30/04/2023
899 417300 ERIC BARATTI DA SILVA ANALISTA DO MP FRUTAL - COMARCA; FRUTAL-PJ-02PJ 13.588,97 2.717,79 0,00 0,00 0,00 0,00 0,00 2.078,00 18.384,76 2.390,03 2.957,74 0,00 0,00 5.347,77 13.036,99 30/04/2023
900 637600 ERIC DA ROCHA CHEHUEN ANALISTA DO MP LIMA DUARTE - COMARCA; LIMA DUARTE-PJ-UNPJ 11.212,54 1.121,25 0,00 0,00 0,00 0,00 0,00 2.078,00 14.411,79 982,16 2.252,34 0,00 0,00 3.234,50 11.177,29 30/04/2023
901 398900 ERIC TEIXEIRA SILVA OFICIAL DO MP UBERLÂNDIA - COMARCA; UBERLANDIA-PJ-SEC CIVEIS CRIMINAIS 11.954,43 2.390,89 0,00 0,00 0,00 0,00 0,00 2.078,00 16.423,32 2.076,20 2.504,65 0,00 0,00 4.580,85 11.842,47 30/04/2023
902 703600 ERICA CORDEIRO SANTOS ASSESSOR PROMOTOR JUSTICA MINAS NOVAS - COMARCA; MINAS NOVAS-PJ-UNPJ 0,00 0,00 8.810,89 0,00 0,00 0,00 0,00 2.078,00 10.888,89 877,22 1.724,90 0,00 0,00 2.602,12 8.286,77 30/04/2023
903 274200 ERICA DE SOUZA ANDRADE OFICIAL DO MP CURVELO - COMARCA; CURVELO-PJ-03PJ 14.960,00 4.488,00 0,00 0,00 0,00 0,00 71,31 2.855,92 22.375,23 2.892,63 3.631,23 0,00 0,00 6.523,86 15.851,37 30/04/2023
904 225700 ERICA GOMES DO COUTO OFICIAL DO MP BELO HORIZONTE - COMARCA; BH-21PJ TUTELA FUNDACOES-SECRETARIA 18.720,84 7.488,34 0,00 0,00 0,00 0,00 0,00 2.553,00 28.762,18 3.974,42 5.245,20 0,00 0,00 9.219,62 19.542,56 30/04/2023
905 632600 ERICA LEONOR MARTINS OFICIAL DO MP RESENDE COSTA - COMARCA; RESENDE COSTA-PJ-UNPJ 7.270,07 727,01 0,00 0,00 0,00 0,00 0,00 2.078,00 10.075,08 1.060,48 1.038,21 0,00 0,00 2.098,69 7.976,39 30/04/2023
906 524800 ERICA MACHADO DA COSTA E SOUZA ANALISTA DO MP BELO HORIZONTE - COMARCA; ASSESS TECNICO-JUR JUNTO AS PROC. DE JUST 13.588,97 2.717,79 0,00 0,00 0,00 0,00 1.014,18 2.078,00 19.398,94 2.390,03 3.236,64 0,00 0,00 5.626,67 13.772,27 30/04/2023
907 249500 ERICA RODRIGUES ANDRADE OFICIAL DO MP SÃO FRANCISCO - COMARCA; SAO FRANCISCO-PJ-02PJ 12.343,61 4.937,44 0,00 0,00 0,00 0,00 0,00 2.078,00 19.359,05 2.545,92 3.130,66 0,00 0,00 5.676,58 13.682,47 30/04/2023
908 260800 ERICA VIANA GIARDINI DE OLIVEIRA OFICIAL DO MP BELO HORIZONTE - COMARCA; DIRETORIA GESTAO COMPRAS LICITACOES 13.160,57 5.264,23 0,00 0,00 0,00 0,00 0,00 2.078,00 20.502,80 2.728,92 3.447,01 0,00 0,00 6.175,93 14.326,87 30/04/2023
909 299800 ERICH DOUGLAS RIBEIRO GARCIA ANALISTA DO MP BELO HORIZONTE - COMARCA; CENTRAL DE APOIO TECNICO-SETOR CONTABIL 22.191,68 6.657,50 0,00 0,00 0,00 0,00 528,90 7.847,84 37.225,92 4.396,82 5.855,04 0,00 0,00 10.251,86 26.974,06 30/04/2023
910 365000 ERICK EDUARDO JOSE DA SILVA OFICIAL DO MP JUIZ DE FORA - COMARCA; JUIZ DE FORA-PJ-12PJ 7.506,70 2.252,01 0,00 0,00 0,00 0,00 0,00 2.078,00 11.836,71 1.342,34 1.445,14 0,00 0,00 2.787,48 9.049,23 30/04/2023
911 227400 ERIKA DE LAET GOULART BOECHAT OFICIAL DO MP BELO HORIZONTE - COMARCA; BH-17PJ PATRIMONIO PUBLICO-SECRETARIA 18.720,84 7.488,34 0,00 0,00 0,00 0,00 480,50 7.319,84 34.009,52 3.974,42 5.193,06 0,00 0,00 9.167,48 24.842,04 30/04/2023
912 681301 ERIKA FERNANDA ELISEU FERREIRA ASSESSOR PROCURADOR JUSTICA BELO HORIZONTE - COMARCA; GABINETE DE PROCURADOR DE JUSTIÇA - SALA 411 0,00 0,00 8.810,89 0,00 0,00 0,00 193,84 4.192,61 13.197,34 877,22 1.724,90 0,00 0,00 2.602,12 10.595,22 30/04/2023
913 285100 ERIKA FERREIRA DA SILVA OFICIAL DO MP JUIZ DE FORA - COMARCA; JUIZ DE FORA-PJ-11PJ 12.343,61 3.703,08 0,00 0,00 0,00 0,00 0,00 2.078,00 18.124,69 2.348,42 2.897,66 0,00 0,00 5.246,08 12.878,61 30/04/2023
914 420100 ERIKA JEANINE VERSIANI DE CASTRO ANALISTA DO MP BELO HORIZONTE - COMARCA; CAO-EDUCACAO 18.130,77 3.626,15 0,00 0,00 0,00 0,00 319,10 5.559,11 27.635,13 3.262,06 4.216,73 0,00 0,00 7.478,79 20.156,34 30/04/2023
915 677100 ERIKA LAYS CARDOSO FERNANDES ASSESSOR PROMOTOR JUSTICA GRAO MOGOL - COMARCA; GRAO MOGOL-PJ-UNPJ 0,00 0,00 8.810,89 0,00 0,00 0,00 0,00 2.078,00 10.888,89 877,22 1.724,90 0,00 0,00 2.602,12 8.286,77 30/04/2023
916 606900 ERIKA MARIA BARBOSA ANALISTA DO MP BELO HORIZONTE - COMARCA; CAO-SAUDE 11.577,56 1.157,76 0,00 0,00 0,00 0,00 0,00 2.078,00 14.813,32 1.818,60 2.080,60 0,00 0,00 3.899,20 10.914,12 30/04/2023
917 491000 ERIKA ROCHA PEREIRA E SILVA COORDENADOR II BELO HORIZONTE - COMARCA; DIR GOVERNANCA TECNOLOGIA INFORMACAO 20.533,67 4.106,73 0,00 0,00 0,00 0,00 542,09 7.991,70 33.174,19 2.307,78 5.272,11 0,00 0,00 7.579,89 25.594,30 30/04/2023
918 283201 ERIKA STEHLING COORDENADOR I BELO HORIZONTE - COMARCA; CENTRAL DE APOIO TECNICO-SETOR DE ENGENHARIA 16.469,17 3.293,83 0,00 0,00 0,00 0,00 0,00 2.078,00 21.841,00 2.150,92 3.973,96 0,00 0,00 6.124,88 15.716,12 30/04/2023
919 254000 ERLANDIA DA SILVA MENDES OFICIAL DO MP IPATINGA - COMARCA; IPATINGA-PJ-03PJ 17.559,01 8.779,51 0,00 0,00 0,00 0,00 482,87 7.345,70 34.167,09 3.995,11 5.118,67 0,00 0,00 9.113,78 25.053,31 30/04/2023
920 348500 ERNILANDIA DE OLIVEIRA DIAS OFICIAL DO MP MONTES CLAROS - COMARCA; MONTES CLAROS-PJ-16PJ 12.343,61 3.703,08 0,00 0,00 0,00 0,00 0,00 2.078,00 18.124,69 2.348,42 2.897,66 0,00 0,00 5.246,08 12.878,61 30/04/2023
921 199300 ERTON PORTINARI DE ANDRADE OFICIAL DO MP SETE LAGOAS - COMARCA; SETE LAGOAS-PJ-05PJ 20.533,67 10.266,84 0,00 0,00 0,00 0,00 451,74 7.006,08 38.258,33 4.709,03 5.876,14 0,00 0,00 10.585,17 27.673,16 30/04/2023
922 618800 ESLY DE CARLA AYALLA BARBOSA MENDES OFICIAL DO MP NOVA LIMA - COMARCA; NOVA LIMA-PJ-SECRETARIA 6.818,83 681,88 0,00 0,00 0,00 0,00 0,00 2.078,00 9.578,71 981,10 923,53 0,00 0,00 1.904,63 7.674,08 30/04/2023
923 537000 ESTANISLAU CORREIA ALMEIDA JUNIOR OFICIAL DO MP UBERLÂNDIA - COMARCA; UBERLANDIA-PJ-25PJ 7.506,70 1.501,34 0,00 0,00 0,00 0,00 0,00 2.078,00 11.086,04 1.222,23 1.271,74 0,00 0,00 2.493,97 8.592,07 30/04/2023
924 692100 ESTEFANIA FARIA FERREIRA ASSESSOR PROCURADOR JUSTICA BELO HORIZONTE - COMARCA; GABINETE DE PROCURADOR DE JUSTIÇA - SALA 814 0,00 0,00 8.810,89 0,00 0,00 0,00 0,00 2.078,00 10.888,89 877,22 1.724,90 0,00 0,00 2.602,12 8.286,77 30/04/2023
925 326900 ESTER ALICE PIMENTA OFICIAL DO MP BELO HORIZONTE - COMARCA; COORD DE INCLUSAO E MOBILIZACAO SOCIAIS 12.343,61 3.703,08 0,00 0,00 0,00 0,00 0,00 2.078,00 18.124,69 2.348,42 2.897,66 0,00 0,00 5.246,08 12.878,61 30/04/2023
926 503700 ESTHER GONCALVES FONSECA ANALISTA DO MP BELO HORIZONTE - COMARCA; DIR CRIACAO E MIDIAS 12.343,61 2.468,72 0,00 0,00 0,00 0,00 0,00 2.078,00 16.890,33 2.150,92 2.612,53 0,00 0,00 4.763,45 12.126,88 30/04/2023
927 475600 ETIENE DE FATIMA OLIVEIRA PEREIRA ANALISTA DO MP PATROCÍNIO - COMARCA; PATROCINIO-PJ-04PJ 12.343,61 2.468,72 0,00 0,00 0,00 0,00 0,00 2.078,00 16.890,33 982,16 2.719,18 0,00 0,00 3.701,34 13.188,99 30/04/2023
928 428800 EUGENIA RODRIGUES TRAJANO BORGES ANALISTA DO MP UBERABA - COMARCA; UBERABA-PJ-10PJ 17.559,01 3.511,80 0,00 0,00 0,00 0,00 0,00 3.028,00 24.098,81 3.152,28 4.058,24 0,00 0,00 7.210,52 16.888,29 30/04/2023
929 272700 EUGENIO DE BARCELOS FILHO OFICIAL DO MP FRUTAL - COMARCA; FRUTAL-PJ-03PJ 12.343,61 3.703,08 0,00 0,00 0,00 0,00 0,00 2.078,00 18.124,69 2.348,42 2.897,66 0,00 0,00 5.246,08 12.878,61 30/04/2023
930 254100 EULALIA ALVES MIRANDA LUCAS OFICIAL DO MP ALMENARA - COMARCA; ALMENARA-PJ-02PJ 15.949,86 7.974,93 0,00 0,00 0,00 0,00 350,90 5.905,97 30.181,66 3.608,91 4.613,23 0,00 0,00 8.222,14 21.959,52 30/04/2023
931 641200 EUNICE ELVIRA DA SILVA MATOS OFICIAL DO MP BELO HORIZONTE - COMARCA; BH-14PJ DEFESA CONSUMIDOR-SECRETARIA 6.603,76 660,38 0,00 0,00 0,00 0,00 0,00 2.078,00 9.342,14 944,43 868,56 0,00 0,00 1.812,99 7.529,15 30/04/2023
932 557900 EURIPEDES JOSUE PERES OFICIAL DO MP IBIÁ - COMARCA; IBIA-PJ-UNPJ 7.506,70 750,67 0,00 0,00 0,00 0,00 151,38 3.729,47 12.138,22 1.102,13 1.098,33 0,00 0,00 2.200,46 9.937,76 30/04/2023
933 225800 EURO CESAR VIEIRA BARBOSA ANALISTA DO MP BELO HORIZONTE - COMARCA; BH-17PJ PATRIMONIO PUBLICO-SECRETARIA 23.070,31 9.228,12 0,00 0,00 0,00 0,00 473,71 7.245,75 40.017,89 4.948,70 6.547,54 0,00 0,00 11.496,24 28.521,65 30/04/2023
934 199400 EUSTAQUIO ADAILTON LIMA E SILVA OFICIAL DO MP MANGA - COMARCA; MANGA-PJ-01PJ 20.533,67 14.373,58 0,00 0,00 0,00 0,00 511,97 7.761,14 43.180,36 5.366,11 7.098,04 0,00 0,00 12.464,15 30.716,21 30/04/2023
935 548000 EVA VILMA LEAO REIS JULIO OFICIAL DO MP BELO HORIZONTE - COMARCA; BH-07PJ 01 TRIBUNAL JURI-SECRETARIA 7.506,70 3.002,68 0,00 0,00 0,00 0,00 0,00 2.078,00 12.587,38 1.462,45 1.618,55 0,00 0,00 3.081,00 9.506,38 30/04/2023
936 517000 EVALDO SENA COSTA FILHO ANALISTA DO MP CONTAGEM - COMARCA; CONTAGEM-PJ-20PJ 12.343,61 4.937,44 0,00 0,00 0,00 0,00 0,00 2.078,00 19.359,05 2.545,92 3.078,53 0,00 0,00 5.624,45 13.734,60 30/04/2023
937 217500 EVELANGE LEAO RABELO ASSESSOR ADMINISTRATIVO II BELO HORIZONTE - COMARCA; CAO-PESSOAS IDOSAS E PESSOAS COM DEFICIENCIA 0,00 3.002,68 7.506,70 0,00 0,00 0,00 0,00 2.078,00 12.587,38 877,22 2.191,98 0,00 0,00 3.069,20 9.518,18 30/04/2023
938 679600 EVERTON BARBOSA DA SILVA ASSESSOR PROCURADOR JUSTICA BELO HORIZONTE - COMARCA; GABINETE DE PROCURADOR DE JUSTIÇA - SALA 510 0,00 0,00 8.810,89 0,00 2.936,96 0,00 549,21 8.069,41 20.366,47 877,22 2.532,56 0,00 0,00 3.409,78 16.956,69 30/04/2023
939 540400 EVIE SARAMELLA DE RESENDE OFICIAL DO MP BARBACENA - COMARCA; BARBACENA-PJ-05PJ 7.506,70 1.501,34 0,00 0,00 0,00 0,00 750,67 2.078,00 11.836,71 1.342,34 1.445,14 0,00 0,00 2.787,48 9.049,23 30/04/2023
940 469000 EWERTON CARDOSO DE SA RODRIGUES ANALISTA DO MP CAMPO BELO - COMARCA; CAMPO BELO-PJ-02PJ 12.343,61 2.468,72 0,00 0,00 0,00 0,00 0,00 2.078,00 16.890,33 2.150,92 2.508,25 0,00 0,00 4.659,17 12.231,16 30/04/2023
941 368900 FABIANA BARBOSA SIQUEIRA OFICIAL DO MP BELO HORIZONTE - COMARCA; CAO-ORDEM ECONOMICA E TRIBUTARIA-SECRETARIA 13.588,97 4.076,69 0,00 0,00 0,00 0,00 64,77 2.784,63 20.515,06 2.607,45 3.219,51 0,00 0,00 5.826,96 14.688,10 30/04/2023
942 273800 FABIANA CARNEIRO AMORIM OFICIAL DO MP BELO HORIZONTE - COMARCA; BH-23PJ CIVEL-COORD ADM CIVEL 15.447,01 4.634,10 4.346,47 0,00 0,00 0,00 537,41 7.940,62 32.905,61 2.993,93 4.972,76 0,00 0,00 7.966,69 24.938,92 30/04/2023
943 519300 FABIANA DE OLIVEIRA LOUREIRO ANALISTA DO MP BELO HORIZONTE - COMARCA; BH-09PJ AUDITORIA MILITAR-SECRETARIA 12.343,61 2.468,72 0,00 0,00 0,00 0,00 543,12 8.002,93 23.358,38 2.150,92 2.612,53 0,00 0,00 4.763,45 18.594,93 30/04/2023
944 363400 FABIANA DOURADO DUPIN VIEGAS ANALISTA DO MP BELO HORIZONTE - COMARCA; GABINETE DE PROCURADOR DE JUSTIÇA - SALA 705 21.346,53 6.403,96 0,00 0,00 0,00 0,00 0,00 2.078,00 29.828,49 4.221,03 5.549,10 0,00 0,00 9.770,13 20.058,36 30/04/2023
945 410800 FABIANA DUARTE QUITITE ANALISTA DO MP BELO HORIZONTE - COMARCA; BH-15PJ M AMB PAT HIST CULT-GAB 116PJ 18.130,77 3.626,15 0,00 0,00 0,00 0,00 319,10 5.559,11 27.635,13 3.262,06 4.216,73 0,00 0,00 7.478,79 20.156,34 30/04/2023
946 419500 FABIANA EULALIA DOS SANTOS ANALISTA DO MP SÃO JOÃO DEL REI - COMARCA; SAO JOAO DEL REI-PJ-01PJ 18.130,77 3.626,15 0,00 0,00 0,00 0,00 319,10 5.559,11 27.635,13 3.262,06 4.216,73 0,00 0,00 7.478,79 20.156,34 30/04/2023
947 725200 FABIANA LOPES DE JESUS ASSESSOR PROMOTOR JUSTICA CONTAGEM - COMARCA; CONTAGEM-PJ-01PJ 0,00 0,00 8.810,89 0,00 0,00 0,00 0,00 2.078,00 10.888,89 877,22 1.724,90 0,00 0,00 2.602,12 8.286,77 30/04/2023
948 700300 FABIANA MARCIA DE SOUZA ASSESSOR ADMINISTRATIVO II BELO HORIZONTE - COMARCA; DIRET DE CONTROLE E DE MANUTENCAO DE IMOVEIS 0,00 0,00 7.506,70 0,00 0,00 0,00 82,57 2.978,80 10.568,07 877,22 1.366,25 0,00 0,00 2.243,47 8.324,60 30/04/2023
949 331500 FABIANA PACHECO OFICIAL DO MP GUAXUPÉ - COMARCA; GUAXUPE-PJ-01PJ 12.343,61 3.703,08 0,00 0,00 0,00 0,00 0,00 2.078,00 18.124,69 2.348,42 2.793,39 0,00 0,00 5.141,81 12.982,88 30/04/2023
950 510700 FABIANA PEREIRA SANTOS BORGES ANALISTA DO MP BELO HORIZONTE - COMARCA; DIRETORIA DE SISTEMAS DE INFORMACAO 12.343,61 2.468,72 5.538,92 0,00 0,00 0,00 0,00 2.078,00 22.429,25 2.150,92 4.083,59 0,00 0,00 6.234,51 16.194,74 30/04/2023
951 181700 FABIANA SOUZA FERREIRA OFICIAL DO MP BELO HORIZONTE - COMARCA; BH-19PJ SAUDE-SECRETARIA 150PJ 7.506,70 3.002,68 0,00 0,00 0,00 0,00 0,00 2.078,00 12.587,38 1.462,45 1.514,27 0,00 0,00 2.976,72 9.610,66 30/04/2023
952 272900 FABIANA STOCKLER LEITE OFICIAL DO MP LAJINHA - COMARCA; LAJINHA-PJ-SECRETARIA 12.343,61 6.171,81 0,00 0,00 0,00 0,00 0,00 2.078,00 20.593,42 2.743,42 3.415,80 0,00 0,00 6.159,22 14.434,20 30/04/2023
953 225500 FABIANE DE FATIMA PORTELLA ANALISTA DO MP BELO HORIZONTE - COMARCA; BH-18PJ DIREITOS HUMANOS-SECRETARIA 23.070,31 9.228,12 0,00 0,00 0,00 0,00 0,00 2.078,00 34.376,43 4.948,70 6.651,82 0,00 0,00 11.600,52 22.775,91 30/04/2023
954 433800 FABIANE DINIZ MATTOS ANALISTA DO MP BELO HORIZONTE - COMARCA; BH-23PJ INFRACIONAL-ASS JURIDICA 18.130,77 3.626,15 0,00 0,00 0,00 0,00 2.237,85 3.598,00 27.592,77 3.620,11 4.733,67 0,00 0,00 8.353,78 19.238,99 30/04/2023
955 455000 FABIANO CARVALHO DA SILVA ANALISTA DO MP LAVRAS - COMARCA; LAVRAS-PJ-05PJ 12.343,61 2.468,72 0,00 0,00 0,00 0,00 0,00 2.078,00 16.890,33 2.150,92 2.612,53 0,00 0,00 4.763,45 12.126,88 30/04/2023
956 498800 FABIANO FURTADO PESSOA COELHO ANALISTA DO MP BELO HORIZONTE - COMARCA; DIRETORIA DE REDES E BANCOS DE DADOS 12.343,61 2.468,72 268,04 0,00 0,00 0,00 0,00 2.078,00 17.158,37 2.150,92 2.581,96 0,00 0,00 4.732,88 12.425,49 30/04/2023
957 663000 FABIANO MARQUES CORREA ASSESSOR ADMINISTRATIVO II BELO HORIZONTE - COMARCA; DIRETORIA DE SUPORTE E MANUTENCAO 0,00 0,00 7.506,70 0,00 0,00 0,00 0,00 2.078,00 9.584,70 877,22 1.366,25 0,00 0,00 2.243,47 7.341,23 30/04/2023
958 394600 FABIANO PALHARES SILVA ANALISTA DO MP BELO HORIZONTE - COMARCA; CENTRAL DE APOIO TECN-SETOR DE MEIO AMBIENTE 18.720,84 5.616,25 0,00 0,00 624,03 0,00 2.455,55 8.443,08 35.859,75 3.974,42 5.364,67 0,00 0,00 9.339,09 26.520,66 30/04/2023
959 676600 FABIANO RESENDE VELOSO ASSESSOR PROCURADOR JUSTICA BELO HORIZONTE - COMARCA; GABINETE DE PROCURADOR DE JUSTIÇA - SALA 1002 0,00 0,00 8.810,89 0,00 0,00 0,00 0,00 2.078,00 10.888,89 877,22 1.724,90 0,00 0,00 2.602,12 8.286,77 30/04/2023
960 444400 FABIANO SARAIVA MEDEIROS ANALISTA DO MP BETIM - COMARCA; BETIM-PJ-11PJ 17.559,01 3.511,80 0,00 0,00 0,00 0,00 0,00 2.078,00 23.148,81 3.152,28 3.953,96 0,00 0,00 7.106,24 16.042,57 30/04/2023
961 408700 FABIANO SOARES PORTILHO ANALISTA DO MP JUIZ DE FORA - COMARCA; GAECO REGIONAL DA ZONA DA MATA-JUIZ DE FORA 18.130,77 3.626,15 0,00 0,00 0,00 0,00 319,10 5.559,11 27.635,13 3.262,06 4.216,73 0,00 0,00 7.478,79 20.156,34 30/04/2023
962 442600 FABIO CARVALHO VIEIRA ANALISTA DO MP MONTES CLAROS - COMARCA; MONTES CLAROS-PJ-06PJ 12.343,61 2.468,72 0,00 0,00 0,00 0,00 0,00 2.078,00 16.890,33 2.150,92 2.612,53 0,00 0,00 4.763,45 12.126,88 30/04/2023
963 716600 FABIO DAMASCENA MONTEIRO DE CARVALHO ASSESSOR PROMOTOR JUSTICA JACINTO - COMARCA; JACINTO-PJ-UNPJ 0,00 0,00 8.810,89 0,00 0,00 0,00 0,00 2.078,00 10.888,89 877,22 1.724,90 0,00 0,00 2.602,12 8.286,77 30/04/2023
964 702700 FABIO JUNIOR COSTA BARREIROS ASSESSOR ADMINISTRATIVO II BELO HORIZONTE - COMARCA; DIVISAO DE MANUTENCAO PREDIAL 0,00 0,00 7.506,70 0,00 0,00 0,00 0,00 2.078,00 9.584,70 877,22 920,31 0,00 0,00 1.797,53 7.787,17 30/04/2023
965 240101 FABIO JUNQUEIRA DE ASSIS FONSECA OFICIAL DO MP BELO HORIZONTE - COMARCA; BH-17PJ PATRIMONIO PUBLICO-SECRETARIA 10.341,72 3.102,52 0,00 0,00 0,00 0,00 0,00 2.078,00 15.522,24 1.932,03 2.296,50 0,00 0,00 4.228,53 11.293,71 30/04/2023
966 271500 FABIO LUIZ VIEIRA OFICIAL DO MP SANTA VITÓRIA - COMARCA; SANTA VITORIA-PJ-UNPJ 12.343,61 3.703,08 0,00 0,00 0,00 0,00 0,00 2.156,12 18.202,81 2.348,42 2.845,53 0,00 0,00 5.193,95 13.008,86 30/04/2023
967 213100 FABIO PRATES GONCALVES ASSESSOR ADMINISTRATIVO IV BELO HORIZONTE - COMARCA; DIR RELACOES INSTITUCIONAIS 0,00 5.795,29 14.488,22 0,00 0,00 0,00 0,00 2.078,00 22.361,51 877,22 4.723,46 0,00 0,00 5.600,68 16.760,83 30/04/2023
968 436700 FABIO SANTIAGO DE CARVALHO OFICIAL DO MP POÇO FUNDO - COMARCA; POCO FUNDO-PJ-UNPJ 11.212,54 2.242,51 0,00 0,00 0,00 0,00 0,00 2.078,00 15.533,05 1.933,76 2.298,99 0,00 0,00 4.232,75 11.300,30 30/04/2023
969 208400 FABIOLA DE SOUSA CARDOSO ANALISTA DO MP BELO HORIZONTE - COMARCA; CGMP-DIR ESTAGIO PROBATORIO E ORIENT 23.070,31 9.228,12 6.160,10 0,00 0,00 0,00 413,49 6.588,79 45.460,81 4.948,70 8.106,99 868,57 0,00 13.924,26 31.536,55 30/04/2023
970 392200 FABIOLA LEROY COSTA ANALISTA DO MP ESMERALDAS - COMARCA; ESMERALDAS-PJ-01PJ 12.343,61 3.703,08 0,00 0,00 0,00 0,00 1.234,36 3.978,00 21.259,05 2.545,92 3.182,80 0,00 0,00 5.728,72 15.530,33 30/04/2023
971 409000 FABIOLA MONTEIRO DE CARVALHO CASTRO ANALISTA DO MP BOM SUCESSO - COMARCA; BOM SUCESSO-PJ-UNPJ 15.447,01 3.089,40 0,00 0,00 0,00 0,00 0,00 2.078,00 20.614,41 2.746,77 3.472,79 0,00 0,00 6.219,56 14.394,85 30/04/2023
972 525800 FABRICIA ALVES DANTAS OFICIAL DO MP MONTES CLAROS - COMARCA; MONTES CLAROS-PJ-01PJ 9.699,77 1.939,95 0,00 0,00 0,00 0,00 0,00 2.078,00 13.717,72 1.643,30 1.827,52 0,00 0,00 3.470,82 10.246,90 30/04/2023
973 263400 FABRICIA PINTO TEIXEIRA SANTIAGO OFICIAL DO MP BELO HORIZONTE - COMARCA; CAO-FUNDACOES-SECRETARIA 17.559,01 5.267,70 0,00 0,00 0,00 0,00 334,79 5.730,27 28.891,77 3.433,22 4.359,58 0,00 0,00 7.792,80 21.098,97 30/04/2023
974 420800 FABRICIO BERNARDES DE OLIVEIRA OFICIAL DO MP ITURAMA - COMARCA; ITURAMA-PJ-02PJ 11.212,54 2.242,51 0,00 0,00 0,00 0,00 0,00 3.131,34 16.586,39 1.933,76 2.246,86 0,00 0,00 4.180,62 12.405,77 30/04/2023
975 474000 FABRICIO DE FREITAS SALES ANALISTA DO MP MONTES CLAROS - COMARCA; COORD REG PP NORTE MINAS GERAIS MONTES CLAROS 12.343,61 2.468,72 0,00 0,00 0,00 0,00 0,00 2.078,00 16.890,33 2.150,92 2.612,53 0,00 0,00 4.763,45 12.126,88 30/04/2023
976 510100 FABRICIO FURTADO ASSIS DO CARMO ANALISTA DO MP BELO HORIZONTE - COMARCA; SERVICO MEDICO-DEPTO PERIC MEDICA SAUDE OCUP 12.343,61 2.468,72 0,00 0,00 0,00 0,00 1.181,10 3.978,00 19.971,43 2.150,92 2.937,33 0,00 0,00 5.088,25 14.883,18 30/04/2023
977 519600 FABRICIO GONTIJO SALVATI ANALISTA DO MP JUIZ DE FORA - COMARCA; JUIZ DE FORA-CAO ESPECIALIZADO-SECRETARIA 12.343,61 2.468,72 0,00 0,00 0,00 0,00 162,94 3.855,48 18.830,75 2.150,92 2.612,53 0,00 0,00 4.763,45 14.067,30 30/04/2023
978 637400 FABRICIO HENRIQUE DA SILVA PASSOS ANALISTA DO MP BELO HORIZONTE - COMARCA; DIR CRIACAO E MIDIAS 12.343,61 1.234,36 4.020,58 0,00 0,00 0,00 0,00 2.078,00 19.676,55 1.953,42 3.433,05 0,00 0,00 5.386,47 14.290,08 30/04/2023
979 428200 FABRICIO ORZIL VIANA ANALISTA DO MP SANTA LUZIA - COMARCA; SANTA LUZIA-PJ-04PJ 12.343,61 2.468,72 0,00 0,00 0,00 0,00 0,00 2.078,00 16.890,33 2.150,92 2.612,53 0,00 0,00 4.763,45 12.126,88 30/04/2023
980 455600 FABRICIO PAIVA DA ROCHA ANALISTA DO MP SÃO JOÃO DEL REI - COMARCA; SAO JOAO DEL REI-PJ-06PJ 12.343,61 2.468,72 0,00 0,00 0,00 0,00 0,00 3.028,00 17.840,33 2.150,92 2.560,39 0,00 0,00 4.711,31 13.129,02 30/04/2023
981 511500 FABRICIO RENE CARDOSO DE PADUA ANALISTA DO MP SÃO SEBASTIÃO DO PARAÍSO - COMARCA; SAO SEBASTIAO DO PARAISO-PJ-03PJ 12.343,61 2.468,72 0,00 0,00 0,00 0,00 0,00 2.078,00 16.890,33 2.150,92 2.612,53 0,00 0,00 4.763,45 12.126,88 30/04/2023
982 496100 FABRICIO RESENDE GONCALVES OFICIAL DO MP ENTRE-RIOS DE MINAS - COMARCA; ENTRE RIOS DE MINAS-PJ-UNPJ 9.699,77 1.939,95 0,00 0,00 0,00 0,00 0,00 2.078,00 13.717,72 1.643,30 1.879,66 0,00 0,00 3.522,96 10.194,76 30/04/2023
983 650300 FABRICIO ROBERTO AZEVEDO OFICIAL DO MP NOVA SERRANA - COMARCA; NOVA SERRANA-PJ-04PJ 6.097,80 609,78 0,00 0,00 0,00 0,00 0,00 2.078,00 8.785,58 858,46 739,15 0,00 0,00 1.597,61 7.187,97 30/04/2023
984 514900 FADUA MARIA DRUMOND CHEQUER ANALISTA DO MP BETIM - COMARCA; BETIM-PJ-12PJ 12.343,61 2.468,72 0,00 0,00 0,00 0,00 162,94 3.855,48 18.830,75 2.150,92 2.508,25 0,00 0,00 4.659,17 14.171,58 30/04/2023
985 282500 FANNY FERREIRA MELO OFICIAL DO MP ARAXÁ - COMARCA; ARAXA-PJ-03PJ 13.160,57 3.948,17 0,00 0,00 0,00 0,00 0,00 2.078,00 19.186,74 2.518,35 3.143,00 0,00 0,00 5.661,35 13.525,39 30/04/2023
986 692500 FARID JUNIOR NUNES DA SILVA ASSESSOR PROCURADOR JUSTICA BELO HORIZONTE - COMARCA; GABINETE DE PROCURADOR DE JUSTIÇA - SALA 912 0,00 0,00 8.810,89 0,00 0,00 0,00 0,00 2.078,00 10.888,89 877,22 1.620,62 0,00 0,00 2.497,84 8.391,05 30/04/2023
987 382800 FATIMA DE OLIVEIRA COELHO E SILVA OFICIAL DO MP BELO HORIZONTE - COMARCA; DIRETORIA DE ADMINISTRACAO FINANCEIRA 11.212,54 4.485,02 4.020,58 0,00 0,00 0,00 0,00 2.078,00 21.796,14 2.292,56 3.870,54 0,00 0,00 6.163,10 15.633,04 30/04/2023
988 398601 FELIPE ANTONIO HORTA DE PAULA ANALISTA DO MP BELO HORIZONTE - COMARCA; PROC. JUSTICA DIR. DIFUSOS E COLETIVOS-SEC 12.343,61 1.234,36 0,00 0,00 0,00 0,00 0,00 2.078,00 15.655,97 1.953,42 2.327,39 0,00 0,00 4.280,81 11.375,16 30/04/2023
989 430900 FELIPE BOY VIEIRA ANALISTA DO MP BELO HORIZONTE - COMARCA; DIRETORIA DE SEGURANCA 15.949,86 3.189,97 6.160,10 0,00 0,00 0,00 0,00 2.078,00 27.377,93 982,16 5.451,06 0,00 0,00 6.433,22 20.944,71 30/04/2023
990 631700 FELIPE DE MORAIS SIMOES COELHO ANALISTA DO MP BELO HORIZONTE - COMARCA; BH-18PJ VIOLENCIA DOMESTICA-SECRETARIA 10.516,49 1.051,65 0,00 0,00 0,00 0,00 0,00 2.078,00 13.646,14 1.631,85 1.863,12 0,00 0,00 3.494,97 10.151,17 30/04/2023
991 549100 FELIPE FERNANDES ALVIM ANALISTA DO MP LAJINHA - COMARCA; LAJINHA-PJ-UNPJ 12.343,61 1.234,36 0,00 0,00 0,00 0,00 0,00 3.028,00 16.605,97 1.953,42 2.327,39 0,00 0,00 4.280,81 12.325,16 30/04/2023
992 693100 FELIPE FROIS DO AMARAL ASSESSOR PROMOTOR JUSTICA RIBEIRÃO DAS NEVES - COMARCA; RIBEIRAO NEVES-SEC PJ EXECUCAO PENAL 0,00 0,00 8.810,89 0,00 0,00 0,00 0,00 2.078,00 10.888,89 877,22 1.724,90 0,00 0,00 2.602,12 8.286,77 30/04/2023
993 620100 FELIPE GOMES DE AZEVEDO OFICIAL DO MP BELO HORIZONTE - COMARCA; DIVISAO DE SERVICOS 6.818,83 681,88 4.020,58 0,00 0,00 0,00 0,00 2.078,00 13.599,29 981,10 2.029,19 0,00 0,00 3.010,29 10.589,00 30/04/2023
994 601600 FELIPE RODRIGUES DE SIQUEIRA ANALISTA DO MP BELO HORIZONTE - COMARCA; BH-02PJ FAMILIA-SECRETARIA 12.343,61 1.234,36 0,00 0,00 0,00 0,00 0,00 2.078,00 15.655,97 982,16 2.039,62 0,00 0,00 3.021,78 12.634,19 30/04/2023
995 628900 FELIX FERNANDO JUNIO VIEIRA ANALISTA DO MP BELO HORIZONTE - COMARCA; BH-21PJ TUTELA DAS FUNDACOES-ASS CURADORES 11.577,56 1.157,76 0,00 0,00 0,00 0,00 0,00 3.028,00 15.763,32 1.818,60 2.028,46 0,00 0,00 3.847,06 11.916,26 30/04/2023
996 544500 FELLIPE LEMOS MARCONDES BUENO ANALISTA DO MP SÃO SEBASTIÃO DO PARAÍSO - COMARCA; SAO SEBASTIAO DO PARAISO-PJ-04PJ 12.343,61 2.468,72 0,00 0,00 0,00 0,00 1.293,20 2.719,86 18.825,39 2.348,42 2.897,66 0,00 0,00 5.246,08 13.579,31 30/04/2023
997 688500 FELLIPE TADEU DE ANDRADE RAMOS ASSESSOR PROCURADOR JUSTICA BELO HORIZONTE - COMARCA; GABINETE DE PROCURADOR DE JUSTIÇA - SALA 907 0,00 0,00 8.810,89 0,00 0,00 0,00 0,00 2.078,00 10.888,89 877,22 1.724,90 0,00 0,00 2.602,12 8.286,77 30/04/2023
998 612600 FERNANDA ADRIANA DE PAULA GUIDO ANALISTA DO MP BELO HORIZONTE - COMARCA; CENT ESTAD COOPERACAO TECNICO-JURIDICA 11.577,56 1.157,76 0,00 0,00 0,00 0,00 0,00 3.028,00 15.763,32 1.818,60 2.132,74 0,00 0,00 3.951,34 11.811,98 30/04/2023
999 508400 FERNANDA AGANETTI MATTOS DE OLIVEIRA ANALISTA DO MP BELO HORIZONTE - COMARCA; CENT ESTAD COOPERACAO TECNICO-JURIDICA 12.343,61 2.468,72 0,00 0,00 0,00 0,00 0,00 3.978,00 18.790,33 982,16 2.933,94 0,00 0,00 3.916,10 14.874,23 30/04/2023
1000 453600 FERNANDA ALBERNAZ RABELO ANALISTA DO MP BELO HORIZONTE - COMARCA; GABINETE DE PROCURADOR DE JUSTIÇA - SALA 616 12.343,61 2.468,72 0,00 0,00 0,00 0,00 0,00 3.028,00 17.840,33 2.150,92 2.612,53 0,00 0,00 4.763,45 13.076,88 30/04/2023
1001 255600 FERNANDA ALINA DE ALMEIDA ANDRADE OFICIAL DO MP BELO HORIZONTE - COMARCA; DIRETORIA DE INTELIGENCIA 12.343,61 4.937,44 0,00 0,00 0,00 0,00 0,00 2.078,00 19.359,05 2.545,92 3.182,80 0,00 0,00 5.728,72 13.630,33 30/04/2023
1002 443200 FERNANDA ALMEIDA LOPES ANALISTA DO MP CONTAGEM - COMARCA; CONTAGEM-PJ-10PJ 17.559,01 3.511,80 0,00 0,00 0,00 0,00 0,00 3.028,00 24.098,81 3.152,28 3.953,96 0,00 0,00 7.106,24 16.992,57 30/04/2023
1003 281100 FERNANDA ANANIAS MEIRA ANALISTA DO MP BELO HORIZONTE - COMARCA; BH-23PJ INFRACIONAL-ASS JURIDICA 22.191,68 6.657,50 0,00 0,00 0,00 0,00 4.451,02 2.078,00 35.378,20 5.108,98 6.883,23 0,00 0,00 11.992,21 23.385,99 30/04/2023
1004 539000 FERNANDA BARBOSA ALVES ANALISTA DO MP UBERABA - COMARCA; UBERABA-PJ-04PJ 12.343,61 2.468,72 0,00 0,00 0,00 0,00 0,00 3.028,00 17.840,33 2.150,92 2.612,53 0,00 0,00 4.763,45 13.076,88 30/04/2023
1005 451200 FERNANDA BLOISE PRADO OFICIAL DO MP BELO HORIZONTE - COMARCA; GAECO - SECRETARIA 10.516,49 2.103,30 0,00 0,00 0,00 0,00 0,00 2.078,00 14.697,79 1.800,11 2.106,05 0,00 0,00 3.906,16 10.791,63 30/04/2023
1006 427900 FERNANDA BRAGA CARNEIRO BICALHO ANALISTA DO MP PEÇANHA - COMARCA; PECANHA-PJ-SECRETARIA 12.343,61 2.468,72 0,00 0,00 0,00 0,00 0,00 2.078,00 16.890,33 2.150,92 2.560,39 0,00 0,00 4.711,31 12.179,02 30/04/2023
1007 507100 FERNANDA CABRINI VAZ MOTA ANALISTA DO MP BELO HORIZONTE - COMARCA; DIVISAO DE MATERIAIS 12.343,61 2.468,72 4.020,58 0,00 0,00 0,00 483,38 9.251,21 28.567,50 982,16 3.888,93 0,00 0,00 4.871,09 23.696,41 30/04/2023
1008 259800 FERNANDA CALZAVARA DE SOUSA OFICIAL DO MP BELO HORIZONTE - COMARCA; DIRET DE INFORMACAO E CONHECIMENTO-DINC/CEAF 17.559,01 7.023,60 6.160,10 0,00 0,00 0,00 450,89 7.946,83 39.140,43 3.714,17 6.511,35 0,00 0,00 10.225,52 28.914,91 30/04/2023
1009 494400 FERNANDA CAMPOS BARATA OFICIAL DO MP JUIZ DE FORA - COMARCA; JUIZ DE FORA-PJ-08PJ 7.506,70 1.501,34 0,00 0,00 0,00 0,00 0,00 2.078,00 11.086,04 1.222,23 1.271,74 0,00 0,00 2.493,97 8.592,07 30/04/2023
1010 555600 FERNANDA CAROLINE RIBEIRO ANALISTA DO MP BELO HORIZONTE - COMARCA; DIRETORIA GESTAO CONTRATOS CONVENIOS 12.343,61 1.234,36 0,00 0,00 0,00 0,00 0,00 2.078,00 15.655,97 1.953,42 2.327,39 0,00 0,00 4.280,81 11.375,16 30/04/2023
1011 692000 FERNANDA CESAR SILVA ASSESSOR PROCURADOR JUSTICA BELO HORIZONTE - COMARCA; GABINETE DE PROCURADOR DE JUSTIÇA - SALA 809 0,00 0,00 8.810,89 0,00 0,00 0,00 0,00 2.078,00 10.888,89 877,22 1.724,90 0,00 0,00 2.602,12 8.286,77 30/04/2023
1012 294500 FERNANDA COSTA FLORES OFICIAL DO MP PARÁ DE MINAS - COMARCA; PARA DE MINAS-PJ-04PJ 13.160,57 3.948,17 0,00 0,00 0,00 0,00 439,12 6.868,45 24.416,31 2.518,35 3.143,00 0,00 0,00 5.661,35 18.754,96 30/04/2023
1013 344500 FERNANDA CRISTINA DE SOUZA PAZ ASSESSOR ADMINISTRATIVO II BELO HORIZONTE - COMARCA; CENTRAL DE APOIO TECN-SETOR DE MEIO AMBIENTE 0,00 0,00 7.506,70 0,00 0,00 0,00 0,00 2.078,00 9.584,70 877,22 1.261,97 0,00 0,00 2.139,19 7.445,51 30/04/2023
1014 538100 FERNANDA CRISTINA DOS SANTOS ROSA OFICIAL DO MP RIBEIRÃO DAS NEVES - COMARCA; RIBEIRAO DAS NEVES-PJ-04PJ 7.506,70 3.002,68 0,00 0,00 0,00 0,00 0,00 2.078,00 12.587,38 1.462,45 1.618,55 0,00 0,00 3.081,00 9.506,38 30/04/2023
1015 337800 FERNANDA CRISTINA ROLAND CLIMACO MENDES COORDENADOR II BELO HORIZONTE - COMARCA; DIRETORIA DE PAGAMENTO DE PESSOAL-DPAG 20.533,67 6.160,10 0,00 0,00 0,00 0,00 489,39 7.416,75 34.599,91 2.993,93 5.648,10 0,00 0,00 8.642,03 25.957,88 30/04/2023
1016 545400 FERNANDA CUNHA GUIMARAES ANALISTA DO MP BELO HORIZONTE - COMARCA; CAO-VIOLENCIA DOMESTICA E FAMILIAR 12.343,61 2.468,72 0,00 0,00 411,45 0,00 1.397,29 3.855,47 20.476,54 2.348,42 3.010,81 0,00 0,00 5.359,23 15.117,31 30/04/2023
1017 429801 FERNANDA CUNHA PINHEIRO DA SILVA ANALISTA DO MP BELO HORIZONTE - COMARCA; ASSESSORIA DE COMUNICACAO INTEGRADA 12.343,61 2.468,72 0,00 0,00 0,00 0,00 0,00 2.078,00 16.890,33 2.150,92 2.508,25 0,00 0,00 4.659,17 12.231,16 30/04/2023
1018 408000 FERNANDA DAS NEVES RAMOS ANALISTA DO MP BELO HORIZONTE - COMARCA; BH-17PJ PATRIMONIO PUBLICO-SECRETARIA 18.130,77 3.626,15 0,00 0,00 0,00 0,00 0,00 2.078,00 23.834,92 3.262,06 4.216,73 0,00 0,00 7.478,79 16.356,13 30/04/2023
1019 496000 FERNANDA DE ALMEIDA VIANA ANALISTA DO MP BELO HORIZONTE - COMARCA; PROC JUST ATUACAO TRIBUNAIS SUPERIORES-GAB002 12.343,61 2.468,72 0,00 0,00 0,00 0,00 0,00 3.978,00 18.790,33 2.150,92 2.508,25 0,00 0,00 4.659,17 14.131,16 30/04/2023
1020 266700 FERNANDA DE CASTRO LUCAS OFICIAL DO MP BELO HORIZONTE - COMARCA; DIRET DE DESENV DE RECURSOS HUMANOS-DDRH 17.559,01 5.267,70 6.160,10 0,00 0,00 0,00 531,42 8.825,36 38.343,59 3.433,22 6.105,74 0,00 0,00 9.538,96 28.804,63 30/04/2023
1021 433200 FERNANDA DE FIGUEIREDO NORTE ANALISTA DO MP BELO HORIZONTE - COMARCA; ASSESS JUR DO CONS SUPERIOR DO MINISTERIO PUB 18.130,77 3.626,15 0,00 0,00 0,00 0,00 0,00 2.078,00 23.834,92 3.262,06 4.112,45 0,00 0,00 7.374,51 16.460,41 30/04/2023
1022 419200 FERNANDA DE MIRANDA MARTINS SIMOES ANALISTA DO MP UBERLÂNDIA - COMARCA; UBERLANDIA-PJ-17PJ 18.130,77 3.626,15 0,00 0,00 0,00 0,00 319,10 6.509,11 28.585,13 3.262,06 4.216,73 0,00 0,00 7.478,79 21.106,34 30/04/2023
1023 441400 FERNANDA DE MORAIS PINTO ANALISTA DO MP BELO HORIZONTE - COMARCA; PROC. JUSTICA DIR. DIFUSOS E COLETIVOS-SEC 17.559,01 3.511,80 0,00 0,00 0,00 0,00 0,00 2.078,00 23.148,81 3.152,28 4.058,24 0,00 0,00 7.210,52 15.938,29 30/04/2023
1024 432200 FERNANDA DE MOURA GUIMARAES ANALISTA DO MP BELO HORIZONTE - COMARCA; BH-26 CRIME CONT CRIAN ADOL-SECRETARIA 17.559,01 3.511,80 0,00 0,00 0,00 0,00 0,00 2.078,00 23.148,81 3.152,28 4.058,24 0,00 0,00 7.210,52 15.938,29 30/04/2023
1025 461800 FERNANDA DE OLIVEIRA SANTOS ANALISTA DO MP JUIZ DE FORA - COMARCA; JUIZ DE FORA-PJ-21PJ 14.960,00 2.992,00 0,00 0,00 0,00 0,00 0,00 3.028,00 20.980,00 2.653,27 3.337,79 0,00 0,00 5.991,06 14.988,94 30/04/2023
1026 432500 FERNANDA DE PAULA PINTO ANALISTA DO MP BELO HORIZONTE - COMARCA; PROC JUST ATUACAO TRIBUNAIS SUPERIORES-GAB003 17.559,01 3.511,80 0,00 0,00 0,00 0,00 0,00 3.028,00 24.098,81 3.152,28 4.058,24 0,00 0,00 7.210,52 16.888,29 30/04/2023
1027 431600 FERNANDA DIAS BARBOSA PEREIRA ANALISTA DO MP BELO HORIZONTE - COMARCA; BH-02PJ FAMILIA-SECRETARIA 17.559,01 3.511,80 0,00 0,00 0,00 0,00 540,82 8.927,83 30.539,46 3.152,28 3.901,82 0,00 0,00 7.054,10 23.485,36 30/04/2023
1028 162200 FERNANDA FERNANDES MONTEIRO ASSESSOR ADMINISTRATIVO II BELO HORIZONTE - COMARCA; BH-18PJ VIOLENCIA DOMESTICA-SECRETARIA 0,00 3.753,35 7.506,70 0,00 0,00 0,00 0,00 2.078,00 13.338,05 877,22 2.294,14 0,00 0,00 3.171,36 10.166,69 30/04/2023
1029 512800 FERNANDA FERREIRA BARBOSA MOREIRA ANALISTA DO MP IPATINGA - COMARCA; IPATINGA-PJ-05PJ 12.343,61 2.468,72 0,00 0,00 0,00 0,00 0,00 2.679,67 17.492,00 982,16 2.783,28 0,00 0,00 3.765,44 13.726,56 30/04/2023
1030 329200 FERNANDA GABRIEL GUZELLA OFICIAL DO MP BELO HORIZONTE - COMARCA; DIRET DE PLANOS PROJETOS E PROGRAMAS INST 12.343,61 3.703,08 0,00 0,00 0,00 0,00 0,00 2.078,00 18.124,69 2.348,42 2.897,66 0,00 0,00 5.246,08 12.878,61 30/04/2023
1031 324200 FERNANDA GEORGIA NEVES ZAHAN OFICIAL DO MP IPANEMA - COMARCA; IPANEMA-PJ-01PJ 12.343,61 9.874,89 0,00 0,00 0,00 0,00 325,87 5.632,96 28.177,33 3.335,91 4.323,35 0,00 0,00 7.659,26 20.518,07 30/04/2023
1032 548200 FERNANDA GONCALVES DE CARVALHO ZUZA OFICIAL DO MP TUPACIGUARA - COMARCA; TUPACIGUARA-PJ-01PJ 7.506,70 750,67 0,00 0,00 0,00 0,00 0,00 2.078,00 10.335,37 1.102,13 1.098,33 0,00 0,00 2.200,46 8.134,91 30/04/2023
1033 355400 FERNANDA HELENA BASQUES OFICIAL DO MP SABARÁ - COMARCA; SABARA-PJ-01PJ 12.343,61 3.703,08 3.004,68 0,00 0,00 0,00 1.450,99 5.888,27 26.390,63 2.348,42 4.026,92 0,00 0,00 6.375,34 20.015,29 30/04/2023
1034 454800 FERNANDA IATAROLA BARBOSA DIAS ANALISTA DO MP BARBACENA - COMARCA; BARBACENA-PJ-05PJ 14.960,00 2.992,00 0,00 0,00 0,00 0,00 0,00 2.078,00 20.030,00 2.653,27 3.285,65 0,00 0,00 5.938,92 14.091,08 30/04/2023
1035 515500 FERNANDA LILIANE MARUGEIRO ANALISTA DO MP LAGOA SANTA - COMARCA; LAGOA SANTA-PJ-01PJ 12.343,61 2.468,72 0,00 0,00 0,00 0,00 0,00 3.028,00 17.840,33 2.150,92 2.560,39 0,00 0,00 4.711,31 13.129,02 30/04/2023
1036 392900 FERNANDA MAGALHAES SILVA ANALISTA DO MP BELO HORIZONTE - COMARCA; DIR CONTEUDO JORNALISTICO 18.720,84 5.616,25 0,00 0,00 0,00 0,00 1.872,08 2.078,00 28.287,17 3.974,42 5.245,20 0,00 0,00 9.219,62 19.067,55 30/04/2023
1037 409200 FERNANDA MAIA SANTIAGO CARDOSO ANALISTA DO MP PIRAPORA - COMARCA; PIRAPORA-PJ-02PJ 12.343,61 2.468,72 0,00 0,00 0,00 0,00 0,00 3.028,00 17.840,33 2.150,92 2.612,53 0,00 0,00 4.763,45 13.076,88 30/04/2023
1038 714100 FERNANDA MELO FIORENZANO REIS ASSESSOR ADMINISTRATIVO IV BELO HORIZONTE - COMARCA; DIR CONTEUDO JORNALISTICO 0,00 0,00 14.488,22 0,00 0,00 0,00 0,00 2.078,00 16.566,22 877,22 3.286,17 0,00 0,00 4.163,39 12.402,83 30/04/2023
1039 556500 FERNANDA OTERO COSTA ANALISTA DO MP BELO HORIZONTE - COMARCA; ASSESS TECNICO-JUR JUNTO AS PROC. DE JUST 12.343,61 1.234,36 0,00 0,00 0,00 0,00 0,00 2.078,00 15.655,97 982,16 2.469,28 0,00 0,00 3.451,44 12.204,53 30/04/2023
1040 615300 FERNANDA PATRICIA RIBEIRO MOTA OFICIAL DO MP UBERABA - COMARCA; UBERABA-PJ-10PJ 7.506,70 750,67 0,00 0,00 0,00 0,00 0,00 2.078,00 10.335,37 982,16 1.115,86 0,00 0,00 2.098,02 8.237,35 30/04/2023
1041 619800 FERNANDA PINTO PEREIRA ANALISTA DO MP UBERLÂNDIA - COMARCA; UBERLANDIA-PJ-20PJ 11.577,56 1.157,76 0,00 0,00 0,00 0,00 0,00 3.978,00 16.713,32 1.818,60 2.080,60 0,00 0,00 3.899,20 12.814,12 30/04/2023
1042 412900 FERNANDA PORTELA ROSA ANALISTA DO MP BELO HORIZONTE - COMARCA; BH-08PJ JUIZADO ESPECIAL-SECRETARIA 18.130,77 3.626,15 0,00 0,00 0,00 0,00 319,10 6.509,11 28.585,13 3.262,06 4.216,73 0,00 0,00 7.478,79 21.106,34 30/04/2023
1043 274301 FERNANDA QUEIROZ PARREIRA ANALISTA DO MP PATOS DE MINAS - COMARCA; GAECO REGIONAL DE PATOS DE MINAS 12.343,61 2.468,72 0,00 0,00 0,00 0,00 0,00 2.078,00 16.890,33 2.150,92 2.612,53 0,00 0,00 4.763,45 12.126,88 30/04/2023
1044